     2              OBSERVATION DATA    GPS                 RINEX VERSION / TYPE
teqc 1998Mar9 19980312 00:56:40UTC                          PGM / RUN BY / DATE
                                                            COMMENT
Original Marker Name: unknown                               COMMENT
Campaign Name: Cholame 1989                                 COMMENT
4-Character Station Name: F179                              COMMENT
6-Character Antenna Code: TI4100                            COMMENT
Vertical Measurement Point: PAE                             COMMENT
Vertical Offset to Rinex Ref. Point: 0.0000                 COMMENT
Radial Measurement Point: PAE                               COMMENT
Radial Offset to Rinex Ref. Point: 0.0842                   COMMENT
Antenna Height from Field Measurement: 1.0130 m             COMMENT
Original XYZ: -2607047.9655 -4480966.6369 3703715.8704      COMMENT
New XYZ position is based on association with SCEC monument COMMENT
E1F1F0R3+0011. Position of that monument is believed to be  COMMENT
valid to within 1 m horizontally; vertical accuracy         COMMENT
should be no worse than 3-times this value.                 COMMENT
                                                            COMMENT
Revised Rinex header created by UCSD GPS archive for        COMMENT
GSAC on 17-Apr-1999 (1999:107) 00:22:17 GMT                 COMMENT
For assistance contact dagnew@ucsd.edu or hjohnson@ucsd.edu COMMENT
                                                            COMMENT
F179                                                        MARKER NAME
unknown UCLA                                                OBSERVER / AGENCY
UN03 TI 4100 1.9                                            REC # / TYPE / VERS
UN03 TI 4100                                                ANT # / TYPE
 -2607047.0000 -4480966.0000  3703716.0000                  APPROX POSITION XYZ
        1.0095        0.0000        0.0000                  ANTENNA: DELTA H/E/N
     1     1     0                                          WAVELENGTH FACT L1/2
     4    P1    P2    L1    L2                              # / TYPES OF OBSERV
     0                                                      INTERVAL
  1989    11    25     9    45   29.000000                  TIME OF FIRST OBS
  1989    11    25    16     8   59.000000                  TIME OF LAST OBS
     0                                                      # OF SATELLITES
                                                            END OF HEADER
 89 11 25  9 45 29.0800000  0  4G 2G 6G11G 9
  23513190.352    23513190.336     1255100.598 9   -443793.265 9
  21292226.437    21292226.269      635352.558 9   -855458.782 9
  22654427.188    22654428.008      392663.081 9   -937089.681 8
  23821653.197    23821651.797      452436.942 9   -851447.756 8
 89 11 25  9 45 59.0800000  0  4G 2G 6G11G 9
  23528460.271    23528460.831     1335341.987 9   -381267.513 9
  21283043.326    21283042.600      587092.458 9   -893064.035 9
  22635723.014    22635725.260      294373.790 9  -1013678.720 8
  23805152.757    23805153.920      365734.624 9   -919007.969 8
 89 11 25  9 46 29.0800000  0  4G 2G 6G11G 9
  23543736.704    23543735.671     1415620.954 8   -318712.500 8
  21273894.172    21273893.757      539011.795 9   -930529.478 9
  22617076.811    22617078.428      196388.605 8  -1090030.811 8
  23788651.135    23788651.190      279023.487 9   -986575.051 7
 89 11 25  9 46 59.0800000  0  4G 2G 6G11G 9
  23559020.212    23559018.844     1495937.021 9   -256128.549 8
  21264778.129    21264779.030      491112.368 9   -967853.709 8
  22598489.677    22598490.225       98710.213 9  -1166143.818 9
  23772150.410    23772149.682      192304.616 9  -1054148.184 8
 89 11 25  9 47 29.0800000  0  4G 2G 6G11G 9
  23574310.979    23574309.618     1576289.587 8   -193516.159 9
  21255698.958    21255698.988      443395.862 9  -1005035.395 9
  22579960.827    22579963.075        1341.865 9  -1242015.245 9
  23755646.548    23755646.498      105578.846 9  -1121726.653 8
 89 11 25  9 47 59.0800000  0  4G 2G 6G11G 9
  23589607.284    23589607.323     1656677.390 8   -130876.370 8
  21246653.600    21246653.112      395863.657 9  -1042073.497 8
  22561491.601    22561493.171      -95714.260 9  -1317643.391 9
  23739143.031    23739143.879       18847.147 8  -1189309.802 8
 89 11 25  9 48 29.0800000  0  4G 2G 6G11G 9
  23604909.794    23604912.916     1737099.535 9    -68209.781 9
                  21237644.016                    -1078966.632 8
                  22543081.600     -192455.506 8
                  23722637.236                    -1256896.998 7
 89 11 25  9 48 59.0800000  0  4G 2G 6G11G 9
  23620223.614    23620221.770     1817556.306 8     -5516.223 9
  21228670.257    21228669.885      274458.742 7  -1115712.869 7
  22524732.782    22524735.446     -288878.523 9  -1406695.960 8
  23706131.088    23706130.974     -173467.994 9  -1324486.685 7
 89 11 25  9 49 29.0800000  0  4G 2G 6G11G 9
  23635538.823    23635539.011     1898046.022 9     57203.004 9
  21219732.189    21219732.782      227490.287 9  -1152311.686 9
  22506445.558    22506447.607     -384981.460 9  -1481581.356 9
  23689623.031    23689622.199     -260211.326 8  -1392078.867 8
 89 11 25  9 49 59.0800000  0  4G 2G 6G11G 9
  23650859.560    23650862.382     1978568.237 8    119947.538 9
  21210830.279    21210830.652      180713.128 8  -1188761.428 8
  22488218.292    22488221.269     -480761.360 9  -1556215.036 9
  23673116.123    23673116.940     -346956.653 9  -1459672.595 8
 89 11 25  9 50 29.0800000  0  4G 2G 6G11G 9
  23666190.515    23666192.895     2059123.584 7    182717.895 9
  21201965.802    21201965.689      134130.008 9  -1225059.964 9
  22470054.131    22470057.348     -576214.507 9  -1630594.110 8
  23656609.300    23656609.163     -433701.708 8  -1527266.112 7
 89 11 25  9 50 59.0800000  0  4G 2G 6G11G 9
  23681523.756    23681525.457     2139709.716 8    245512.228 9
  21193138.680    21193139.097       87741.389 9  -1261206.948 9
  22451952.539    22451955.337     -671339.450 8  -1704717.423 9
  23640103.582    23640104.409     -520446.888 7  -1594859.671 8
 89 11 25  9 51 29.0800000  0  4G 2G 6G11G 9
  23696865.736    23696867.093     2220325.059 8    308329.328 9
  21184348.831    21184349.886       41548.169 9  -1297201.658 8
  22433914.173    22433916.447     -766134.322 8  -1778583.552 8
  23623593.975    23623595.322     -607191.817 8  -1662453.141 8
 89 11 25  9 51 59.0800000  0  4G 2G 6G11G 9
  23712212.863    23712212.523     2300969.591 9    371169.189 9
  21175595.688    21175596.385       -4447.465 9  -1333042.409 8
  22415938.488    22415941.347     -860596.271 9  -1852190.250 8
  23607089.164    23607089.738     -693935.080 9  -1730045.213 8
 89 11 25  9 52 29.0800000  0  4G 2G 6G11G 9
  23727565.159    23727564.517     2381644.825 9    434032.998 9
  21166882.039    21166881.440      -50241.505 9  -1368726.070 8
  22398027.714    22398030.047     -954720.314 9  -1925533.651 8
  23590582.333    23590583.494     -780673.272 8  -1797633.376 9
 89 11 25  9 52 59.0800000  0  4G 2G 6G11G 9
  23742922.246    23742922.499     2462349.130 9    496919.469 9
  21158206.243    21158206.072      -95833.088 9  -1404251.951 9
  22380181.024    22380183.242    -1048504.742 9  -1998612.403 9
  23574077.809    23574077.160     -867406.413 8  -1865217.543 8
 89 11 25  9 53 29.0800000  0  4G 2G 6G11G 9
  23758284.333    23758287.353     2543080.741 9    559827.171 9
  21149568.728    21149568.600     -141221.743 9  -1439619.734 8
  22362399.563    22362401.468    -1141948.155 9  -2071425.419 9
  23557572.192    23557574.493     -954134.473 7  -1932797.841 8
 89 11 25  9 53 59.0800000  0  4G 2G 6G11G 9
  23773650.576    23773655.055     2623839.449 9    622756.008 9
  21140970.659    21140970.169     -186404.993 9  -1474827.484 8
  22344683.066    22344685.363    -1235047.464 9  -2143970.327 9
  23541073.669    23541071.927    -1040855.782 9  -2000372.915 8
 89 11 25  9 54 29.0800000  0  4G 2G 6G11G 9
  23789025.509    23789027.591     2704625.893 9    685706.479 9
  21132412.484    21132413.173     -231380.506 9  -1509873.332 9
  22327033.088    22327034.860    -1327799.315 9  -2216244.511 9
  23524573.547    23524571.018    -1127568.760 9  -2067941.360 8
 89 11 25  9 54 59.0800000  0  4G 2G 6G11G 9
  23804406.704    23804406.337     2785437.926 9    748676.867 9
  21123893.422    21123892.889     -276147.365 9  -1544756.590 9
  22309450.107    22309451.668    -1420202.013 9  -2288246.603 9
  23508068.683    23508071.929    -1214272.814 9  -2135502.980 8
 89 11 25  9 55 29.0800000  0  4G 2G 6G11G 9
  23819781.960    23819787.226     2866275.669 8    811667.295 9
  21115414.005    21115413.728     -320703.228 8  -1579475.446 8
  22291933.074    22291934.347    -1512252.524 9  -2359974.255 9
  23491574.437    23491573.320    -1300966.347 8  -2203056.377 8
 89 11 25  9 55 59.0800000  0  4G 2G 6G11G 9
  23835170.695    23835177.586     2947138.839 7    874677.455 9
  21106976.981    21106977.083     -365045.227 8  -1614027.649 8
  22274484.912    22274485.344    -1603947.265 9  -2431424.675 8
  23475080.934    23475079.529    -1387647.547 8  -2270600.074 7
 89 11 25  9 56 29.0800000  0  4G 2G 6G11G 9
  23850567.492    23850569.503     3028026.371 8    937706.650 9
  21098577.972    21098578.593     -409173.079 9  -1648412.985 9
  22257103.523    22257105.080    -1695285.251 9  -2502597.116 8
  23458584.594    23458586.674    -1474316.303 7  -2338134.171 9
 89 11 25  9 56 59.0800000  0  4G 2G 6G11G 9
  23865963.590    23865966.182     3108937.851 7   1000754.493 9
  21090223.131    21090223.418     -453084.224 9  -1682629.452 8
  22239789.883    22239793.075    -1786263.087 9  -2573488.911 8
  23442095.433    23442096.990    -1560970.736 9  -2405657.101 8
 89 11 25  9 57 29.0800000  0  4G 2G 6G11G 9
  23881361.894    23881367.669     3189873.555 8   1063821.226 8
  21081908.307    21081908.753     -496775.957 9  -1716674.961 8
  22222546.960    22222548.323    -1876877.495 9  -2644097.530 9
  23425610.905    23425610.659    -1647608.792 8  -2473167.228 8
 89 11 25  9 57 59.0800000  0  4G 2G 6G11G 9
  23896771.325    23896772.821     3270830.607 8   1126904.599 8
  21073636.450    21073637.142     -540248.422 9  -1750549.623 8
  22205373.122    22205375.199    -1967127.512 9  -2714422.215 9
  23409127.590    23409126.729    -1734231.375 9  -2540665.314 8
 89 11 25  9 58 29.0800000  0  4G 2G 6G11G 9
  23912179.294    23912179.091     3351809.648 8   1190005.166 8
  21065406.442    21065406.434     -583498.848 9  -1784251.247 8
  22188268.182    22188270.586    -2057010.125 9  -2784460.587 9
  23392645.649    23392648.002    -1820836.170 8  -2608149.574 8
 89 11 25  9 58 59.0800000  0  4G 2G 6G11G 9
  23927595.050    23927594.809     3432810.603 8   1253122.779 8
  21057218.369    21057218.028     -626524.619 9  -1817777.797 9
  22171235.587    22171237.662    -2146522.012 9  -2854210.071 8
  23376169.722    23376168.348    -1907421.263 8  -2675618.430 8
 89 11 25  9 59 29.0800000  0  4G 2G 6G11G 9
  23943013.579    23943013.397     3513832.794 8   1316256.990 7
  21049073.750    21049072.987     -669324.842 9  -1851128.604 8
  22154272.726    22154273.543    -2235661.398 9  -2923669.316 7
  23359699.491    23359696.620    -1993986.261 9  -2743071.607 9
 89 11 25  9 59 59.0800000  0  4G 2G 6G11G 9
  23958432.912    23958437.603     3594875.255 7   1379406.832 9
  21040972.610    21040972.436     -711897.493 9  -1884302.099 9
  22137381.652    22137382.083    -2324426.097 9  -2992836.583 8
  23343230.906    23343230.076    -2080529.958 8  -2810508.248 9
 89 11 25 10  0 29.0800000  0  4G 2G 6G11G 9
  23973860.131    23973861.183     3675937.303 8   1442572.052 9
  21032914.475    21032915.321     -754241.356 9  -1917297.340 8
  22120561.763    22120562.705    -2412813.839 9  -3061710.149 9
  23326762.682    23326765.140    -2167051.288 9  -2877927.554 8
 89 11 25 10  0 59.0800000  0  4G 2G 6G11G 9
  23989290.594    23989291.443     3757019.270 7   1505752.724 9
  21024901.519    21024902.435     -796353.275 9  -1950111.816 8
  22103814.196    22103816.283    -2500821.035 9  -3130287.165 8
  23310299.875    23310302.879    -2253548.249 8  -2945327.684 8
 89 11 25 10  1 29.0800000  0  4G 2G 6G11G 9
  24004722.719    24004724.554     3838120.519 8   1568948.438 9
  21016932.339    21016932.235     -838230.882 9  -1982743.719 8
  22087140.305    22087140.866    -2588444.760 9  -3198565.378 8
  23293844.933    23293852.226    -2340018.574 7  -3012707.205 9
 89 11 25 10  1 59.0800000  0  4G 2G 6G11G 9
  24020160.072    24020161.472     3919240.103 9   1632158.448 9
  21009007.651    21009008.272     -879873.380 9  -2015192.415 9
  22070538.879    22070540.164    -2675683.570 9  -3266543.673 8
  23277398.205    23277400.735    -2426462.389 8  -3080066.053 8
 89 11 25 10  2 29.0800000  0  4G 2G 6G11G 9
  24035599.953    24035600.151     4000376.397 9   1695381.530 9
  21001127.960    21001129.302     -921279.426 9  -2047456.871 9
  22054011.543    22054012.928    -2762536.025 9  -3334220.898 8
  23260956.367    23260951.221    -2512878.857 9  -3147403.429 7
 89 11 25 10  2 59.0800000  0  4G 2G 6G11G 9
  24051042.451    24051043.414     4081531.024 9   1758618.861 8
  20993295.024    20993294.124     -962445.693 9  -2079534.461 8
  22037558.908    22037559.904    -2848997.835 9  -3401593.715 8
  23244518.584    23244517.040    -2599264.926 9  -3214717.176 7
 89 11 25 10  3 29.0800000  0  4G 2G 6G11G 9
  24066488.918    24066490.736     4162702.304 9   1821869.173 9
  20985506.645    20985506.999    -1003370.808 9  -2111424.176 8
  22021179.798    22021181.486    -2935067.365 9  -3468660.891 9
  23228086.574    23228086.101    -2685620.055 9  -3282006.896 9
 89 11 25 10  3 59.0800000  0  4G 2G 6G11G 9
  24081938.901    24081940.360     4243889.821 9   1885132.179 9
  20977766.088    20977765.283    -1044052.840 9  -2143124.457 9
  22004876.228    22004878.217    -3020742.225 9  -3535420.515 9
  23211658.681    23211659.168    -2771942.844 9  -3349271.433 8
 89 11 25 10  4 29.0800000  0  4G 2G 6G11G 9
  24097389.678    24097392.433     4325093.444 8   1948407.691 9
  20970070.596    20970071.107    -1084489.412 9  -2174633.476 9
  21988649.276    21988650.189    -3106019.288 9  -3601870.162 8
  23195239.162    23195232.959    -2858231.255 9  -3416509.116 7
 89 11 25 10  4 59.0800000  0  4G 2G 6G11G 9
  24112846.043    24112847.929     4406313.409 8   2011695.969 9
  20962423.039    20962423.268    -1124678.261 9  -2205949.456 8
  21972497.554    21972498.744    -3190896.034 9  -3668007.874 9
  23178825.369    23178822.989    -2944483.803 8  -3483718.813 8
 89 11 25 10  5 29.0800000  0  4G 2G 6G11G 9
  24128305.122    24128306.178     4487548.150 9   2074995.714 9
  20954823.226    20954821.649    -1164618.793 9  -2237071.946 9
  21956421.947    21956424.020    -3275371.370 9  -3733832.790 8
  23162419.917    23162419.640    -3030700.201 9  -3550900.430 9
 89 11 25 10  5 59.0800000  0  4G 2G 6G11G 9
  24143766.256    24143766.945     4568795.852 9   2138305.566 9
  20947269.663    20947270.132    -1204310.118 9  -2268000.246 7
  21940423.350    21940426.308    -3359444.174 9  -3799344.053 9
  23146021.403    23146021.319    -3116880.136 9  -3618053.676 8
 89 11 25 10  6 29.0800000  0  4G 2G 6G11G 9
  24159230.341    24159230.671     4650058.300 9   2201626.927 9
  20939765.064    20939765.742    -1243748.000 9  -2298731.069 8
  21924502.105    21924504.841    -3443109.579 9  -3864537.848 9
  23129629.782    23129626.736    -3203020.007 9  -3685175.638 8
 89 11 25 10  6 59.0800000  0  4G 2G 6G11G 9
  24174696.615    24174698.206     4731334.781 9   2264959.210 9
  20932308.029    20932308.883    -1282930.738 9  -2329263.060 8
  21908659.725    21908661.670    -3526365.590 9  -3929412.653 8
  23113247.040    23113236.423    -3289118.498 9  -3752265.288 7
 89 11 25 10  7 29.0800000  0  4G 2G 6G11G 9
  24190165.266    24190166.395     4812624.043 8   2328301.439 9
  20924901.325    20924901.101    -1321857.365 9  -2359595.489 8
  21892895.028    21892896.514    -3609210.731 9  -3993967.277 9
  23096871.114    23096865.768    -3375174.992 9  -3819322.291 9
 89 11 25 10  7 59.0800000  0  4G 2G 6G11G 9
  24205635.949    24205637.758     4893925.018 8   2391652.813 9
  20917542.107    20917541.717    -1360526.298 9  -2389727.122 8
  21877208.328    21877210.202    -3691643.482 9  -4058200.572 9
  23080503.852    23080501.543    -3461188.489 9  -3886345.870 8
 89 11 25 10  8 29.0800000  0  4G 2G 6G11G 9
  24221109.709    24221110.751     4975238.456 8   2455013.872 9
  20910233.659    20910232.759    -1398934.978 9  -2419655.961 8
  21861600.603    21861603.077    -3773661.094 9  -4122110.376 8
  23064144.798    23064140.339    -3547156.033 9  -3953334.383 8
 89 11 25 10  8 59.0800000  0  4G 2G 6G11G 9
  24236584.525    24236586.938     5056564.928 7   2518385.088 9
  20902975.465    20902974.731    -1437079.785 9  -2449379.187 8
  21846073.319    21846075.595    -3855259.270 9  -4185693.350 9
  23047794.477    23047785.092    -3633075.414 9  -4020285.302 7
 89 11 25 10  9 29.0800000  0  4G 2G 6G11G 9
  24252063.436    24252063.902     5137902.459 8   2581764.921 8
  20895766.141    20895766.681    -1474960.257 9  -2478896.453 8
  21830625.115    21830628.276    -3936437.208 9  -4248948.870 9
  23031452.677    23031443.880    -3718946.719 9  -4087198.725 9
 89 11 25 10  9 59.0800000  0  4G 2G 6G11G 9
  24267543.344    24267544.069     5219250.859 9   2645153.264 8
  20888608.512    20888610.049    -1512574.363 9  -2508206.149 9
  21815257.783    21815260.486    -4017192.786 9  -4311875.268 9
  23015119.192    23015116.640    -3804768.161 9  -4154073.333 8
 89 11 25 10 10 29.0800000  0  4G 2G 6G11G 9
  24283025.890    24283026.206     5300609.975 8   2708549.915 9
  20881502.969    20881501.931    -1549919.872 9  -2537306.537 9
  21799972.026    21799973.800    -4097523.544 9  -4374470.646 9
  22998790.874    22998797.626    -3890539.337 7  -4220907.957 8
 89 11 25 10 10 59.0800000  0  4G 2G 6G11G 9
  24298510.190    24298512.388     5381979.642 8   2771954.777 8
  20874447.622    20874447.322    -1586994.625 9  -2566195.944 8
  21784767.392    21784768.846    -4177427.262 9  -4436733.270 9
  22982479.418    22982485.335    -3976257.237 6  -4287701.074 8
 89 11 25 10 11 29.0800000  0  4G 2G 6G11G 9
  24313996.511    24313997.955     5463358.856 9   2835367.107 9
  20867443.301    20867444.377    -1623797.522 9  -2594873.527 9
  21769642.769    21769645.430    -4256902.299 9  -4498661.856 8
  22966196.248    22966183.549    -4061921.124 9  -4354452.008 7
 89 11 25 10 11 59.0800000  0  4G 2G 6G11G 9
  24329483.068    24329484.828     5544747.447 8   2898786.732 8
  20860492.507    20860493.581    -1660325.895 9  -2623337.204 8
  21754601.361    21754603.633    -4335946.036 9  -4560254.363 9
  22949896.679    22949886.031    -4147528.507 9  -4421159.134 7
 89 11 25 10 12 29.0800000  0  4G 2G 6G11G 9
  24344973.687    24344974.667     5626144.367 9   2962212.910 8
  20853594.235    20853593.374    -1696578.605 9  -2651586.056 8
  21739642.506    21739643.742    -4414556.927 9  -4621509.589 9
  22933615.133    22933603.838    -4233079.234 9  -4487822.061 8
 89 11 25 10 12 59.0800000  0  3G 6G11G 9
  20846748.053    20846748.328    -1732551.902 9  -2679617.201 9
  21724766.396    21724767.169    -4492731.065 7  -4682424.489 6
  22917341.577    22917338.015    -4318569.726 9  -4554438.011 8
 89 11 25 10 13 29.0800000  0  3G 6G11G 9
  20839957.108    20839956.496    -1768244.656 9  -2707429.712 9
  21709973.553    21709974.952    -4570467.519 8  -4742998.340 7
  22901080.645    22901084.976    -4403999.282 7  -4621006.414 9
 89 11 25 10 13 59.0800000  0  3G 6G11G 9
  20833218.523    20833218.148    -1803655.489 9  -2735022.565 8
  21695264.611    21695266.015    -4647764.426 9  -4803229.698 9
  22884847.732    22884843.826    -4489367.019 9  -4687526.623 8
 89 11 25 10 14 29.0800000  0  3G 6G11G 9
  20826533.919    20826533.811    -1838781.480 9  -2762393.464 8
  21680639.997    21680640.489    -4724618.851 9  -4863116.236 8
  22868611.659    22868612.350    -4574669.923 9  -4753996.473 9
 89 11 25 10 14 59.0800000  0  3G 6G11G 9
  20819903.742    20819904.218    -1873621.479 9  -2789541.527 9
  21666098.999    21666100.226    -4801029.702 9  -4922657.142 7
  22852384.566    22852392.181    -4659907.519 9  -4820415.400 9
 89 11 25 10 15 29.0800000  0  3G 6G11G 9
  20813329.331    20813328.362    -1908173.031 9  -2816464.830 9
  21651643.547    21651644.552    -4876994.293 9  -4981850.304 9
  22836181.382    22836184.969    -4745077.935 9  -4886781.884 9
 89 11 25 10 15 59.0800000  0  3G 6G11G 9
  20806808.829    20806810.372    -1942433.941 9  -2843161.637 8
  21637273.690    21637273.761    -4952510.522 9  -5040694.100 9
  22819991.359    22819990.112    -4830178.926 9  -4953094.361 9
 89 11 25 10 16 29.0800000  0  3G 6G11G 9
  20800345.155    20800345.056    -1976402.236 9  -2869630.430 8
  21622988.372    21622989.331    -5027576.535 9  -5099187.074 8
  22803805.631    22803808.599    -4915208.929 9  -5019351.557 9
 89 11 25 10 16 59.0800000  0  3G 6G11G 9
  20793937.225    20793938.096    -2010076.469 8  -2895870.091 8
  21608790.341    21608791.085    -5102190.610 9  -5157327.891 8
  22787638.770    22787639.921    -5000167.067 7  -5085552.602 8
 89 11 25 10 17 29.0800000  0  3G 6G11G 9
  20787585.861    20787586.270    -2043454.218 9  -2921878.732 9
  21594677.077    21594679.647    -5176350.646 9  -5215114.924 8
  22771491.458    22771484.451    -5085050.921 9  -5151695.905 8
 89 11 25 10 17 59.0800000  0  3G 6G11G 9
  20781291.731    20781291.115    -2076533.259 9  -2947654.606 9
  21580652.183    21580654.299    -5250054.287 9  -5272546.306 9
  22755341.240    22755340.877    -5169858.725 9  -5217779.943 7
 89 11 25 10 18 29.0800000  0  3G 6G11G 9
  20775053.312    20775053.761    -2109311.141 9  -2973195.816 9
  21566713.690    21566716.478    -5323299.217 9  -5329620.267 8
  22739230.876    22739216.514    -5254588.591 9  -5283803.147 7
 89 11 25 10 18 59.0800000  0  3G 6G11G 9
  20768873.617    20768873.045    -2141787.068 9  -2998501.711 9
  21552863.434    21552866.949    -5396084.481 9  -5386336.037 9
  22723117.019    22723115.538    -5339239.415 9  -5349764.964 7
 89 11 25 10 19 29.0800000  0  3G 6G11G 9
  20762751.198    20762751.143    -2173958.531 8  -3023570.394 8
  21539101.314    21539103.897    -5468407.575 9  -5442691.678 8
  22707020.163    22707029.928    -5423809.485 9  -5415663.725 8
 89 11 25 10 19 59.0800000  0  3G 6G11G 9
  20756688.209    20756688.243    -2205822.500 8  -3048399.458 9
  21525426.482    21525428.190    -5540265.742 9  -5498685.045 8
  22690947.483    22690951.483    -5508295.716 9  -5481497.121 9
 89 11 25 10 20 29.0800000  0  3G 6G11G 9
  20750683.394    20750683.866    -2237378.199 9  -3072988.293 7
  21511840.625    21511843.602    -5611658.553 9  -5554315.794 9
  22674884.053    22674888.783    -5592697.796 9  -5547264.847 9
 89 11 25 10 20 59.0800000  0  3G 6G11G 9
  20744738.019    20744736.477    -2268623.982 9  -3097335.656 8
  21498344.240    21498345.825    -5682584.554 9  -5609582.778 8
  22658840.832    22658842.209    -5677014.155 9  -5612965.915 9
 89 11 25 10 21 29.0800000  0  3G 6G11G 9
  20738850.730    20738850.895    -2299556.990 9  -3121439.286 8
  21484936.926    21484938.350    -5753040.698 9  -5664483.645 8
  22642808.591    22642809.692    -5761241.987 9  -5678597.964 8
 89 11 25 10 21 59.0800000  0  3G 6G11G 9
  20733024.261    20733024.165    -2330175.895 9  -3145298.174 9
  21471619.629    21471620.738    -5823025.966 9  -5719017.592 8
  22626802.873    22626796.627    -5845380.571 9  -5744160.521 9
 89 11 25 10 22 29.0800000  0  3G 6G11G 9
  20727258.569    20727257.784    -2360477.930 9  -3168910.132 9
  21458391.620    21458392.538    -5892537.675 9  -5773182.557 8
  22610805.598    22610805.379    -5929427.288 9  -5809651.454 8
 89 11 25 10 22 59.0800000  0  3G 6G11G 9
  20721553.168    20721552.382    -2390460.484 9  -3192273.150 8
  21445254.272    21445254.841    -5961573.615 9  -5826976.779 8
  22594829.131    22594832.477    -6013379.546 8  -5875068.803 9
 89 11 25 10 23 29.0800000  0  3G 6G11G 9
  20715908.871    20715909.089    -2420122.544 9  -3215386.467 9
  21432207.787    21432207.844    -6030132.616 9  -5880399.371 8
  22578880.238    22578874.359    -6097236.539 9  -5940411.830 9
 89 11 25 10 23 59.0800000  0  3G 6G11G 9
  20710325.089    20710324.700    -2449461.747 9  -3238248.175 8
  21419252.909    21419253.735    -6098212.710 9  -5933448.775 9
  22562929.817    22562933.688    -6180995.997 9  -6005678.943 8
 89 11 25 10 24 29.0800000  0  3G 6G11G 9
  20704803.286    20704802.721    -2478476.453 9  -3260857.031 8
  21406388.836    21406389.015    -6165812.803 9  -5986124.161 9
  22547017.748    22547013.157    -6264656.731 9  -6070869.126 9
 89 11 25 10 24 59.0800000  0  3G 6G11G 9
  20699344.174    20699345.011    -2507164.351 9  -3283211.250 9
  21393617.123    21393617.842    -6232930.737 9  -6038423.833 8
  22531115.119    22531113.199    -6348216.544 9  -6135980.595 9
 89 11 25 10 25 29.0800000  0  3G 6G11G 9
  20693948.604    20693947.448    -2535522.593 9  -3305308.585 9
  21380936.064    21380937.955    -6299563.941 9  -6090345.787 8
  22515229.655    22515232.406    -6431672.400 9  -6201011.141 8
 89 11 25 10 25 59.0800000  0  3G 6G11G 9
  20688614.881    20688614.481    -2563550.245 8  -3327148.330 8
  21368349.504    21368350.074    -6365711.704 9  -6141889.477 8
  22499372.100    22499370.614    -6515023.613 9  -6265960.159 9
 89 11 25 10 26 29.0800000  0  3G 6G11G 9
  20683344.153    20683344.711    -2591245.608 9  -3348729.135 8
  21355853.867    21355856.337    -6431372.903 9  -6193054.043 8
  22483531.647    22483527.763    -6598268.834 9  -6330826.528 8
 89 11 25 10 26 59.0800000  0  3G 6G11G 9
  20678137.631    20678138.170    -2618605.959 9  -3370048.897 8
  21343452.384    21343454.204    -6496545.320 9  -6243837.725 8
  22467706.642    22467710.419    -6681405.242 9  -6395608.152 9
 89 11 25 10 27 29.0800000  0  3G 6G11G 9
  20672995.823    20672995.749    -2645628.505 9  -3391105.392 8
  21331144.537    21331145.556    -6561226.144 9  -6294238.352 9
  22451911.194    22451911.420    -6764430.225 9  -6460302.934 9
 89 11 25 10 27 59.0800000  0  3G 6G11G 9
  20667917.295    20667917.818    -2672312.756 9  -3411898.335 9
  21318929.530    21318931.544    -6625415.366 9  -6344255.926 9
  22436134.893    22436130.783    -6847343.302 9  -6524910.516 9
 89 11 25 10 28 29.0800000  0  3G 6G11G 9
  20662904.140    20662904.249    -2698656.364 9  -3432425.777 9
  21306809.222    21306810.854    -6689111.072 9  -6393888.924 9
  22420376.717    22420378.251    -6930142.161 9  -6589429.106 9
 89 11 25 10 28 59.0800000  0  3G 6G11G 9
  20657956.418    20657956.913    -2724656.768 8  -3452685.835 7
  21294781.637    21294783.193    -6752311.242 9  -6443135.789 8
  22404640.653    22404640.429    -7012824.274 9  -6653856.725 9
 89 11 25 10 29 29.0800000  0  3G 6G11G 9
  20653075.124    20653075.185    -2750312.169 9  -3472677.044 9
  21282850.124    21282851.312    -6815014.565 9  -6491995.502 9
  22388927.907    22388932.674    -7095387.949 9  -6718192.099 9
 89 11 25 10 29 59.0800000  0  3G 6G11G 9
  20648258.863    20648259.676    -2775620.002 9  -3492397.436 8
  21271012.540    21271014.010    -6877218.816 9  -6540466.324 9
  22373241.117    22373241.672    -7177830.494 9  -6782433.015 9
 89 11 25 10 30 29.0800000  0  3G 6G11G 9
  20643509.241    20643509.038    -2800578.731 8  -3511845.823 8
  21259270.533    21259272.503    -6938922.868 9  -6588547.388 8
  22357577.335    22357579.023    -7260150.421 9  -6846578.425 8
 89 11 25 10 30 59.0800000  0  4G13G 6G11G 9
  24508109.054    24508110.950   -16267744.897 9  20722884.201 7
  20638826.963    20638826.860    -2825186.478 9  -3531020.731 8
  21247624.385    21247625.652    -7000125.508 9  -6636237.742 9
  22341935.562    22341937.231    -7342346.092 9  -6910626.972 9
 89 11 25 10 31 29.0800000  0  4G13G 6G11G 9
  24485624.800    24485626.165   -16385905.023 9  20630811.877 7
  20634211.080    20634211.161    -2849441.959 8  -3549921.123 8
  21236073.323    21236074.561    -7060825.782 9  -6683536.629 8
  22326317.694    22326320.270    -7424415.956 9  -6974577.559 9
 89 11 25 10 31 59.0800000  0  4G13G 6G11G 9
  24463161.454    24463164.321   -16503948.108 8  20538830.257 7
  20629663.150    20629663.716    -2873342.140 9  -3568544.660 9
  21224618.128    21224620.398    -7121021.053 9  -6730442.023 9
  22310724.824    22310725.311    -7506357.089 9  -7038427.776 9
 89 11 25 10 32 29.0800000  0  4G13G 6G11G 9
  24440721.080    24440724.369   -16621872.544 9  20446941.029 7
  20625182.444    20625182.630    -2896886.073 9  -3586890.576 9
  21213259.669    21213261.080    -7180711.331 9  -6776953.920 9
  22295155.868    22295162.617    -7588168.418 9  -7102176.883 9
 89 11 25 10 32 59.0800000  0  4G13G 6G11G 9
  24418303.513    24418305.611   -16739675.564 8  20355146.496 9
  20620771.620    20620771.344    -2920071.363 9  -3604957.029 9
  21201997.363    21201998.747    -7239894.573 9  -6823070.725 9
  22279612.076    22279612.245    -7669847.569 9  -7165822.958 8
 89 11 25 10 33 29.0800000  0  4G13G 6G11G 9
  24395911.218    24395913.477   -16857352.276 9  20263450.311 7
  20616427.829    20616427.967    -2942894.405 9  -3622741.208 9
  21190832.407    21190833.603    -7298568.042 9  -6868790.297 8
  22264095.162    22264097.824    -7751390.768 9  -7229363.107 9
 89 11 25 10 33 59.0800000  0  4G13G 6G11G 9
  24373543.011    24373543.548   -16974900.592 9  20171854.250 7
  20612154.263    20612154.784    -2965353.367 9  -3640241.697 9
  21179765.066    21179766.307    -7356730.384 9  -6914111.596 9
  22248603.817    22248608.004    -7832796.096 9  -7292795.818 8
 89 11 25 10 34 29.0800000  0  4G13G 6G11G 9
  24351198.418    24351200.956   -17092320.023 9  20080358.559 8
  20607949.487    20607949.655    -2987448.563 9  -3657458.727 8
  21168793.611    21168795.881    -7414382.196 9  -6959035.079 9
  22233140.897    22233140.459    -7914063.723 9  -7356121.220 8
 89 11 25 10 34 59.0800000  0  4G13G 6G11G 9
  24328879.794    24328881.659   -17209606.641 9  19988966.428 8
  20603814.897    20603814.154    -3009176.736 9  -3674389.712 8
  21157920.676    21157922.417    -7471521.325 9  -7003559.031 9
  22217705.148    22217704.121    -7995190.464 9  -7419336.809 8
 89 11 25 10 35 29.0800000  0  4G13G 6G11G 9
  24306586.526    24306587.788   -17326759.575 9  19897678.399 8
  20599749.807    20599750.217    -3030537.144 9  -3691034.219 8
  21147144.754    21147146.623    -7528147.529 9  -7047683.366 9
  22202294.749    22202297.442    -8076175.230 9  -7482441.854 9
 89 11 25 10 35 59.0800000  0  4G13G 6G11G 9
  24284319.583    24284320.660   -17443774.359 9  19806498.042 8
  20595755.794    20595756.130    -3051526.451 9  -3707389.511 8
  21136467.323    21136468.593    -7584258.154 9  -7091405.910 9
  22186910.212    22186907.758    -8157014.654 9  -7545433.569 8
 89 11 25 10 36 29.0800000  0  4G13G 6G11G 9
  24262078.351    24262079.911   -17560648.335 9  19715427.394 8
  20591832.090    20591833.215    -3072142.523 9  -3723453.985 9
  21125887.886    21125890.095    -7639851.806 9  -7134725.624 9
  22171553.925    22171554.738    -8237706.538 9  -7608310.342 8
 89 11 25 10 36 59.0800000  0  4G13G 6G11G 9
  24239865.399    24239867.186   -17677379.776 9  19624467.817 8
  20587980.707    20587981.246    -3092384.177 9  -3739226.718 9
  21115407.822    21115409.562    -7694927.858 9  -7177642.022 9
  22156227.722    22156228.655    -8318249.352 9  -7671070.974 9
 89 11 25 10 37 29.0800000  0  4G13G 6G11G 9
  24217679.834    24217681.550   -17793965.074 9  19533622.133 8
  20584201.062    20584200.919    -3112248.500 8  -3754705.405 9
  21105026.434    21105027.160    -7749484.112 9  -7220153.381 9
  22140931.072    22140931.333    -8398640.210 8  -7733713.188 8
 89 11 25 10 37 59.0800000  0  4G13G 6G11G 9
  24195522.300    24195525.314   -17910402.154 9  19442891.930 8
  20580493.343    20580493.711    -3131733.945 9  -3769888.890 9
  21094743.700    21094743.946    -7803519.901 9  -7262259.173 8
  22125659.942    22125661.519    -8478877.293 9  -7796235.571 9
 89 11 25 10 38 29.0800000  0  4G13G 6G11G 9
  24173392.884    24173395.376   -18026689.262 9  19352278.618 9
  20576856.695    20576857.238    -3150839.456 9  -3784776.298 7
  21084558.933    21084561.842    -7857035.050 9  -7303959.275 8
  22110422.518    22110421.554    -8558959.134 9  -7858636.980 8
 89 11 25 10 38 59.0800000  0  4G13G 6G11G 9
  24151293.742    24151296.447   -18142823.365 9  19261784.505 9
  20573294.496    20573294.114    -3169562.854 9  -3799365.957 9
  21074475.319    21074475.842    -7910028.211 9  -7345252.637 9
  22095211.844    22095212.394    -8638883.418 9  -7920915.644 9
 89 11 25 10 39 29.0800000  0  4G13G 6G11G 9
                  24129224.390   -18258801.692 4
  20569804.916    20569805.140    -3187901.620 9  -3813655.896 9
  21064490.782    21064492.808    -7962497.261 9  -7386137.600 9
  22080034.430    22080033.426    -8718647.375 9  -7983069.343 8
 89 11 25 10 39 59.0800000  0  4G13G 6G11G 9
  24107184.012    24107186.460   -18374621.390 9  19145672.664 8
  20566388.855    20566387.745    -3205853.674 9  -3827644.485 8
  21054605.435    21054608.114    -8014440.691 6  -7426612.983 6
  22064887.423    22064886.554    -8798248.791 9  -8045096.390 8
 89 11 25 10 40 29.0800000  0  4G13G 6G11G 9
  24085175.934    24085177.749   -18490278.965 8  19055549.872 8
  20563045.633    20563046.382    -3223416.930 9  -3841330.156 8
  21044821.959    21044822.893    -8065857.559 9  -7466678.066 9
  22049770.365    22049770.871    -8877684.918 9  -8106994.651 8
 89 11 25 10 40 59.0800000  0  4G13G 6G11G 9
  24063197.216    24063199.689   -18605792.134 7  19062646.685 9
  20559778.395    20559778.075    -3240589.166 9  -3854711.123 9
  21035138.185    21035139.680    -8116746.610 9  -7506331.848 9
  22034687.104    22034686.279    -8956953.649 8  -8168762.473 9
 89 11 25 10 41 29.0800000  0  4G13G 6G11G 9
  24041253.064    24041253.054   -18721119.545 7  18972780.717 9
  20556585.631    20556585.017    -3257369.322 9  -3867786.581 9
  21025554.953    21025556.777    -8167107.396 9  -7545574.000 9
  22019632.578    22019634.537    -9036053.496 9  -8230398.698 8
 89 11 25 10 41 59.0800000  0  4G13G 6G11G 9
  24019337.269    24019339.309   -18836279.128 7  18883045.949 9
  20553466.573    20553467.806    -3273756.388 9  -3880555.756 8
  21016072.498    21016072.805    -8216939.557 9  -7584404.262 9
  22004616.456    22004616.129    -9114983.160 9  -8291902.355 8
 89 11 25 10 42 29.0800000  0  4G13G 6G11G 9
  23997454.156    23997457.043   -18951267.080 7  18793444.972 9
  20550422.983    20550423.665    -3289747.384 9  -3893016.290 8
  21006690.099    21006692.077    -8266241.634 9  -7622821.448 9
  21989627.548    21989629.883    -9193739.197 9  -8353270.690 8
 89 11 25 10 42 59.0800000  0  4G13G 6G11G 9
  23975607.261    23975609.597   -19066081.290 8  18703979.398 9
  20547456.038    20547455.833    -3305340.523 9  -3905166.766 8
  20997408.899    20997411.610    -8315012.811 9  -7660824.922 9
  21974674.328    21974675.693    -9272319.588 9  -8414502.134 8
 89 11 25 10 43 29.0800000  0  4G13G 6G11G 9
  23953790.996    23953794.935   -19180718.601 7  18614651.650 9
  20544564.907    20544565.231    -3320533.677 9  -3917005.599 9
  20988230.005    20988230.853    -8363251.549 9  -7698413.568 9
  21959755.796    21959755.856    -9350721.736 9  -8475594.737 8
 89 11 25 10 43 59.0800000  0  4G13G 6G11G 9
  23932011.813    23932014.827   -19295176.862 7  18525463.427 9
  20541750.589    20541750.984    -3335325.021 8  -3928531.316 9
  20979151.378    20979153.168    -8410957.012 9  -7735586.653 9
  21944868.799    21944870.260    -9428943.579 9  -8536546.829 9
 89 11 25 10 44 29.0800000  0  4G13G 6G11G 9
  23910264.979    23910268.175   -19409453.768 7  18436416.522 8
  20539012.575    20539013.746    -3349712.876 9  -3939742.625 8
  20970175.674    20970176.425    -8458128.443 9  -7772343.593 9
  21930020.266    21930019.327    -9506982.709 9  -8597356.530 8
 89 11 25 10 44 59.0800000  0  4G13G 6G11G 9
  23888555.314    23888557.235   -19523546.156 8  18347513.391 9
  20536351.917    20536352.287    -3363694.433 9  -3950637.338 9
  20961301.045    20961302.188    -8504763.592 9  -7808682.661 8
  21915203.242    21915203.919    -9584836.321 9  -8658021.682 9
 89 11 25 10 45 29.0800000  0  4G13G 6G11G 9
  23866879.904    23866880.573   -19637452.950 8  18258754.873 9
  20533768.573    20533768.406    -3377269.987 9  -3961215.686 8
  20952527.971    20952530.215    -8550864.055 8  -7844605.089 9
  21900423.535    21900424.513    -9662504.162 9  -8718542.066 9
 89 11 25 10 45 59.0800000  0  4G13G 6G11G 9
  23845239.863    23845241.723   -19751170.894 9  18170143.512 9
  20531263.027    20531263.905    -3390437.279 9  -3971475.893 9
  20943857.951    20943859.546    -8596428.791 8  -7880110.052 9
  21885681.035    21885681.382    -9739983.368 9  -8778915.469 8
 89 11 25 10 46 29.0800000  0  4G13G 6G11G 9
  23823636.474    23823638.659   -19864695.797 8  18081682.565 9
  20528835.567    20528835.462    -3403192.528 9  -3981415.072 9
  20935289.121    20935290.730    -8641454.520 9  -7915195.028 9
  21870973.476    21870974.393    -9817269.596 9  -8839138.510 9
 89 11 25 10 46 59.0800000  0  4G13G 6G11G 9
  23802069.340    23802072.029   -19978026.734 8  17993372.759 9
  20526486.367    20526486.900    -3415535.095 9  -3991032.667 9
  20926823.775    20926825.518    -8685941.831 9  -7949860.457 9
  21856303.123    21856303.671    -9894361.848 9  -8899210.386 9
 89 11 25 10 47 29.0800000  0  4G13G 6G11G 9
  23780541.034    23780543.309   -20091161.134 9  17905216.099 9
  20524216.537    20524218.217    -3427463.373 9  -4000327.448 9
  20918460.281    20918461.953    -8729890.492 9  -7984106.153 9
  21841671.088    21841669.759    -9971257.928 9  -8959129.406 9
 89 11 25 10 47 59.0800000  0  4G13G 6G11G 9
  23759050.344    23759052.928   -20204095.864 9  17817215.024 9
  20522027.096    20522026.735    -3438974.926 9  -4009297.512 9
  20910200.169    20910202.262    -8773298.728 9  -8017930.736 8
  21827074.825    21827075.301   -10047955.087 9  -9018893.417 9
 89 11 25 10 48 29.0800000  0  4G13G 6G11G 9
  23737598.207    23737599.916   -20316828.668 8  17729371.299 8
  20519916.607    20519915.593    -3450067.800 8  -4017941.329 9
  20902043.300    20902044.211    -8816165.981 9  -8051333.771 9
  21812518.655    21812518.430   -10124450.796 9  -9078500.448 9
 89 11 25 10 48 59.0800000  0  4G13G 6G11G 9
  23716185.632    23716185.958   -20429356.720 9  17641687.153 9
  20517885.917    20517885.707    -3460740.409 9  -4026257.605 8
  20893988.994    20893989.762    -8858491.522 9  -8084314.660 9
  21797999.635    21798001.400   -10200742.800 9  -9137948.721 9
 89 11 25 10 49 29.0800000  0  4G13G 6G11G 9
  23694811.513    23694811.997   -20541678.808 9  17554163.464 9
  20515933.498    20515934.887    -3470992.347 9  -4034246.125 9
  20886036.907    20886038.307    -8900275.983 9  -8116873.972 9
  21783521.913    21783521.759   -10276830.099 9  -9197237.512 8
 89 11 25 10 49 59.0800000  0  4G13G 6G11G 9
  23673476.406    23673478.441   -20653793.002 9  17466801.761 8
  20514063.062    20514064.189    -3480821.833 9  -4041905.465 8
  20878188.762    20878190.549    -8941519.041 9  -8149011.408 8
  21769082.363    21769082.080   -10352710.480 9  -9256365.071 9
 89 11 25 10 50 29.0800000  0  4G13G 6G11G 9
  23652181.436    23652183.768   -20765694.660 9  17379605.686 8
  20512274.120    20512274.630    -3490224.894 9  -4049232.518 9
  20870444.501    20870445.487    -8982217.613 9  -8180724.546 8
  21754682.852    21754683.475   -10428379.153 8  -9315327.666 9
 89 11 25 10 50 59.0800000  0  4G13G 6G11G 9
  23630931.004    23630929.881   -20877380.973 5  17292577.377 6
  20510565.687    20510565.508    -3499200.603 8  -4056226.585 9
  20862802.577    20862804.528    -9022371.866 9  -8212013.589 9
  21740324.108    21740324.290   -10503834.712 9  -9374124.201 8
 89 11 25 10 51 29.0800000  0  4G13G 6G11G 9
  23609716.324    23609717.279   -20988850.260 6  17205718.216 3
  20508939.553    20508939.169    -3507746.934 9  -4062886.045 8
  20855266.375    20855266.089    -9061981.085 8  -8242877.877 8
  21726005.930    21726006.712   -10579074.542 9  -9432752.612 9
 89 11 25 10 51 59.0800000  0  4G13G 6G11G 9
  23588547.154    23588547.043   -21100101.030 4  17119029.293 3
  20507397.011    20507394.438    -3515862.947 3  -4069210.186 1
  20847831.850    20847833.107    -9101045.664 9  -8273317.799 9
  21711730.192    21711730.864   -10654096.980 9  -9491211.645 9
 89 11 25 10 52 29.0800000  0  4G13G 6G11G 9
  23567420.168    23567419.784   -21211129.962 8  17032513.227 7
  20505932.336    20505934.186    -3523547.014 2  -4075197.777 3
  20840502.363    20840503.287    -9139564.880 9  -8303332.754 9
  21697496.853    21697495.903   -10728899.646 9  -9549499.425 9
 89 11 25 10 52 59.0800000  0  4G13G 6G11G 9
  23546332.155    23546335.126   -21321934.245 9  16946172.233 7
  20504554.886    20504554.710    -3530796.663 2  -4080846.853 1
  20833275.693    20833278.012    -9177537.470 9  -8332921.767 9
  21683304.367    21683302.961   -10803479.347 9  -9607613.453 9
 89 11 25 10 53 29.0800000  0  4G13G 6G11G 9
  23525291.884    23525293.249   -21432512.083 9  16860007.655 8
  20503257.964    20503256.725    -3537610.377 9  -4086156.280 9
  20826153.066    20826156.150    -9214963.027 8  -8362084.543 9
  21669154.894    21669154.948   -10877833.994 9  -9665552.157 8
 89 11 25 10 53 59.0800000  0  4G13G 6G11G 9
  23504293.361    23504293.301   -21542861.202 9  16774021.338 8
  20502044.106    20502044.167    -3543987.177 9  -4091125.234 8
  20819134.665    20819137.875    -9251841.615 8  -8390821.097 9
  21655048.565    21655047.859   -10951961.776 9  -9723314.053 8
 89 11 25 10 54 29.0800000  0  4G13G 6G11G 9
  23483337.207    23483339.651   -21652979.658 8  16688214.761 8
  20500913.126    20500912.744    -3549925.847 8  -4095752.767 8
  20812221.566    20812223.722    -9288173.193 9  -8419131.395 8
  21640985.733    21640987.190   -11025860.731 9  -9780897.638 8
 89 11 25 10 54 59.0800000  0  4G13G 6G11G 9
  23462427.449    23462428.798   -21762863.479 9  16602591.008 8
  20499868.545    20499867.490    -3555423.456 9  -4100036.613 8
  20805412.366    20805414.512    -9323956.819 9  -8447014.726 9
  21626967.877    21626968.219   -11099527.419 9  -9838300.249 8
 89 11 25 10 55 29.0800000  0  4G13G 6G11G 9
  23441561.872    23441564.185   -21872510.311 9  16517151.917 8
  20498904.862    20498905.109    -3560477.896 9  -4103975.160 8
  20798707.898    20798709.935    -9359191.164 8  -8474470.038 9
  21612994.008    21612994.605   -11172958.568 9  -9895519.336 7
 89 11 25 10 55 59.0800000  0  4G13G 6G11G 9
  23420742.440    23420745.094   -21981918.320 9  16431898.925 8
  20498028.420    20498028.614    -3565088.286 9  -4107567.680 8
  20792107.520    20792109.806    -9393876.647 8  -8501497.652 8
  21599066.114    21599066.010   -11246152.705 8  -9952553.695 9
 89 11 25 10 56 29.0800000  0  4G13G 6G11G 9
  23399969.745    23399970.228   -22091084.175 8  16346834.639 9
  20497235.659    20497234.720    -3569252.028 9  -4110812.124 8
  20785611.993    20785612.917    -9428012.165 8  -8528096.724 9
  21585182.433    21585183.347   -11319106.492 9 -10009400.780 9
 89 11 25 10 56 59.0800000  0  4G13G 6G11G 9
  23379240.634    23379242.806   -22200006.228 8  16261960.308 8
  20496528.257    20496529.207    -3572968.259 8  -4113707.924 8
  20779221.461    20779222.215    -9461597.840 8  -8554267.359 8
  21571347.149    21571346.789   -11391817.969 9 -10066059.078 9
 89 11 25 10 57 29.0800000  0  4G13G 6G11G 9
  23358561.210    23358562.375   -22308683.959 7  16177276.368 8
  20495906.920    20495905.937    -3576236.574 8  -4116254.671 8
  20772934.202    20772935.960    -9494634.683 9  -8580010.345 9
  21557556.609    21557556.534   -11464286.173 9 -10122527.791 9
 89 11 25 10 57 59.0800000  0  4G13G 6G11G 9
  23337927.193    23337929.909   -22417113.303 8  16092785.980 9
  20495369.852    20495369.668    -3579054.635 8  -4118450.555 8
  20766751.236    20766753.674    -9527121.376 8  -8605324.626 8
  21543812.372    21543812.642   -11536507.691 8 -10178804.298 8
 89 11 25 10 58 29.0800000  0  4G13G 6G11G 9
  23317342.174    23317344.599   -22525290.515 7  16008492.073 8
  20494920.638    20494920.483    -3581419.464 8  -4120293.277 8
  20760674.719    20760676.437    -9559056.438 8  -8630209.061 9
  21530117.117    21530117.399   -11608478.794 9 -10234885.662 9
 89 11 25 10 58 59.0800000  0  4G13G 6G11G 9
  23296803.665    23296807.153   -22633213.947 7  15924395.902 9
  20494557.719    20494557.565    -3583329.771 9  -4121781.829 8
  20754702.601    20754703.480    -9590440.066 7  -8654663.826 8
  21516470.684    21516469.637   -11680197.117 9 -10290770.056 8
 89 11 25 10 59 29.0800000  0  4G13G 6G11G 9
  23276314.862    23276318.029   -22740882.191 7  15840498.587 9
  20494279.856    20494280.081    -3584785.294 9  -4122915.997 8
  20748835.585    20748837.818    -9621273.401 8  -8678689.785 8
  21502869.970    21502870.525   -11751661.639 9 -10346456.693 8
 89 11 25 10 59 59.0800000  0  4G13G 6G11G 9
  23255875.812    23255878.156   -22848292.891 8  15756801.956 9
  20494090.068    20494088.594    -3585784.575 9  -4123694.644 8
  20743072.776    20743073.564    -9651556.420 9  -8702286.911 9
  21489320.268    21489320.063   -11822869.814 9 -10401943.563 8
 89 11 25 11  0 29.0800000  0  4G13G 6G11G 9
  23235486.422    23235487.723   -22955443.238 8  15673308.202 9
  20493986.498    20493987.701    -3586325.152 8  -4124115.873 8
  20737415.481    20737415.521    -9681287.645 8  -8725454.074 9
  21475819.431    21475818.971   -11893818.279 9 -10457228.091 9
 89 11 25 11  0 59.0800000  0  4G13G 6G11G 9
  23215146.467    23215147.508   -23062329.332 9  15590020.344 8
  20493970.930    20493972.349    -3586404.796 9  -4124177.889 9
  20731863.080    20731863.892    -9710466.516 9  -8748190.834 8
  21462367.016    21462368.417   -11964504.038 8 -10512307.894 9
 89 11 25 11  1 29.0800000  0  4G13G 6G11G 9
  23194856.833    23194859.527   -23168951.239 9  15506938.343 9
  20494043.747    20494044.305    -3586023.871 9  -4123881.033 9
  20726415.919    20726416.055    -9739094.634 9  -8770498.446 8
  21448967.031    21448967.142   -12034926.141 9 -10567182.249 8
 89 11 25 11  1 59.0800000  0  4G13G 6G11G 9
  23174617.790    23174619.977   -23275305.944 8  15424064.559 8
  20494204.293    20494204.968    -3585179.973 9  -4123223.452 9
  20721072.729    20721073.698    -9767171.043 9  -8792376.151 9
  21435615.998    21435616.754   -12105081.253 9 -10621848.565 9
 89 11 25 11  2 29.0800000  0  4G13G 6G11G 9
  23154430.683    23154433.021   -23381390.953 9  15341400.914 9
  20494453.804    20494454.816    -3583871.358 9  -4122203.750 9
  20715835.500    20715836.233    -9794695.625 9  -8813823.859 9
  21422318.738    21422318.592   -12174966.438 9 -10676304.540 8
 89 11 25 11  2 59.0800000  0  4G13G 6G11G 9
  23134296.241    23134298.214   -23487203.362 9  15258949.704 8
  20494792.397    20494791.446    -3582096.340 9  -4120820.608 9
  20710702.267    20710703.248    -9821668.099 9  -8834841.376 9
  21409070.989    21409070.600   -12244579.435 9 -10730548.428 8
 89 11 25 11  3 29.0800000  0  4G13G 6G11G 9
  23114213.041    23114214.998   -23592740.582 9  15176712.913 9
  20495218.852    20495219.277    -3579853.232 9  -4119072.745 8
  20705674.616    20705676.141    -9848087.902 9  -8855428.217 9
  21395877.443    21395875.865   -12313917.075 9 -10784577.751 9
 89 11 25 11  3 59.0800000  0  4G13G 6G11G 9
  23094182.991    23094184.577   -23698001.079 9  15094691.749 9
  20495734.339    20495734.648    -3577141.104 9  -4116959.436 9
  20700751.564    20700752.698    -9873955.471 9  -8875584.754 9
  21382735.208    21382734.132   -12382977.302 9 -10838390.919 8
 89 11 25 11  4 29.0800000  0  4G13G 6G11G 9
  23074205.020    23074206.322   -23802984.040 9  15012886.843 8
  20496340.295    20496340.247    -3573959.867 9  -4114480.537 8
  20695934.528    20695935.439    -9899272.397 9  -8895312.206 8
  21369646.564    21369646.145   -12451759.089 9 -10891987.101 8
 89 11 25 11  4 59.0800000  0  4G13G 6G11G 9
  23054281.260    23054282.251   -23907685.692 9  14931301.156 9
  20497035.477    20497035.334    -3570306.532 9  -4111633.797 9
  20691221.889    20691222.052    -9924037.352 8  -8914609.565 8
  21356612.449    21356611.873   -12520258.322 9 -10945363.143 8
 89 11 25 11  5 29.0800000  0  4G13G 6G11G 9
  23034411.582    23034412.688   -24012103.318 9  14849936.772 9
  20497820.759    20497821.060    -3566179.517 9  -4108417.922 9
  20686614.735    20686615.349    -9948250.020 9  -8933476.562 9
  21343630.720    21343630.862   -12588472.247 9 -10998516.840 8
 89 11 25 11  5 59.0800000  0  4G13G 6G11G 9
  23014595.561    23014597.184   -24116234.473 9  14768795.601 8
  20498696.294    20498696.552    -3561577.384 9  -4104831.879 9
  20682111.053    20682112.766    -9971910.324 9  -8951913.158 8
  21330705.029    21330703.767   -12656398.207 8 -11051446.172 7
 89 11 25 11  6 29.0800000  0  4G13G 6G11G 9
  22994835.462    22994835.846   -24220077.573 9  14687878.926 8
  20499661.922    20499663.331    -3556499.430 9  -4100875.009 9
  20677714.829    20677715.218    -9995019.192 8  -8969920.037 8
  21317834.211    21317833.050   -12724034.504 9 -11104149.757 9
 89 11 25 11  6 59.0800000  0  4G13G 6G11G 9
  22975129.244    22975131.637   -24323630.797 9  14607188.098 8
  20500720.014    20500720.092    -3550944.405 9  -4096546.432 8
  20673421.963    20673423.584   -10017576.676 9  -8987497.304 9
  21305018.900    21305019.140   -12791378.480 9 -11156625.596 8
 89 11 25 11  7 29.0800000  0  4G13G 6G11G 9
  22955479.727    22955480.626   -24426891.414 9  14526725.275 8
  20501867.702    20501868.306    -3544910.647 8  -4091844.823 9
  20669233.935    20669235.156   -10039582.682 8  -9004644.832 9
  21292260.166    21292259.833   -12858427.145 9 -11208871.303 9
 89 11 25 11  7 59.0800000  0  4G13G 6G11G 9
  22935885.879    22935887.258   -24529856.397 9  14446492.818 8
  20503106.984    20503106.909    -3538396.239 9  -4086768.694 9
  20665150.860    20665152.159   -10061036.759 8  -9021362.285 8
  21279558.285    21279557.566   -12925177.422 9 -11260884.516 8
 89 11 25 11  8 29.0800000  0  4G13G 6G11G 9
  22916348.859    22916350.689   -24632524.509 9  14366491.707 7
  20504438.559    20504439.076    -3531400.705 8  -4081317.638 9
  20661173.786    20661174.275   -10081940.279 9  -9037650.721 9
  21266912.922    21266912.818   -12991627.857 9 -11312664.057 8
 89 11 25 11  8 59.0800000  0  4G13G 6G11G 9
  22896867.790    22896869.682   -24734893.556 9  14286723.632 8
  20505861.852    20505861.555    -3523922.468 9  -4075490.419 9
  20657300.839    20657300.927   -10102293.100 8  -9053510.045 8
  21254325.155    21254325.624   -13057775.468 9 -11364207.670 9
 89 11 25 11  9 29.0800000  0  4G13G 6G11G 9
  22877445.745    22877447.760   -24836960.165 9  14207191.215 7
  20507376.661    20507377.334    -3515959.948 9  -4069285.851 8
  20653531.918    20653533.369   -10122095.055 9  -9068940.136 9
  21241796.028    21241796.527   -13123617.215 9 -11415512.903 9
 89 11 25 11  9 59.0800000  0  4G13G 6G11G 9
  22858080.265    22858082.431   -24938722.496 8  14127895.908 7
  20508984.979    20508985.199    -3507511.785 9  -4062702.897 9
  20649870.451    20649869.324   -10141346.207 9  -9083941.013 8
  21229325.626    21229326.124   -13189150.446 9 -11466577.755 9
 89 11 25 11 10 29.0800000  0  4G13G 6G11G 9
  22838774.697    22838775.195   -25040179.038 8  14048838.870 8
  20510684.981    20510684.883    -3498577.115 9  -4055740.839 9
  20646310.266    20646310.481   -10160047.437 9  -9098513.377 8
  21216914.850    21216914.474   -13254373.029 9 -11517400.544 8
 89 11 25 11 10 59.0800000  0  4G13G 6G11G 9
  22819526.059    22819528.475   -25141328.011 8  13970021.483 7
  20512477.789    20512478.259    -3489155.184 9  -4048399.110 9
  20642855.635    20642857.811   -10178199.494 9  -9112657.859 8
  21204562.195    21204561.893   -13319282.919 9 -11567979.686 9
 89 11 25 11 11 29.0800000  0  4G13G 6G11G 9
  22800337.452    22800338.434   -25242167.243 8  13891445.475 8
  20514363.928    20514363.922    -3479244.287 9  -4040676.291 9
  20639506.553    20639507.488   -10195802.277 9  -9126374.305 9
  21192270.601    21192270.754   -13383877.156 9 -11618312.867 9
 89 11 25 11 11 59.0800000  0  4G13G 6G11G 9
  22781207.582    22781209.148   -25342693.642 7  13813113.226 8
  20516343.105    20516343.659    -3468842.908 9  -4032571.287 9
  20636261.056    20636263.463   -10212855.751 8  -9139662.714 8
  21180039.049    21180039.689   -13448152.600 9 -11668397.626 9
 89 11 25 11 12 29.0800000  0  4G13G 6G11G 9
  22762137.329    22762139.302   -25442905.216 8  13735026.305 8
  20518416.125    20518415.864    -3457949.983 9  -4024083.300 9
  20633120.412    20633121.123   -10229360.208 8  -9152523.324 8
  21167868.738    21167869.406   -13512106.826 9 -11718232.087 8
 89 11 25 11 12 59.0800000  0  4G13G 6G11G 9
  22743127.791    22743129.876   -25542800.245 9  13657186.039 9
  20520582.419    20520582.577    -3446564.554 9  -4015211.527 9
  20630084.416    20630085.651   -10245316.475 9  -9164956.762 9
  21155760.685    21155760.195   -13575737.394 9 -11767814.314 9
 89 11 25 11 13 29.0800000  0  4G13G 6G11G 9
  22724179.781    22724181.574   -25642375.131 8  13579595.233 8
  20522842.918    20522843.113    -3434684.257 8  -4005954.188 9
  20627152.075    20627153.088   -10260723.902 9  -9176962.536 8
  21143714.695    21143714.806   -13639040.585 9 -11817141.474 8
 89 11 25 11 13 59.0800000  0  4G13G 6G11G 9
  22705292.342    22705294.809   -25741628.879 8  13502254.669 9
  20525197.804    20525198.267    -3422309.171 9  -3996311.257 8
  20624324.597    20624325.060   -10275584.410 8  -9188542.126 9
  21131730.217    21131730.973   -13702015.157 8 -11866212.562 9
 89 11 25 11 14 29.0800000  0  4G13G 6G11G 9
  22686466.268    22686468.478   -25840560.703 9  13425164.953 9
  20527647.106    20527647.079    -3409439.216 8  -3986282.765 9
  20621600.285    20621601.966   -10289898.975 8  -9199696.338 8
  21119810.117    21119810.328   -13764659.287 9 -11915026.169 8
 89 11 25 11 14 59.0800000  0  4G13G 6G11G 9
  22667702.168    22667704.670   -25939167.130 8  13348328.796 9
  20530189.578    20530190.822    -3396071.656 8  -3975866.492 8
  20618979.778    20618981.711   -10303666.460 9  -9210424.233 9
  21107951.690    21107953.219   -13826969.090 9 -11963579.247 9
 89 11 25 11 15 29.0800000  0  4G13G 6G11G 9
  22649000.999    22649002.313   -26037445.219 9  13271748.474 8
  20532829.083    20532829.607    -3382205.122 8  -3965061.412 9
  20616463.897    20616465.655   -10316887.173 7  -9220726.080 9
  21096159.300    21096160.184   -13888941.318 9 -12011869.302 8
 89 11 25 11 15 59.0800000  0  4G13G 6G11G 9
  22630361.911    22630363.017   -26135394.217 8  13195424.603 8
  20535563.214    20535563.834    -3367839.539 8  -3953867.449 9
  20614052.057    20614053.321   -10329562.973 8  -9230603.302 8
  21084431.444    21084431.398   -13950574.480 9 -12059895.137 8
 89 11 25 11 16 29.0800000  0  4G13G 6G11G 9
  22611786.433    22611787.419   -26233012.546 9  13119358.389 9
  20538392.086    20538392.685    -3352973.885 9  -3942283.816 8
  20611744.900    20611744.687   -10341694.491 8  -9240056.426 9
  21072767.651    21072767.890   -14011866.044 9 -12107654.801 8
 89 11 25 11 16 59.0800000  0  4G13G 6G11G 9
  22593273.416    22593274.702   -26330295.279 8  13043553.663 8
  20541316.567    20541317.597    -3337605.381 9  -3930308.382 8
  20609538.971    20609540.094   -10353280.229 8  -9249084.257 8
  21061170.509    21061170.576   -14072811.509 9 -12155144.754 8
 89 11 25 11 17 29.0800000  0  4G13G 6G11G 9
  22574825.063    22574826.641   -26427242.898 9  12968010.079 8
  20544336.777    20544337.109    -3321734.677 9  -3917941.620 9
  20607438.023    20607439.577   -10364322.699 8  -9257688.769 9
  21049637.832    21049640.116   -14133410.273 9 -12202364.568 8
 89 11 25 11 17 59.0800000  0  4G13G 6G11G 9
  22556440.763    22556442.056   -26523853.575 9  12892729.047 8
  20547452.587    20547453.312    -3305361.385 8  -3905183.231 9
  20605440.325    20605441.449   -10374822.997 7  -9265870.818 8
  21038173.077    21038173.791   -14193660.123 9 -12249312.487 9
 89 11 25 11 18 29.0800000  0  4G13G 6G11G 9
  22538121.859    22538122.851   -26620123.628 9  12817713.428 9
  20550665.188    20550664.807    -3288482.594 9  -3892030.914 9
  20603544.060    20603546.093   -10384780.025 8  -9273629.530 8
  21026774.849    21026775.777   -14253556.573 9 -12295985.039 8
 89 11 25 11 18 59.0800000  0  4G13G 6G11G 9
  22519866.449    22519868.322   -26716052.306 9  12742963.802 8
  20553972.592    20553973.114    -3271098.766 9  -3878485.087 8
  20601754.006    20601754.120   -10394195.589 8  -9280966.330 8
  21015444.461    21015444.783   -14313098.361 8 -12342381.238 8
 89 11 25 11 19 29.0800000  0  4G13G 6G11G 9
  22501676.512    22501678.579   -26811637.431 9  12668481.904 9
  20557376.660    20557376.939    -3253208.585 8  -3864544.697 9
  20600064.268    20600065.095   -10403070.152 8  -9287881.566 8
  21004183.257    21004182.508   -14372282.476 9 -12388498.741 9
 89 11 25 11 19 59.0800000  0  4G13G 6G11G 9
  22483553.664    22483555.492   -26906875.941 9  12594270.080 8
  20560878.612    20560878.396    -3234810.380 9  -3850208.468 8
  20598478.245    20598480.793   -10411403.711 9  -9294375.252 8
  20992989.175    20992988.998   -14431105.778 9 -12434335.082 8
 89 11 25 11 20 29.0800000  0  4G13G 6G11G 9
  22465495.972    22465498.245   -27001767.330 9  12520328.733 8
  20564475.634    20564476.905    -3215904.201 8  -3835476.395 9
  20596995.339    20596996.474   -10419198.058 9  -9300448.759 8
  20981865.038    20981864.807   -14489566.404 9 -12479888.807 8
 89 11 25 11 20 59.0800000  0  4G13G 6G11G 9
  22447504.489    22447507.506   -27096310.082 9  12446659.094 8
  20568170.060    20568169.659    -3196489.474 8  -3820348.022 9
  20595613.402    20595616.209   -10426454.211 9  -9306102.900 8
  20970809.115    20970809.326   -14547662.187 9 -12525158.249 7
 89 11 25 11 21 29.0800000  0  4G13G 6G11G 9
  22429581.611    22429583.404   -27190500.715 9  12373263.809 8
  20571961.398    20571962.205    -3176564.424 9  -3804822.021 9
  20594336.015    20594336.853   -10433171.895 8  -9311337.430 9
  20959824.936    20959825.105   -14605389.353 9 -12570140.435 9
 89 11 25 11 21 59.0800000  0  4G13G 6G11G 9
  22411725.079    22411727.252   -27284337.150 8  12300144.516 8
  20575851.088    20575850.711    -3156127.801 8  -3788897.393 9
  20593160.616    20593161.477   -10439351.650 8  -9316152.813 8
  20948909.713    20948910.198   -14662745.267 9 -12614833.352 9
 89 11 25 11 22 29.0800000  0  4G13G 6G11G 9
  22393935.748    22393937.513   -27377818.608 9  12227301.839 8
  20579837.569    20579836.664    -3135179.858 8  -3772574.315 9
  20592086.995    20592087.704   -10444995.492 9  -9320550.602 8
  20938066.252    20938067.437   -14719728.442 9 -12659235.814 9
 89 11 25 11 22 59.0800000  0  4G13G 6G11G 9
  22376214.682    22376216.833   -27470942.594 9  12154737.722 8
  20583921.138    20583921.269    -3113719.615 9  -3755852.050 9
  20591115.300    20591114.983   -10450104.170 8  -9324531.372 8
  20927292.992    20927294.046   -14776335.818 9 -12703345.452 9
 89 11 25 11 23 29.0800000  0  4G13G 6G11G 9
  22358563.357    22358563.128   -27563706.316 9  12082454.338 9
  20588102.691    20588102.055    -3091744.856 9  -3738728.868 9
  20590244.570    20590244.252   -10454676.966 8  -9328094.565 7
  20916594.239    20916594.321   -14832563.720 9 -12747159.381 8
 89 11 25 11 23 59.0800000  0  4G13G 6G11G 9
  22340979.915    22340980.155   -27656110.048 9  12010451.430 7
  20592382.487    20592382.771    -3069256.641 9  -3721205.583 9
  20589474.980    20589476.339   -10458716.545 9  -9331242.291 8
  20905967.103    20905965.767   -14888411.246 9 -12790676.940 8
 89 11 25 11 24 29.0800000  0  4G13G 6G11G 9
  22323465.536    22323465.970   -27748150.533 9  11938731.580 8
  20596759.803    20596759.647    -3046253.440 9  -3703281.034 9
  20588807.875    20588809.043   -10462223.144 9  -9333974.711 8
  20895412.343    20895412.398   -14943875.023 9 -12833895.491 9
 89 11 25 11 24 59.0800000  0  4G13G 6G11G 9
  22306019.105    22306020.840   -27839826.368 9  11867295.870 8
  20601234.389    20601235.743    -3022734.536 9  -3684954.666 8
  20588241.510    20588243.224   -10465197.353 9  -9336292.278 8
  20884931.634    20884931.715   -14998952.159 9 -12876812.754 8
 89 11 25 11 25 29.0800000  0  4G13G 6G11G 9
  22288644.177    22288645.254   -27931135.026 9  11796146.291 8
  20605809.078    20605808.576    -2998699.030 9  -3666225.713 9
  20587777.546    20587778.754   -10467640.352 9  -9338195.901 7
  20874523.715    20874525.644   -15053640.247 8 -12919426.851 8
 89 11 25 11 25 59.0800000  0  4G13G 6G11G 9
  22271338.835    22271340.234   -28022074.663 9  11725284.267 7
  20610481.929    20610481.019    -2974145.897 9  -3647093.399 9
  20587414.272    20587414.499   -10469552.609 8  -9339685.930 8
  20864192.837    20864192.692   -15107936.401 9 -12961735.516 8
 89 11 25 11 26 29.0800000  0  4G13G 6G11G 9
  22254103.377    22254105.313   -28112644.991 9  11654709.992 9
  20615250.976    20615251.673    -2949075.968 9  -3627558.420 9
  20587149.908    20587152.031   -10470936.533 8  -9340764.346 7
  20853935.138    20853935.748   -15161839.377 9 -13003737.859 8
 89 11 25 11 26 59.0800000  0  4G13G 6G11G 9
  22236939.380    22236940.946   -28202844.281 9  11584424.831 7
  20620120.801    20620120.844    -2923488.487 8  -3607620.115 9
  20586986.818    20586987.487   -10471793.437 9  -9341432.058 8
  20843753.304    20843753.072   -15215346.711 9 -13045431.887 7
 89 11 25 11 27 29.0800000  0  4G13G 6G11G 9
  22219845.199    22219846.650   -28292668.475 8  11514431.996 8
  20625088.466    20625089.956    -2897380.779 8  -3587276.400 9
  20586924.320    20586925.500   -10472122.235 9  -9341688.246 7
  20833647.222    20833647.693   -15268453.503 9 -13086813.778 9
 89 11 25 11 27 59.0800000  0  4G13G 6G11G 9
  22202824.824    22202827.047   -28382115.857 9  11444732.742 8
  20630156.212    20630156.459    -2870752.905 9  -3566527.430 8
  20586961.457    20586963.806   -10471924.303 8  -9341534.008 8
  20823616.968    20823617.637   -15321158.149 9 -13127882.315 9
 89 11 25 11 28 29.0800000  0  4G13G 6G11G 9
  22185874.785    22185876.843   -28471186.033 9  11375327.416 8
  20635322.129    20635321.917    -2843605.012 9  -3545373.242 8
  20587099.278    20587099.252   -10471201.711 9  -9340970.946 8
  20813666.228    20813665.450   -15373458.636 9 -13168635.940 8
 89 11 25 11 28 59.0800000  0  4G13G 6G11G 9
  22168996.902    22168999.446   -28559877.322 9  11306217.335 9
  20640587.549    20640587.554    -2815936.107 9  -3523813.069 9
  20587336.719    20587336.813   -10469955.103 9  -9339999.551 8
  20803791.513    20803790.650   -15425352.030 8 -13209072.353 8
 89 11 25 11 29 29.0800000  0  4G13G 6G11G 9
  22152192.350    22152193.559   -28648187.217 9  11237404.417 8
  20645951.518    20645952.516    -2787745.062 9  -3501846.001 9
  20587674.050    20587674.275   -10468185.006 9  -9338620.255 8
  20793993.280    20793993.634   -15476835.468 8 -13249189.316 7
 89 11 25 11 29 59.0800000  0  4G13G 6G11G 9
  22135460.235    22135462.774   -28736114.390 9  11168889.751 8
  20651415.512    20651416.380    -2759032.043 9  -3479472.206 9
  20588110.381    20588111.172   -10465893.167 8  -9336834.393 8
  20784275.164    20784275.203   -15527906.721 9 -13288985.099 8
 89 11 25 11 30 29.0800000  0  4G13G 6G11G 9
  22118802.312    22118803.046   -28823657.653 9  11100674.232 8
  20656979.539    20656978.975    -2729797.203 9  -3456691.804 9
  20588645.537    20588645.156   -10463081.433 9  -9334643.430 7
  20774633.704    20774634.644   -15578564.216 8 -13328458.462 8
 89 11 25 11 30 59.0800000  0  4G13G 6G11G 9
  22102216.729    22102217.843   -28910814.526 9  11032759.806 8
  20662641.813    20662642.666    -2700038.875 9  -3433503.527 9
  20589278.423    20589279.168   -10459749.601 9  -9332047.194 7
  20765074.148    20765075.304   -15628804.040 8 -13367606.373 8
 89 11 25 11 31 29.0800000  0  4G13G 6G11G 9
  22085705.704    22085706.332   -28997583.089 9  10965147.936 7
  20668404.691    20668404.381    -2669756.456 9  -3409906.860 9
  20590011.699    20590011.026   -10455898.947 9  -9329046.683 7
  20755594.139    20755593.835   -15678623.437 9 -13406426.674 8
 89 11 25 11 31 59.0800000  0  4G13G 6G11G 9
  22069269.179    22069268.368   -29083961.436 9  10897840.150 8
  20674266.639    20674266.959    -2638949.481 9  -3385901.450 9
  20590842.852    20590843.722   -10451530.772 9  -9325642.898 8
  20746194.359    20746194.959   -15728020.194 9 -13444917.666 8
 89 11 25 11 32 29.0800000  0  4G13G 6G11G 9
  22052905.309    22052905.628   -29169949.392 9  10830836.555 8
  20680228.687    20680228.830    -2607618.906 9  -3361488.037 9
  20591771.875    20591773.399   -10446647.443 8  -9321837.702 8
  20736874.884    20736875.239   -15776992.888 9 -13483078.217 7
 89 11 25 11 32 59.0800000  0  4G13G 6G11G 9
  22036616.836    22036617.649   -29255544.080 9  10764139.412 9
  20686290.678    20686290.666    -2575763.153 9  -3336665.344 9
  20592799.397    20592800.007   -10441249.238 9  -9317631.307 8
  20727638.074    20727638.085   -15825538.041 9 -13520905.608 7
 89 11 25 11 33 29.0800000  0  4G13G 6G11G 9
  22020404.608    22020404.807   -29340744.833 9  10697749.226 8
  20692453.303    20692453.061    -2543382.459 9  -3311433.620 9
  20593924.313    20593923.989   -10435338.021 8  -9313025.163 8
  20718480.994    20718482.291   -15873653.576 9 -13558398.242 9
 89 11 25 11 33 59.0800000  0  4G13G 6G11G 9
  22004264.920    22004266.865   -29425550.119 8  10631667.201 9
  20698714.808    20698714.669    -2510476.665 9  -3285792.756 9
  20595145.647    20595146.647   -10428915.268 8  -9308020.417 8
  20709407.321    20709407.432   -15921337.247 9 -13595554.330 8
 89 11 25 11 34 29.0800000  0  4G13G 6G11G 9
  21988203.047    21988205.026   -29509956.990 9  10565895.610 9
  20705076.134    20705076.146    -2477044.245 9  -3259741.529 9
  20596465.522    20596466.572   -10421981.016 8  -9302617.100 7
  20700416.456    20700416.825   -15968585.345 9 -13632371.029 9
 89 11 25 11 34 59.0800000  0  4G13G 6G11G 9
  21972216.261    21972217.997   -29593964.618 9  10500435.120 9
  20711538.382    20711538.634    -2443085.180 9  -3233279.969 9
  20597882.431    20597883.434   -10414536.962 8  -9296816.568 8
  20691507.482    20691509.498   -16015395.704 9 -13668846.643 9
 89 11 25 11 35 29.0800000  0  4G13G 6G11G 9
  21956306.500    21956308.130   -29677571.899 9  10435286.586 9
  20718100.796    20718100.942    -2408599.580 9  -3206408.128 9
  20599395.886    20599395.862   -10406584.886 9  -9290620.137 8
  20682684.465    20682683.960   -16061766.296 8 -13704979.569 8
 89 11 25 11 35 59.0800000  0  4G13G 6G11G 9
  21940473.367    21940475.331   -29760776.320 9  10370451.985 8
  20724763.452    20724764.026    -2373587.139 9  -3179125.729 9
  20601005.618    20601006.095   -10398126.253 9  -9284028.998 7
  20673944.769    20673944.765   -16107694.751 9 -13740767.961 8
 89 11 25 11 36 29.0800000  0  4G13G 6G11G 9
  21924717.737    21924718.830   -29843576.514 9  10305932.386 8
  20731526.739    20731527.517    -2338047.372 9  -3151432.422 9
  20602711.042    20602712.707   -10389162.151 9  -9277043.978 7
  20665289.786    20665290.139   -16153178.297 9 -13776209.685 8
 89 11 25 11 36 59.0800000  0  4G13G 6G11G 9
  21909038.978    21909040.035   -29925971.696 9  10241728.370 9
  20738390.559    20738389.735    -2301979.962 9  -3123327.968 9
  20604512.669    20604514.029   -10379693.779 8  -9269666.030 9
  20656719.539    20656718.561   -16198214.269 9 -13811302.638 8
 89 11 25 11 37 29.0800000  0  4G13G 6G11G 9
  21893436.844    21893438.346   -30007960.139 9  10177841.303 9
  20745353.883    20745354.387    -2265385.351 9  -3094812.706 9
  20606409.035    20606410.990   -10369723.291 9  -9261896.816 8
  20648236.064    20648234.042   -16242801.102 9 -13846045.612 9
 89 11 25 11 37 59.0800000  0  4G13G 6G11G 9
  21877913.067    21877914.390   -30089539.717 9  10114272.838 9
  20752418.315    20752417.735    -2228262.114 9  -3065885.497 9
  20608402.873    20608402.942   -10359250.627 9  -9253736.284 9
  20639837.098    20639835.951   -16286934.943 9 -13880435.609 7
 89 11 25 11 38 29.0800000  0  4G13G 6G11G 9
  21862467.233    21862467.875   -30170708.740 9  10051024.264 9
  20759583.630    20759583.512    -2190609.975 9  -3036546.167 9
  20610490.896    20610491.426   -10348277.307 9  -9245185.630 7
  20631525.291    20631524.315   -16330613.415 9 -13914470.769 8
 89 11 25 11 38 59.0800000  0  4G13G 6G11G 9
  21847098.969    21847099.970   -30251467.631 9   9988095.271 9
  20766849.347    20766848.622    -2152430.339 9  -3006795.790 9
  20612674.723    20612674.539   -10336806.466 9  -9236247.292 7
  20623299.911    20623299.993   -16373835.500 9 -13948150.323 9
 89 11 25 11 39 29.0800000  0  4G13G 6G11G 9
  21831809.317    21831810.641   -30331813.108 9   9925488.440 8
  20774214.953    20774214.624    -2113721.774 9  -2976633.282 9
  20614950.988    20614952.609   -10324837.970 9  -9226921.184 8
  20615162.833    20615162.642   -16416597.283 9 -13981471.182 8
 89 11 25 11 39 59.0800000  0  4G13G 6G11G 9
  21816599.560    21816600.113   -30411744.124 9   9863204.536 9
  20781680.748    20781681.102    -2074484.616 9  -2946058.902 9
  20617323.673    20617323.675   -10312374.005 9  -9217209.006 8
  20607113.297    20607113.637   -16458897.133 9 -14014432.094 8
 89 11 25 11 40 29.0800000  0  4G13G 6G11G 9
  21801466.959    21801469.268   -30491259.375 9   9801244.622 8
  20789248.552    20789248.259    -2034718.965 9  -2915072.696 9
  20619788.590    20619790.395   -10299416.141 8  -9207111.977 7
  20599152.881    20599153.179   -16500732.651 9 -14047031.201 7
 89 11 25 11 40 59.0800000  0  4G13G 6G11G 9
  21786415.350    21786417.638   -30570356.889 9   9739610.189 8
  20796915.742    20796916.777    -1994423.618 9  -2883673.737 9
  20622347.961    20622349.781   -10285964.760 9  -9196630.383 8
  20591280.709    20591278.974   -16542100.357 9 -14079265.775 8
 89 11 25 11 41 29.0800000  0  4G13G 6G11G 9
  21771444.352    21771444.771   -30649036.718 9   9678301.221 8
  20804684.825    20804684.646    -1953599.911 9  -2851863.052 9
  20625001.294    20625001.940   -10272022.879 9  -9185766.588 8
  20583497.212    20583498.151   -16582999.438 9 -14111135.179 8
 89 11 25 11 41 59.0800000  0  4G13G 6G11G 9
  21756551.239    21756551.853   -30727298.653 9   9617317.900 8
  20812553.262    20812554.209    -1912249.035 9  -2819641.588 9
  20627748.506    20627748.352   -10257593.142 9  -9174522.623 7
  20575804.548    20575802.784   -16623428.463 9 -14142638.311 9
 89 11 25 11 42 29.0800000  0  4G13G 6G11G 9
  21741738.757    21741739.537   -30805138.909 9   9556663.160 8
  20820523.008    20820523.751    -1870368.913 9  -2787007.768 9
  20630586.409    20630587.388   -10242674.977 9  -9162898.089 8
  20568201.203    20568200.941   -16663383.073 8 -14173771.775 9
 89 11 25 11 42 59.0800000  0  4G13G 6G11G 9
  21727007.460    21727007.916   -30882555.758 9   9496338.364 7
  20828592.994    20828593.911    -1827959.034 9  -2753961.113 9
  20633517.959    20633518.647   -10227269.659 8  -9150893.940 8
  20560688.535    20560688.733   -16702860.550 9 -14204533.465 8
 89 11 25 11 43 29.0800000  0  4G13G 6G11G 9
  21712355.743    21712356.089   -30959548.097 9   9436344.360 8
  20836764.405    20836764.469    -1785019.371 9  -2720501.622 9
  20636541.169    20636543.224   -10211378.730 9  -9138511.385 8
  20553268.247    20553266.926   -16741858.444 9 -14234921.442 8
 89 11 25 11 43 59.0800000  0  4G13G 6G11G 9
  21697785.288    21697785.235   -31036116.427 9   9376680.726 7
  20845035.998    20845036.440    -1741551.699 9  -2686630.711 9
  20639658.567    20639658.711   -10195005.609 9  -9125753.093 8
  20545938.651    20545936.901   -16780376.097 8 -14264935.206 8
 89 11 25 11 44 29.0800000  0  4G13G 6G11G 9
  21683295.564    21683297.116   -31112257.995 9   9317349.649 8
  20853407.957    20853408.740    -1697555.084 9  -2652347.622 9
  20642865.257    20642865.957   -10178150.906 8  -9112619.566 7
  20538699.833    20538699.886   -16818409.949 9 -14294571.953 8
 89 11 25 11 44 59.0800000  0  4G13G 6G11G 9
  21668886.911    21668889.807   -31187971.696 9   9258351.970 8
  20861881.021    20861882.089    -1653029.466 9  -2617652.398 9
  20646163.961    20646164.293   -10160815.835 9  -9099111.708 7
  20531553.967    20531555.021   -16855957.748 9 -14323829.985 7
 89 11 25 11 45 29.0800000  0  4G13G 6G11G 9
  21654560.771    21654562.799   -31263256.564 9   9199688.427 8
  20870454.977    20870454.992    -1607975.317 9  -2582545.300 9
  20649553.319    20649555.563   -10143002.614 9  -9085231.281 8
  20524502.627    20524502.337   -16893017.461 9 -14352707.676 8
 89 11 25 11 45 59.0800000  0  4G13G 6G11G 9
  21640316.551    21640318.702   -31338111.809 9   9141359.683 8
  20879129.521    20879128.897    -1562393.147 9  -2547026.741 9
  20653034.472    20653035.171   -10124713.241 9  -9070979.815 8
  20517543.024    20517542.977   -16929587.184 9 -14381203.553 8
 89 11 25 11 46 29.0800000  0  4G13G 6G11G 9
  21626154.723    21626156.201   -31412536.102 9   9083366.746 8
  20887903.844    20887902.691    -1516283.409 9  -2511097.070 9
  20656604.881    20656605.096   -10105949.686 8  -9056358.841 7
  20510679.594    20510679.089   -16965664.954 8 -14409316.072 8
 89 11 25 11 46 59.0800000  0  4G13G 6G11G 9
  21612074.014    21612075.937   -31486527.784 9   9025710.896 7
  20896778.052    20896778.097    -1469645.478 9  -2474755.853 9
  20660263.888    20660266.450   -10086712.675 8  -9041368.970 9
  20503907.428    20503907.321   -17001247.559 8 -14437042.787 8
 89 11 25 11 47 29.0800000  0  4G13G 6G11G 9
  21598076.907    21598078.144   -31560085.367 9   8968393.319 8
  20905753.810    20905753.204    -1422479.225 9  -2438002.945 9
  20664015.526    20664015.913   -10067003.514 8  -9026011.190 8
  20497231.216    20497230.884   -17036332.627 9 -14464381.805 8
 89 11 25 11 47 59.0800000  0  4G13G 6G11G 9
  21584162.327    21584162.833   -31633208.511 9   8911414.260 8
  20914828.888    20914829.838    -1374785.529 9  -2400839.049 9
  20667855.138    20667857.009   -10046824.935 9  -9010287.613 8
  20490650.448    20490649.858   -17070918.413 8 -14491331.758 9
 89 11 25 11 48 29.0800000  0  4G13G 6G11G 9
  21570330.220    21570331.519   -31705895.773 9   8854774.843 8
  20924005.837    20924005.141    -1326564.717 9  -2363264.379 9
  20671784.427    20671785.389   -10026178.508 9  -8994199.486 8
  20484163.479    20484162.416   -17105002.810 9 -14517891.036 8
 89 11 25 11 48 59.0800000  0  4G13G 6G11G 9
  21556581.190    21556581.575   -31778144.982 9   8798476.788 8
  20933281.850    20933281.328    -1277815.741 9  -2325278.209 8
  20675802.619    20675803.094   -10005064.610 8  -8977747.094 8
  20477773.153    20477773.478   -17138582.261 9 -14544056.848 8
 89 11 25 11 49 29.0800000  0  4G13G 6G11G 9
  21542915.777    21542917.327   -31849956.314 9   8742519.911 8
  20942659.420    20942659.350    -1228540.372 9  -2286881.828 9
  20679907.721    20679909.198    -9983486.582 8  -8960933.042 7
  20471478.939    20471480.124   -17171656.100 9 -14569828.685 8
 89 11 25 11 49 59.0800000  0  4G13G 6G11G 9
  21529333.930    21529335.281   -31921329.613 9   8686904.361 9
  20952136.035    20952135.418    -1178739.335 9  -2248075.826 9
  20684102.458    20684102.968    -9961446.723 9  -8943759.116 9
  20465282.246    20465281.670   -17204222.370 8 -14595204.992 8
 89 11 25 11 50 29.0800000  0  4G13G 6G11G 9
  21515835.441    21515837.842   -31992262.743 9   8631631.796 9
  20961712.850    20961714.046    -1128412.134 9  -2208859.808 9
  20688384.432    20688385.513    -9938945.943 9  -8926226.040 8
  20459181.924    20459181.894   -17236278.097 7 -14620183.484 8
 89 11 25 11 50 59.0800000  0  4G13G 6G11G 9
  21502422.220    21502424.480   -32062753.445 9   8576703.976 9
  20971389.927    20971389.942    -1077558.860 9  -2169233.904 9
  20692753.339    20692755.629    -9915985.542 8  -8908334.821 8
  20453179.851    20453179.473   -17267820.903 9 -14644762.299 8
 89 11 25 11 51 29.0800000  0  4G13G 6G11G 9
  21489092.257    21489094.165   -32132802.570 9   8522120.257 9
  20981166.886    20981167.372    -1026180.607 9  -2129198.909 9
  20697209.169    20697210.371    -9892568.297 9  -8890087.622 8
  20447275.406    20447274.903   -17298849.247 8 -14668940.225 8
 89 11 25 11 51 59.0800000  0  4G13G 6G11G 9
  21475846.068    21475849.171   -32202407.945 9   8467882.311 9
  20991043.189    20991044.415     -974277.164 9  -2088754.672 9
  20701751.432    20701753.334    -9868695.440 9  -8871485.381 9
  20441469.166    20441469.149   -17329360.490 8 -14692715.217 8
 89 11 25 11 52 29.0800000  0  4G13G 6G11G 9
  21462685.791    21462688.737   -32271568.062 9   8413991.327 8
  21001020.197    21001021.550     -921848.205 9  -2047900.938 8
  20706381.312    20706382.553    -9844367.825 9  -8852528.781 8
  20435762.578    20435762.472   -17359351.609 9 -14716084.912 8
 89 11 25 11 52 59.0800000  0  4G13G 6G11G 9
  21449610.510    21449610.952   -32340282.264 9   8360447.830 9
  21011097.146    21011098.007     -868894.428 9  -2006638.266 9
  20711096.826    20711098.265    -9819587.611 8  -8833219.504 8
  20430153.589    20430154.015   -17388820.933 8 -14739048.023 8
 89 11 25 11 53 29.0800000  0  4G13G 6G11G 9
  21436618.309    21436621.119   -32408550.275 9   8307251.998 9
  21021273.945    21021274.599     -815417.099 9  -1964967.641 9
  20715898.156    20715899.431    -9794357.543 8  -8813559.695 9
  20424645.653    20424645.808   -17417767.085 9 -14761603.472 7
 89 11 25 11 53 59.0800000  0  4G13G 6G11G 9
  21423712.041    21423714.064   -32476372.627 9   8254403.430 9
  21031549.554    21031550.682     -761418.217 9  -1922890.599 9
  20720784.292    20720784.478    -9768681.379 9  -8793552.292 7
  20419237.008    20419236.936   -17446189.392 8 -14783750.710 8
 89 11 25 11 54 29.0800000  0  4G13G 6G11G 9
  21410892.193    21410892.443   -32543745.292 9   8201905.264 8
  21041924.799    21041925.553     -706895.634 9  -1880405.472 9
  20725755.253    20725756.395    -9742557.964 8  -8773196.379 8
  20413930.076    20413929.658   -17474083.194 8 -14805486.145 8
 89 11 25 11 54 59.0800000  0  4G13G 6G11G 9
  21398157.086    21398158.508   -32610668.041 9   8149757.681 9
  21052399.856    21052400.734     -651850.303 9  -1837513.020 9
  20730811.693    20730811.959    -9715989.591 8  -8752493.733 9
  20408721.459    20408721.512   -17501446.891 8 -14826808.482 8
 89 11 25 11 55 29.0800000  0  4G13G 6G11G 9
  21385507.733    21385509.103   -32677141.154 9   8097960.464 8
  21062974.186    21062973.982     -596283.828 9  -1794214.467 9
  20735952.424    20735951.980    -9688979.327 9  -8731446.773 9
  20403616.657    20403616.882   -17528279.680 9 -14847717.141 8
 89 11 25 11 55 59.0800000  0  4G13G 6G11G 9
  21372944.192    21372944.798   -32743164.382 9   8046513.814 8
  21073646.659    21073646.092     -540197.002 9  -1750510.465 8
  20741174.915    20741175.766    -9661528.956 9  -8710056.879 9
  20398611.031    20398612.732   -17554579.422 9 -14868210.456 9
 89 11 25 11 56 29.0800000  0  4G13G 6G11G 9
  21360466.720    21360467.131   -32808735.861 9   7995419.164 8
  21084417.493    21084419.067     -483590.051 9  -1706401.154 9
  20746482.108    20746482.665    -9633640.246 9  -8688325.398 8
  20393707.845    20393709.401   -17580343.790 8 -14888286.591 8
 89 11 25 11 56 59.0800000  0  4G13G 6G11G 9
  21348074.418    21348076.369   -32873853.549 9   7944678.120 8
  21095289.699    21095289.050     -426462.384 9  -1661886.098 9
  20751871.671    20751873.137    -9605314.079 9  -8666253.068 8
  20388908.987    20388908.525   -17605569.761 9 -14907943.189 8
 89 11 25 11 57 29.0800000  0  4G13G 6G11G 9
  21335768.864    21335771.322   -32938517.696 9   7894290.483 8
  21106258.579    21106259.584     -368815.507 9  -1616966.483 9
  20757344.856    20757346.574    -9576553.048 9  -8643841.884 8
  20384211.596    20384211.249   -17630255.886 9 -14927179.143 8
 89 11 25 11 57 59.0800000  0  4G13G 6G11G 9
  21323549.931    21323552.198   -33002728.645 9   7844255.980 9
  21117327.887    21117329.072     -310651.347 9  -1571643.768 8
  20762900.272    20762901.218    -9547360.608 9  -8621094.519 9
  20379614.871    20379616.368   -17654401.949 8 -14945994.252 9
 89 11 25 11 58 29.0800000  0  4G13G 6G11G 9
  21311417.921    21311420.438   -33066483.575 9   7794576.790 9
  21128494.669    21128494.951     -251968.234 9  -1525916.732 9
  20768536.575    20768538.769    -9517736.259 9  -8598010.644 7
  20375123.988    20375124.914   -17678003.193 8 -14964384.855 8
 89 11 25 11 58 59.0800000  0  4G13G 6G11G 9
  21299373.274    21299375.009   -33129781.739 9   7745253.569 8
  21139760.534    21139760.909     -192767.080 9  -1479785.983 9
  20774256.300    20774258.001    -9487682.159 8  -8574591.858 8
  20370737.680    20370738.576   -17701058.167 8 -14982349.770 8
 89 11 25 11 59 29.0800000  0  4G13G 6G11G 9
  21287415.434    21287415.746   -33192623.259 9   7696286.164 9
  21151123.934    21151124.688     -133049.483 9  -1433252.795 9
  20780056.214    20780057.680    -9457201.270 9  -8550840.505 8
  20366453.966    20366456.210   -17723565.756 8 -14999888.136 8
 89 11 25 11 59 59.0800000  0  4G13G 6G11G 9
  21275543.292    21275544.399   -33255008.786 9   7647674.082 8
  21162586.061    21162586.186      -72817.577 9  -1386318.842 8
  20785937.409    20785939.281    -9426296.947 8  -8526759.228 8
  20362276.257    20362275.550   -17745525.581 8 -15016999.684 7
 89 11 25 12  0 29.0800000  0  4G13G 6G11G 9
  21263759.015    21263758.769   -33316936.437 9   7599418.789 9
  21174145.548    21174145.995      -12071.211 9  -1338984.052 9
  20791899.334    20791900.649    -9394970.406 8  -8502348.956 8
  20358201.014    20358202.642   -17766934.730 9 -15033682.152 9
 89 11 25 12  0 59.0800000  0  4G13G 6G11G 9
  21252061.581    21252063.812   -33378404.187 9   7551521.847 8
  21185803.593    21185803.206       49190.511 9  -1291247.642 8
  20797939.811    20797941.327    -9363221.747 9  -8477609.738 8
  20354234.021    20354233.674   -17787789.726 8 -15049932.831 8
 89 11 25 12  1 29.0800000  0  4G13G 6G11G 9
  21240452.406    21240452.533   -33439411.908 9   7503983.385 8
  21197559.011    21197559.458      110965.904 9  -1243110.991 8
  20804062.712    20804062.145    -9331053.949 8  -8452543.919 8
  20350370.155    20350370.366   -17808089.596 8 -15065750.916 8
 89 11 25 12  1 59.0800000  0  4G13G 6G11G 9
  21228930.052    21228931.444   -33499960.029 9   7456803.024 8
  21209411.801    21209411.789      173253.330 9  -1194575.352 8
  20810261.985    20810263.434    -9298469.820 9  -8427153.682 9
  20346614.266    20346614.063   -17827833.250 8 -15081135.604 8
 89 11 25 12  2 29.0800000  0  4G13G 6G11G 9
  21217495.921    21217497.744   -33560048.705 9   7409980.702 8
  21221361.550    21221362.126      236051.044 9  -1145642.090 9
  20816542.456    20816542.731    -9265472.434 9  -8401441.431 8
  20342961.831    20342962.616   -17847019.785 8 -15096086.144 8
 89 11 25 12  2 59.0800000  0  4G13G 6G11G 9
  21206150.072    21206151.363   -33619675.824 9   7363518.019 7
  21233408.898    21233410.094      299360.158 9  -1096310.321 8
  20822900.545    20822900.407    -9232061.770 9  -8375407.125 9
  20339417.347    20339418.259   -17865645.525 9 -15110599.714 9
 89 11 25 12  3 29.0800000  0  4G13G 6G11G 9
  21194890.813    21194891.793   -33678840.350 9   7317415.814 8
  21245554.442    21245554.830      363179.635 9  -1046580.887 9
  20829336.110    20829335.675    -9198240.036 8  -8349052.494 8
  20335980.467    20335980.735   -17883708.759 8 -15124674.945 8
 89 11 25 12  3 59.0800000  0  4G13G 6G11G 9
  21183720.250    21183721.256   -33737542.133 9   7271674.170 8
  21257794.963    21257795.265      427507.809 9   -996455.044 8
  20835849.430    20835851.034    -9164010.040 9  -8322379.787 9
  20332650.005    20332650.557   -17901208.498 7 -15138311.111 8
 89 11 25 12  4 29.0800000  0  4G13G 6G11G 9
  21172637.525    21172637.852   -33795781.389 9   7226292.914 9
  21270132.564    21270133.257      492343.530 9   -945933.763 8
  20842439.354    20842441.598    -9129373.990 8  -8295390.681 9
  20329427.261    20329426.614   -17918143.180 7 -15151507.014 8
 89 11 25 12  4 59.0800000  0  4G13G 6G11G 9
  21161643.516    21161643.400   -33853556.769 9   7181273.137 8
  21282567.249    21282568.698      557686.544 9   -895017.148 8
  20849108.266    20849108.868    -9094333.505 8  -8268086.416 8
  20326313.326    20326313.163   -17934510.641 8 -15164260.883 8
 89 11 25 12  5 29.0800000  0  4G13G 6G11G 9
  21150737.023    21150738.509   -33910867.385 9   7136615.516 8
  21295098.241    21295098.243      623536.050 9   -843705.845 9
  20855852.369    20855854.661    -9058890.117 9  -8240468.192 9
  20323308.493    20323306.741   -17950308.823 8 -15176571.154 8
 89 11 25 12  5 59.0800000  0  4G13G 6G11G 9
  21139919.620    21139920.433   -33967713.207 9   7092320.092 9
  21307724.621    21307724.879      689890.565 9   -792001.056 9
  20862674.506    20862674.782    -9023046.388 9  -8212538.018 8
  20320408.690    20320408.172   -17965536.572 8 -15188436.937 8
 89 11 25 12  6 29.0800000  0  4G13G 6G11G 9
  21129190.502    21129191.795   -34024094.617 9   7048386.528 8
  21320447.887    21320448.268      756748.313 9   -739904.117 8
  20869570.823    20869570.769    -8986805.551 8  -8184298.392 8
  20317619.795    20317619.660   -17980193.058 8 -15199857.583 8
 89 11 25 12  6 59.0800000  0  4G13G 6G11G 9
  21118550.839    21118552.713   -34080010.372 9   7004815.817 8
  21333265.002    21333266.161      824109.007 9   -687415.284 8
  20876542.233    20876543.253    -8950169.103 8  -8155750.522 8
  20314939.833    20314938.984   -17994275.885 8 -15210831.220 8
 89 11 25 12  7 29.0800000  0  4G13G 6G11G 9
  21107998.806    21108000.141   -34135459.975 9   6961608.354 8
  21346179.792    21346180.044      891971.984 9   -634535.059 8
  20883589.054    20883589.974    -8913138.271 9  -8126895.349 8
  20312369.787    20312370.509   -18007782.982 8 -15221356.238 8
 89 11 25 12  7 59.0800000  0  4G13G 6G11G 9
  21097536.470    21097537.704   -34190443.157 9   6918764.329 8
  21359189.054    21359189.371      960335.791 9   -581264.566 8
  20890709.079    20890710.200    -8875715.745 8  -8097734.935 8
  20309909.399    20309908.780   -18020713.177 9 -15231431.706 8
 89 11 25 12  8 29.0800000  0  4G13G 6G11G 9
  21087162.041    21087162.663   -34244959.586 9   6876284.025 7
  21372292.919    21372293.539     1029198.734 9   -527605.129 8
  20897905.717    20897906.309    -8837904.060 9  -8068271.276 9
  20307558.135    20307559.395   -18033065.338 8 -15241056.772 8
 89 11 25 12  8 59.0800000  0  4G13G 6G11G 9
  21076875.959    21076877.016   -34299009.048 9   6834167.583 7
  21385492.421    21385491.997     1098559.878 9   -473557.514 8
  20905174.445    20905174.390    -8799705.475 9  -8038506.150 7
  20305317.855    20305319.164   -18044838.065 8 -15250230.324 7
 89 11 25 12  9 29.0800000  0  4G13G 6G11G 9
  21066679.474    21066680.574   -34352590.121 9   6792416.105 8
  21398785.739    21398785.877     1168419.056 9   -419121.809 8
  20912516.836    20912518.358    -8761121.142 9  -8008440.428 9
  20303188.892    20303189.545   -18056028.700 8 -15258950.306 7
 89 11 25 12  9 59.0800000  0  4G13G 6G11G 9
  21056572.420    21056573.027   -34405703.481 9   6751029.085 8
  21412173.690    21412174.207     1238774.496 9   -364299.405 8
  20919932.259    20919932.795    -8722153.976 8  -7978076.402 9
  20301171.172    20301170.862   -18066636.336 9 -15267216.007 8
 89 11 25 12 10 29.0800000  0  4G13G 6G11G 9
  21046554.842    21046556.952   -34458348.567 9   6710006.965 8
  21425657.085    21425656.194     1309624.883 9   -309091.338 8
  20927419.060    20927421.528    -8682805.894 9  -7947415.569 8
  20299262.137    20299261.841   -18076659.533 8 -15275026.284 7
 89 11 25 12 10 59.0800000  0  4G13G 6G11G 9
  21036626.819    21036628.586   -34510524.078 9   6669350.735 8
  21439232.884    21439232.635     1380969.651 9   -253498.043 8
  20934978.951    20934980.331    -8643078.501 9  -7916459.167 8
  20297468.131    20297467.861   -18086096.406 9 -15282379.706 8
 89 11 25 12 11 29.0800000  0  4G13G 6G11G 9
  21026787.076    21026789.528   -34562230.685 9   6629059.892 8
  21452903.883    21452903.710     1452806.916 9   -197520.952 8
  20942610.760    20942611.710    -8602974.872 8  -7885209.573 8
  20295782.532    20295782.980   -18094946.238 8 -15289275.678 8
 89 11 25 12 11 59.0800000  0  4G13G 6G11G 9
  21017036.657    21017038.216   -34642480.888 9   6589134.816 9
  21466667.113    21466667.897     1446404.562 9   -141155.997 8
  20950313.661    20950314.178    -8629083.745 9  -7853670.183 9
                  20294211.303                   -15295712.844 7
 89 11 25 12 12 29.0800000  0  4G13G 6G11G 9
  21007375.447    21007376.829   -34693249.671 9   6549574.736 9
  21480524.621    21480523.893     1519222.259 9    -84414.949 8
  20958086.731    20958088.506    -8588234.581 9  -7821839.682 9
  20292751.251    20292751.414   -18219841.180 8 -15301690.945 8
 89 11 25 12 12 59.0800000  0  4G13G 6G11G 9
  20997803.991    20997804.847   -34743548.694 9   6510380.703 7
  21494473.467    21494473.163     1592528.967 9    -27292.856 7
  20965929.506    20965932.035    -8547015.289 8  -7789720.753 9
  20291404.666    20291404.237   -18226921.401 8 -15307207.987 7
 89 11 25 12 13 29.0800000  0  4G13G 6G11G 9
  20988322.425    20988322.723   -34793376.465 9   6471553.890 7
  21508516.352    21508516.708     1666324.297 9     30209.972 9
  20973844.470    20973846.782    -8505427.119 9  -7757314.400 9
  20290169.534    20290169.684   -18233407.742 9 -15312262.267 8
 89 11 25 12 13 59.0800000  0  4G13G 6G11G 9
  20978929.794    20978931.019   -34842733.793 9   6433093.669 8
  21522651.303    21522651.150     1740605.791 9     88091.634 9
  20981828.356    20981829.536    -8463473.275 9  -7724623.101 8
  20289048.500    20289048.955   -18239299.915 9 -15316853.577 7
 89 11 25 12 14 29.0800000  0  4G13G 6G11G 9
  20969626.727    20969627.502   -34891621.180 9   6394999.627 7
  21536878.862    21536878.480     1815371.291 9    146350.434 8
  20989881.199    20989882.378    -8421156.834 9  -7691649.252 8
  20288040.673    20288041.746   -18244597.389 9 -15320981.464 7
 89 11 25 12 14 59.0800000  0  4G13G 6G11G 9
  20960413.251    20960415.180   -34940038.314 9   6357272.005 8
  21551198.173    21551198.154     1890620.327 9    204986.028 8
  20998002.611    20998002.361    -8378479.122 9  -7658393.886 9
  20287146.580    20287145.493   -18249298.196 9 -15324644.425 7
 89 11 25 12 15 29.0800000  0  4G13G 6G11G 9
  20951289.068    20951292.009   -34987983.901 9   6319911.818 8
  21565609.627    21565610.275     1966352.258 9    263997.922 8
  21006191.663    21006193.287    -8335441.641 9  -7624858.159 8
  20286365.124    20286364.850   -18253400.365 9 -15327840.906 7
 89 11 25 12 15 59.0800000  0  4G13G 6G11G 9
  20942254.809    20942256.389   -35035458.324 9   6282918.773 8
  21580112.160    21580113.902     2042564.762 9    323384.255 8
  21014449.183    21014450.494    -8292047.470 9  -7591044.534 8
  20285698.346    20285699.461   -18256903.564 8 -15330570.672 7
 89 11 25 12 16 29.0800000  0  4G13G 6G11G 9
  20933311.052    20933312.552   -35082462.869 9   6246291.865 8
  21594706.929    21594707.096     2119255.772 9    383143.466 8
  21022773.685    21022774.780    -8248299.627 9  -7556955.291 8
  20285145.905    20285144.892   -18259807.087 8 -15332833.164 7
 89 11 25 12 16 59.0800000  0  4G13G 6G11G 9
  20924456.251    20924457.558   -35128995.625 9   6210032.583 9
  21609391.374    21609391.350     2196424.806 9    443275.174 8
  21031166.142    21031167.668    -8204199.440 9  -7522591.523 8
  20284708.400    20284707.904   -18262108.811 9 -15334626.735 9
 89 11 25 12 17 29.0800000  0  4G13G 6G11G 9
  20915690.623    20915692.330   -35175056.826 9   6174140.762 8
  21624167.276    21624167.266     2274070.836 9    503778.555 9
  21039625.066    21039626.174    -8159748.425 9  -7487954.377 8
  20284386.334    20284385.289   -18263807.350 8 -15335950.290 8
 89 11 25 12 17 59.0800000  0  4G13G 6G11G 9
  20907015.599    20907015.075   -35220647.477 9   6138615.592 9
  21639032.925    21639033.258     2352191.319 9    564651.632 9
  21048149.654    21048151.162    -8114949.864 9  -7453046.406 9
  20284177.418    20284176.198   -18264902.261 9 -15336803.475 8
 89 11 25 12 18 29.0800000  0  4G13G 6G11G 9
  20898428.879    20898429.866   -35265766.941 9   6103457.586 8
  21653988.967    21653989.084     2430784.767 9    625893.237 9
  21056740.606    21056740.857    -8069806.198 9  -7417869.530 8
  20284083.492    20284084.197   -18265392.850 8 -15337185.757 8
 89 11 25 12 18 59.0800000  0  4G13G 6G11G 9
  20889932.611    20889933.599   -35310414.295 9   6068667.454 8
  21669034.032    21669035.474     2509850.872 9    687503.160 8
  21065396.110    21065397.463    -8024318.185 9  -7382424.319 8
  20284106.676    20284104.982   -18265276.576 8 -15337095.156 8
 89 11 25 12 19 29.0800000  0  4G13G 6G11G 9
  20881526.752    20881527.972   -35354589.411 9   6034245.302 9
  21684169.717    21684170.064     2589387.980 9    749480.120 9
  21074117.993    21074119.088    -7978488.296 9  -7346712.724 8
  20284243.293    20284243.572   -18264552.568 9 -15336530.983 7
 89 11 25 12 19 59.0800000  0  4G13G 6G11G 9
  20873209.922    20873212.760   -35398294.832 9   6000189.140 8
  21699393.225    21699395.040     2669392.521 9    811821.316 9
  21082902.936    21082904.818    -7932321.138 9  -7310738.323 9
  20284495.988    20284497.444   -18263221.818 9 -15335494.033 8
 89 11 25 12 20 29.0800000  0  4G13G 6G11G 9
  20864983.144    20864984.230   -35441529.647 9   5966499.690 8
  21714706.287    21714707.894     2749864.210 9    874526.526 9
  21091753.245    21091754.511    -7885817.390 9  -7274501.651 8
  20284866.591    20284865.643   -18261282.149 8 -15333982.611 8
 89 11 25 12 20 59.0800000  0  4G13G 6G11G 9
  20856845.983    20856846.151   -35484291.728 9   5933178.610 8
  21730109.440    21730110.126     2830802.695 9    937595.459 9
  21100665.612    21100666.937    -7838978.035 9  -7238003.449 8
  20285349.984    20285351.366   -18258731.222 8 -15331994.884 7
 89 11 25 12 21 29.0800000  0  4G13G 6G11G 9
  20848797.619    20848798.212   -35526583.241 9   5900224.201 8
  21745598.950    21745599.704     2912204.875 9   1001025.716 8
  21109642.070    21109643.008    -7791806.986 9  -7201246.778 8
  20285953.392    20285952.170   -18255569.623 8 -15329531.323 7
 89 11 25 12 21 59.0800000  0  4G13G 6G11G 9
  20840838.862    20840839.827   -35568403.599 9   5867636.930 9
  21761177.983    21761177.350     2994069.802 9   1064816.575 8
  21118680.929    21118681.752    -7744305.649 9  -7164232.743 9
  20286670.796    20286670.675   -18251795.821 9 -15326590.718 7
 89 11 25 12 22 29.0800000  0  4G13G 6G11G 9
  20832970.771    20832972.242   -35609753.842 9   5835415.987 8
  21776843.015    21776844.480     3076394.731 9   1128965.861 9
  21127782.463    21127784.290    -7696477.332 9  -7126963.915 9
  20287505.253    20287504.017   -18247409.813 8 -15323173.053 7
 89 11 25 12 22 59.0800000  0  4G13G 6G11G 9
  20825191.903    20825192.304   -35650633.645 9   5803561.605 8
  21792597.052    21792598.142     3159178.023 9   1193472.309 9
  21136945.957    21136948.039    -7648324.388 9  -7089442.148 9
  20288455.987    20288456.984   -18242410.812 8 -15319277.745 7
 89 11 25 12 23 29.0800000  0  4G13G 6G11G 9
  20817502.105    20817502.359   -35691041.615 9   5772074.893 8
  21808437.509    21808438.533     3242419.538 9   1258335.801 9
  21146170.895    21146172.118    -7599847.595 9  -7051668.028 9
  20289525.737    20289525.181   -18236796.383 8 -15314902.850 8
 89 11 25 12 23 59.0800000  0  4G13G 6G11G 9
  20809902.162    20809903.818   -35730979.052 9   5740954.811 9
  21824364.870    21824364.903     3326117.092 9   1323554.660 9
  21155457.317    21155457.153    -7551049.333 9  -7013643.412 8
  20290710.434    20290710.006   -18230566.147 8 -15310048.143 8
 89 11 25 12 24 29.0800000  0  4G13G 6G11G 9
  20802391.797    20802394.301   -35770445.838 9   5710201.503 8
  21840378.411    21840378.830     3410269.092 9   1389127.634 9
  21164803.840    21164803.604    -7501931.953 9  -6975370.130 8
  20292013.583    20292012.678   -18223719.188 7 -15304712.848 7
 89 11 25 12 24 59.0800000  0  4G13G 6G11G 9
  20794970.551    20794972.493   -35809443.340 9   5679813.850 8
  21856478.106    21856478.382     3494872.771 9   1455052.552 9
  21174210.559    21174211.726    -7452498.699 8  -6936850.713 8
  20293434.483    20293436.445   -18216255.742 9 -15298897.181 7
 89 11 25 12 25 29.0800000  0  4G13G 6G11G 9
  20787639.195    20787640.225   -35847971.635 9   5649791.831 8
  21872662.506    21872663.155     3579925.884 9   1521327.704 9
  21183676.878    21183678.317    -7402752.381 9  -6898087.323 8
  20294971.296    20294970.753   -18208175.662 8 -15292601.009 8
 89 11 25 12 25 59.0800000  0  4G13G 6G11G 9
  20780396.225    20780397.787   -35886029.480 9   5620136.378 8
  21888933.503    21888934.151     3665428.574 9   1587953.145 9
  21193203.097    21193203.488    -7352693.721 9  -6859080.592 8
  20296628.191    20296626.661   -18199476.216 8 -15285822.232 8
 89 11 25 12 26 29.0800000  0  4G13G 6G11G 9
  20773244.923    20773245.090   -35923615.844 9   5590848.324 9
  21905289.327    21905289.887     3751379.960 9   1654928.211 8
  21202787.522    21202787.558    -7302323.670 9  -6819831.206 8
  20298400.395    20298400.681   -18190155.868 9 -15278559.635 7
 89 11 25 12 26 59.0800000  0  4G13G 6G11G 9
  20766181.871    20766183.130   -35960733.590 9   5561925.426 8
  21921730.462    21921730.686     3837776.150 9   1722249.903 9
  21212430.960    21212431.468    -7251646.765 9  -6780342.714 8
  20300292.203    20300291.313   -18180216.164 9 -15270814.405 8
 89 11 25 12 27 29.0800000  0  4G13G 6G11G 9
  20759206.658    20759208.491   -35997384.161 9   5533366.542 8
  21938255.210    21938255.086     3924614.444 9   1789916.086 9
  21222132.479    21222132.901    -7200665.976 9  -6740617.439 9
  20302301.206    20302300.849   -18169657.124 8 -15262586.595 8
 89 11 25 12 27 59.0800000  0  4G13G 6G11G 9
  20752321.446    20752322.197   -36033566.463 9   5505172.553 8
  21954863.297    21954863.552     4011894.211 9   1857926.269 9
  21231891.907    21231892.572    -7149382.394 9  -6700656.220 8
  20304429.332    20304428.144   -18158476.914 8 -15253874.765 8
 89 11 25 12 28 29.0800000  0  4G13G 6G11G 9
  20745525.461    20745527.137   -36069279.854 9   5477343.930 8
  21971556.274    21971556.685     4099614.112 9   1926279.404 8
  21241707.341    21241709.594    -7097797.961 9  -6660460.556 8
  20306675.464    20306675.605   -18146674.666 8 -15244678.204 8
 89 11 25 12 28 59.0800000  0  4G13G 6G11G 9
  20738818.713    20738820.852   -36104525.128 9   5449880.097 8
  21988331.478    21988332.310     4187772.196 9   1994973.984 9
  21251580.126    21251582.281    -7045915.092 9  -6620032.360 9
  20309039.392    20309040.038   -18134249.775 8 -15234996.486 8
 89 11 25 12 29 29.0800000  0  4G13G 6G11G 9
  20732199.532    20732201.618   -36139303.155 9   5422780.350 8
  22005191.213    22005190.967     4276366.257 9   2064008.298 8
  21261509.161    21261511.172    -6993736.002 9  -6579373.348 8
  20311521.766    20311522.074   -18121202.123 8 -15224829.472 8
 89 11 25 12 29 59.0800000  0  4G13G 6G11G 9
  20725671.624    20725673.054   -36173615.095 9   5396043.787 8
  22022132.426    22022133.059     4365393.419 9   2133380.083 8
  21271494.546    21271496.156    -6941264.114 9  -6538486.157 8
  20314124.067    20314123.595   -18107532.000 8 -15214177.427 8
 89 11 25 12 30 29.0800000  0  4G13G 6G11G 9
  20719231.072    20719232.857   -36207459.613 9   5369671.446 8
  22039156.238    22039156.827     4454852.916 9   2203088.748 9
  21281536.037    21281536.202    -6888500.563 9  -6497371.709 9
  20316844.019    20316843.035   -18093237.846 8 -15203039.122 8
 89 11 25 12 30 59.0800000  0  4G13G 6G11G 9
  20712878.897    20712879.562   -36240837.634 9   5343662.620 8
  22056261.719    22056261.965     4544743.256 9   2273133.155 9
  21291631.488    21291631.623    -6835447.092 9  -6456031.349 8
  20319682.785    20319682.869   -18078318.711 8 -15191413.831 8
 89 11 25 12 31 29.0800000  0  4G13G 6G11G 9
  20706615.767    20706618.443   -36273750.326 8   5318016.356 9
  22073448.527    22073449.796     4635061.467 8   2343510.942 9
  21301781.027    21301783.025    -6782107.308 9  -6414467.878 8
  20322640.616    20322640.317   -18062775.290 8 -15179302.085 8
 89 11 25 12 31 59.0800000  0  4G13G 6G11G 9
  20700440.819    20700442.920   -36306196.471 9   5292733.670 8
  22090715.716    22090717.201     4725806.960 8   2414221.699 9
  21311985.842    21311987.595    -6728481.725 9  -6372681.735 8
  20325717.906    20325716.989   -18046605.771 9 -15166702.467 8
 89 11 25 12 32 29.0800000  0  4G13G 6G11G 9
  20694355.040    20694357.311   -36338178.748 9   5267812.422 9
  22108064.869    22108066.976     4816975.854 9   2485262.379 9
  21322243.703    21322245.427    -6674574.773 9  -6330676.322 8
  20328913.490    20328913.538   -18029811.716 8 -15153616.200 8
 89 11 25 12 32 59.0800000  0  4G13G 6G11G 9
  20688357.126    20688359.878   -36369697.378 9   5243252.466 9
  22125494.940    22125495.587     4908566.099 9   2556631.379 8
  21332555.896    21332557.147    -6620388.709 9  -6288453.415 9
  20332228.979    20332227.545   -18012392.685 8 -15140042.930 7
 89 11 25 12 33 29.0800000  0  4G13G 6G11G 9
  20682448.472    20682449.605   -36400751.884 9   5219054.165 8
  22143004.428    22143004.567     5000576.884 9   2628328.074 9
  21342920.416    21342921.469    -6565924.604 9  -6246013.853 8
  20335660.992    20335661.486   -17994347.261 8 -15125981.567 7
 89 11 25 12 33 59.0800000  0  4G13G 6G11G 9
  20676626.599    20676628.725   -36431342.075 9   5195217.677 8
  22160593.803    22160593.069     5093007.126 9   2700351.611 9
  21353336.436    21353337.731    -6511183.970 9  -6203358.821 8
  20339215.430    20339215.172   -17975674.380 8 -15111431.296 8
 89 11 25 12 34 29.0800000  0  4G13G 6G11G 9
  20670893.783    20670894.915   -36461468.937 9   5171742.220 8
  22178261.449    22178261.969     5185853.807 9   2772699.658 8
  21363805.014    21363806.510    -6456169.642 8  -6160490.527 7
  20342887.270    20342888.505   -17956374.439 8 -15096392.383 7
 89 11 25 12 34 59.0800000  0  4G13G 6G11G 9
  20665248.505    20665250.626   -36491133.341 8   5148627.116 7
  22196007.533    22196008.544     5279114.403 9   2845370.230 9
  21374325.675    21374326.570    -6400884.383 9  -6117411.112 8
  20346679.219    20346679.324   -17936447.858 9 -15080865.201 8
 89 11 25 12 35 29.0800000  0  4G13G 6G11G 9
  20659693.005    20659693.885   -36520335.758 9   5125871.994 8
  22213834.120    22213834.573     5372787.248 8   2918362.031 9
  21384897.093    21384898.774    -6345330.284 9  -6074122.197 7
  20350590.899    20350590.680   -17915894.078 8 -15064849.265 8
 89 11 25 12 35 59.0800000  0  4G13G 6G11G 9
  20654224.124    20654223.811   -36549076.969 9   5103476.277 8
  22231736.958    22231737.020     5466870.299 9   2991673.500 9
  21395520.609    21395520.002    -6289509.756 9  -6030625.681 8
  20354621.599    20354622.076   -17894712.736 9 -15048344.333 8
 89 11 25 12 36 29.0800000  0  4G13G 6G11G 9
  20648840.929    20648842.688   -36577358.418 9   5081438.796 9
  22249718.012    22249718.710     5561361.050 9   3065302.631 9
  21406192.191    21406193.744    -6233424.963 9  -5986923.238 7
  20358771.634    20358772.019   -17872904.235 7 -15031350.718 8
 89 11 25 12 36 59.0800000  0  4G13G 6G11G 9
  20643547.240    20643547.204   -36605180.828 9   5059759.036 8
  22267775.390    22267777.055     5656256.886 9   3139247.423 9
  21416915.330    21416915.823    -6177078.710 9  -5943017.058 8
  20363039.720    20363040.327   -17850468.749 8 -15013868.534 8
 89 11 25 12 37 29.0800000  0  4G13G 6G11G 9
  20638339.762    20638340.327   -36632542.904 9   5038437.946 8
  22285910.769    22285911.925     5751557.264 9   3213507.441 9
  21427687.104    21427688.069    -6120471.812 8  -5898907.781 8
  20367430.920    20367430.984   -17827404.748 8 -14995896.603 8
 89 11 25 12 37 59.0800000  0  4G13G 6G11G 9
  20633219.110    20633220.525   -36659445.766 9   5017474.674 8
  22304123.239    22304123.415     5847259.834 8   3288080.852 9
  21438507.429    21438508.482    -6063606.561 9  -5854597.219 8
  20371938.118    20371938.844   -17803712.285 8 -14977434.935 8
 89 11 25 12 38 29.0800000  0  4G13G 6G11G 9
  20628188.166    20628189.149   -36685890.853 9   4996868.135 9
  22322410.072    22322411.084     5943361.607 8   3362965.335 9
  21449377.136    21449378.487    -6006486.013 9  -5810087.710 7
  20376566.161    20376566.334   -17779392.129 7 -14958484.170 8
 89 11 25 12 38 59.0800000  0  4G13G 6G11G 9
  20623242.906    20623243.525   -36711878.708 9   4976617.867 8
  22340773.354    22340773.558     6039860.921 9   3438159.580 9
  21460296.582    21460294.603    -5949112.079 9  -5765380.755 8
  20381314.016    20381313.657   -17754443.850 8 -14939043.958 8
 89 11 25 12 39 29.0800000  0  4G13G 6G11G 9
  20618383.634    20618385.810   -36737409.255 8   4956723.935 8
  22359212.445    22359212.618     6136755.936 9   3513662.170 9
  21471261.302    21471262.654    -5891486.482 9  -5720477.679 8
  20386179.201    20386181.689   -17728867.062 7 -14919114.016 9
 89 11 25 12 39 59.0800000  0  4G13G 6G11G 9
  20613611.935    20613615.405   -36762483.957 9   4937185.220 9
  22377724.599    22377725.825     6234043.634 9   3589470.744 8
  21482273.914    21482274.407    -5833612.482 9  -5675381.065 8
  20391167.185    20391167.297   -17702662.742 8 -14898695.084 8
 89 11 25 12 40 29.0800000  0  4G13G 6G11G 9
  20608927.910    20608929.118   -36787104.192 9   4918000.631 8
  22396313.005    22396313.338     6331721.132 8   3665583.067 9
  21493333.346    21493334.843    -5775492.890 9  -5630093.087 9
  20396272.213    20396273.469   -17675831.381 8 -14877787.522 9
 89 11 25 12 40 59.0800000  0  4G13G 6G11G 9
  20604329.384    20604330.716   -36811271.067 9   4899169.312 9
  22414973.087    22414974.672     6429786.159 9   3741997.345 9
  21504440.729    21504440.608    -5717129.786 9  -5584615.323 8
  20401497.978    20401497.955   -17648373.426 8 -14856391.707 8
 89 11 25 12 41 29.0800000  0  4G13G 6G11G 9
  20599815.832    20599818.683   -36834983.420 9   4880692.184 8
  22433708.136    22433708.811     6528238.574 8   3818713.502 8
  21515592.613    21515592.477    -5658523.376 8  -5538947.973 8
  20406842.737    20406842.866   -17620286.738 8 -14834505.984 8
 89 11 25 12 41 59.0800000  0  4G13G 6G11G 9
  20595390.300    20595392.817   -36858241.808 9   4862568.810 8
  22452516.447    22452517.815     6627076.187 8   3895729.824 9
  21526790.702    21526790.622    -5599676.100 8  -5493092.948 9
  20412307.883    20412307.125   -17591571.485 8 -14812130.439 8
 89 11 25 12 42 29.0800000  0  4G13G 6G11G 9
  20591050.052    20591051.866   -36881049.867 9   4844796.294 9
  22471396.490    22471397.351     6726293.826 9   3973042.251 9
  21538032.819    21538034.587    -5540592.930 9  -5447054.118 8
  20417890.797    20417891.151   -17562230.524 8 -14789267.385 7
 89 11 25 12 42 59.0800000  0  4G13G 6G11G 9
  20586796.390    20586796.975   -36903407.278 9   4827374.948 8
  22490350.104    22490350.228     6825890.489 8   4050650.029 9
  21549321.872    21549321.878    -5481274.709 8  -5400832.156 9
  20423593.168    20423593.240   -17532263.072 8 -14765916.141 8
 89 11 25 12 43 29.0800000  0  4G13G 6G11G 9
  20582626.752    20582628.129   -36925312.951 9   4810305.612 8
  22509374.840    22509374.595     6925865.624 9   4128552.708 9
  21560654.065    21560656.104    -5421722.153 9  -5354427.584 8
  20429415.782    20429415.278   -17501667.768 8 -14742075.667 8
 89 11 25 12 43 59.0800000  0  4G13G 6G11G 9
  20578544.654    20578545.640   -36946768.599 9   4793586.952 9
  22528470.660    22528471.200     7026216.234 8   4206747.989 9
  21572030.774    21572031.169    -5361938.066 9  -5307842.587 8
  20435357.110    20435356.659   -17470445.200 8 -14717746.380 8
 89 11 25 12 44 29.0800000  0  4G13G 6G 3G 9
  20574547.437    20574547.773   -36967776.106 9   4777217.486 8
  22547638.226    22547638.570     7126938.717 9   4285233.014 9
                  23965820.213   -64353153.401 8
  20441417.102    20441417.503   -17438597.043 8 -14692929.664 8
 89 11 25 12 44 59.0800000  0  4G13G 6G 3G 9
  20570633.765    20570635.275   -36988336.313 8   4761196.568 8
  22566875.083    22566874.762     7228031.285 9   4364006.435 9
  23949450.159    23949449.565   -64439479.709 9  81651197.261 9
  20447596.670    20447597.014   -17406123.119 8 -14667625.305 9
 89 11 25 12 45 29.0800000  0  4G13G 6G 3G 9
  20566807.782    20566809.041   -37008449.162 9   4745524.253 8
  22586182.893    22586182.892     7329492.134 8   4443066.820 8
  23933067.766    23933069.810   -64525566.455 8  81584116.671 9
  20453896.267    20453895.823   -17373023.339 8 -14641833.268 8
 89 11 25 12 45 59.0800000  0  4G13G 6G 3G 9
  20563064.001    20563065.704   -37028116.699 9   4730198.909 9
  22605559.091    22605559.042     7431318.135 9   4522411.716 8
  23916732.706    23916732.180   -64611413.963 8  81517222.503 9
  20460313.539    20460313.583   -17339298.721 9 -14615554.358 7
 89 11 25 12 46 29.0800000  0  4G13G 6G 3G 9
  20559406.727    20559407.357   -37047339.105 9   4715220.414 8
  22625005.593    22625005.957     7533507.465 9   4602039.747 9
  23900441.679    23900442.091   -64697021.087 9  81450515.662 9
  20466850.008    20466848.980   -17304949.284 8 -14588788.569 8
 89 11 25 12 46 59.0800000  0  4G13G 6G 3G 9
  20555833.519    20555834.591   -37066115.723 9   4700589.302 8
  22644519.454    22644519.970     7636059.178 9   4681950.129 8
  23884197.806    23884198.434   -64782385.146 8  81383998.202 9
  20473505.644    20473504.874   -17269973.973 8 -14561535.101 8
 89 11 25 12 47 29.0800000  0  4G13G 6G 3G 9
  20552344.225    20552345.579   -37084449.227 9   4686303.446 9
  22664103.152    22664103.746     7738969.555 8   4762140.019 9
  23867998.789    23867999.742   -64867507.235 7  81317669.308 9
  20480280.049    20480279.048   -17234374.544 9 -14533795.289 8
 89 11 25 12 47 59.0800000  0  4G13G 6G 3G 9
  20548939.886    20548940.969   -37102340.614 9   4672362.125 9
  22683753.630    22683755.169     7842235.908 9   4842607.272 8
  23851847.100    23851848.192   -64952386.233 8  81251529.840 9
  20487173.217    20487173.104   -17198151.648 8 -14505569.632 7
 89 11 25 12 48 29.0800000  0  4G13G 6G 3G 9
  20545620.287    20545620.944   -37119790.539 8   4658764.790 9
  22703472.885    22703473.522     7945856.439 9   4923350.509 9
  23835740.174    23835742.681   -65037021.179 8  81185580.528 9
  20494184.667    20494185.314   -17161305.310 8 -14476858.226 8
 89 11 25 12 48 59.0800000  0  4G13G 6G 3G 9
  20542382.823    20542384.009   -37136801.150 9   4645509.776 8
  22723257.300    22723258.556     8049827.322 9   5004366.765 9
  23819681.446    23819682.871   -65121412.738 7  81119820.868 9
  20501314.196    20501314.669   -17123837.684 8 -14447662.692 8
 89 11 25 12 49 29.0800000  0  4G13G 6G 3G 9
  20539229.013    20539230.792   -37153371.816 8   4632597.586 9
  22743108.986    22743110.224     8154147.848 8   5085655.451 8
  23803669.410    23803670.510   -65205558.230 8  81054252.946 9
  20508563.176    20508562.706   -17085747.447 7 -14417981.999 8
 89 11 25 12 49 59.0800000  0  4G13G 6G 3G 9
  20536158.642    20536160.401   -37169504.399 9   4620026.774 9
  22763026.718    22763026.889     8258814.732 9   5167214.038 9
  23787704.239    23787705.172   -65289457.756 9  80988876.691 8
  20515928.835    20515929.752   -17047036.003 9 -14387817.250 9
 89 11 25 12 50 29.0800000  0  4G13G 6G 3G 9
  20533173.270    20533173.434   -37185200.305 9   4607796.209 8
  22783009.420    22783010.200     8363825.406 9   5249040.508 9
  23771785.488    23771786.784   -65373110.592 8  80923692.668 9
  20523414.663    20523414.535   -17007704.060 9 -14357168.968 8
 89 11 25 12 50 59.0800000  0  4G13G 6G 3G 9
  20530268.752    20530270.991   -37200459.524 9   4595905.906 8
  22803057.736    22803057.515     8469178.293 8   5331133.636 8
  23755913.801    23755915.238   -65456515.385 8  80858701.912 9
  20531016.965    20531017.210   -16967751.665 9 -14326037.246 8
 89 11 25 12 51 29.0800000  0  4G13G 6G 3G 9
  20527448.509    20527448.998   -37215283.383 8   4584354.837 8
  22823170.273    22823171.281     8574870.274 8   5413490.994 9
  23740089.249    23740091.356   -65539671.916 9  80793904.604 9
  20538737.407    20538737.394   -16927179.899 9 -14294422.871 8
 89 11 25 12 51 59.0800000  0  4G13G 6G 3G 9
  20524709.042    20524710.378   -37229673.248 8   4573141.983 8
  22843346.226    22843347.106     8680898.772 9   5496110.583 8
  23724313.626    23724314.345   -65622579.279 9  80729301.476 9
  20546575.469    20546574.526   -16885989.528 9 -14262326.496 8
 89 11 25 12 52 29.0800000  0  4G13G 6G 3G 9
  20522053.612    20522054.854   -37243629.140 9   4562267.262 8
  22863586.086    22863586.021     8787262.465 9   5578991.365 8
  23708584.352    23708584.770   -65705236.050 9  80664893.606 9
  20554530.893    20554531.398   -16844180.166 8 -14229747.769 8
 89 11 25 12 52 59.0800000  0  4G13G 6G 3G 9
  20519480.123    20519480.800   -37257154.846 9   4551727.769 9
  22883889.744    22883890.001     8893956.296 9   5662129.376 9
  23692903.305    23692903.262   -65787643.925 9  80600679.663 9
  20562603.743    20562604.760   -16801755.251 8 -14196689.396 8
 89 11 25 12 53 29.0800000  0  4G13G 6G 3G 9
  20516989.245    20516988.333   -37270249.600 8   4541524.086 9
  22904255.983    22904256.556     9000980.039 9   5745524.476 8
  23677269.698    23677270.248   -65869799.915 9  80536662.007 9
  20570795.185    20570796.244   -16758713.312 8 -14163150.220 8
 89 11 25 12 53 59.0800000  0  4G13G 6G 3G 9
  20514578.563    20514579.792   -37282912.965 9   4531656.558 9
  22924684.052    22924684.802     9108332.379 9   5829175.625 9
  23661684.048    23661684.616   -65951702.119 9  80472842.104 9
  20579103.647    20579102.776   -16715053.723 9 -14129129.773 8
 89 11 25 12 54 29.0800000  0  4G13G 6G 3G 9
  20512250.050    20512250.802   -37295149.553 8   4522121.549 8
  22945174.307    22945174.923     9216007.247 8   5913078.093 9
  23646146.101    23646147.092   -66033353.299 9  80409217.800 9
  20587527.471    20587527.601   -16670781.034 8 -14094631.571 8
 89 11 25 12 54 59.0800000  0  4G13G 6G 3G 9
  20510002.842    20510003.542   -37306959.370 9   4512919.101 8
  22965725.357    22965726.559     9324003.334 9   5997230.860 9
  23630656.126    23630657.703   -66114752.050 9  80345790.192 9
  20596068.744    20596069.661   -16625894.869 9 -14059655.327 8
 89 11 25 12 55 29.0800000  0  4G13G 6G 3G 9
  20507835.098    20507837.674   -37318342.608 8   4504049.054 8
  22986336.896    22986337.033     9432318.607 8   6081632.343 9
  23615214.197    23615216.126   -66195896.708 9  80282560.578 9
  20604727.009    20604728.170   -16580395.624 8 -14024201.369 8
 89 11 25 12 55 59.0800000  0  4G13G 6G 3G 9
  20505750.973    20505751.466   -37329300.234 8   4495510.658 8
  23007009.009    23007009.709     9540951.092 8   6166281.012 9
  23599821.995    23599823.749   -66276786.334 9  80219529.704 9
  20613502.897    20613502.196   -16534283.646 8 -13988269.966 8
 89 11 25 12 56 29.0800000  0  4G13G 6G 3G 9
  20503746.643    20503747.726   -37339833.273 9   4487303.102 9
  23027740.568    23027742.536     9649898.300 9   6251174.910 8
  23584477.209    23584479.570   -66357420.059 9  80156698.221 9
  20622393.857    20622394.460   -16487559.998 8 -13951861.958 9
 89 11 25 12 56 59.0800000  0  4G13G 6G 3G 9
  20501822.791    20501823.847   -37349943.522 9   4479424.999 8
  23048532.799    23048533.649     9759156.978 8   6336311.512 9
  23569182.015    23569183.775   -66437798.053 9  80094066.005 9
  20631400.837    20631401.182   -16440226.054 8 -13914978.405 8
 89 11 25 12 57 29.0800000  0  4G13G 6G 3G 9
  20499978.037    20499979.002   -37359633.343 9   4471874.505 8
  23069382.937    23069383.310     9868724.026 9   6421688.399 8
  23553935.865    23553936.748   -66517920.140 9  80031633.206 8
  20640524.151    20640524.723   -16392283.447 8 -13877620.540 8
 89 11 25 12 57 59.0800000  0  4G13G 6G 3G 9
  20498215.358    20498215.701   -37368903.144 9   4464651.295 8
  23090291.409    23090291.759     9978597.374 8   6507303.976 8
  23538737.078    23538739.153   -66597785.240 9  79969400.648 9
  20649762.941    20649763.986   -16343732.573 9 -13839788.694 9
 89 11 25 12 58 29.0800000  0  4G13G 6G 3G 9
  20496530.790    20496530.873   -37377753.249 8   4457755.127 9
  23111256.150    23111256.923    10088775.322 8   6593156.889 9
  23523589.600    23523589.684   -66677391.781 9  79907369.577 8
  20659119.121    20659117.921   -16294573.707 8 -13801483.099 9
 89 11 25 12 58 59.0800000  0  4G13G 6G 3G 9
  20494925.986    20494927.332   -37386185.270 9   4451184.728 8
  23132280.711    23132280.192    10199254.825 8   6679244.789 8
  23508489.780    23508491.022   -66756739.876 9  79845539.897 7
  20668588.261    20668587.732   -16244808.483 9 -13762705.014 8
 89 11 25 12 59 29.0800000  0  4G13G 6G 3G 9
  20493400.804    20493401.691   -37394202.165 9   4444937.795 8
  23153360.708    23153360.320    10310031.898 9   6765564.540 8
  23493439.125    23493440.195   -66835830.065 9  79783911.169 8
  20678173.561    20678173.075   -16194439.122 9 -13723456.162 9
 89 11 25 12 59 59.0800000  0  4G13G 6G 3G 9
  20491953.813    20491955.413   -37401803.833 9   4439014.429 8
  23174497.595    23174498.290    10421105.077 9   6852115.046 8
  23478439.007    23478439.762   -66914660.830 9  79722484.597 7
  20687873.363    20687873.593   -16143465.783 8 -13683736.690 9
 89 11 25 13  0 29.0800000  0  4G13G 6G 3G 9
  20490586.331    20490586.400   -37408990.235 9   4433414.659 8
  23195690.227    23195689.870    10532472.540 8   6938894.849 8
  23463487.287    23463487.834   -66993230.828 9  79661261.211 9
  20697688.069    20697687.254   -16091888.756 9 -13643546.809 9
 89 11 25 13  0 59.0800000  0  4G13G 6G 3G 9
  20489298.055    20489298.509   -37415764.070 9   4428136.357 8
  23216937.431    23216938.296    10644130.322 8   7025900.874 8
  23448585.673    23448585.922   -67071540.714 9  79600240.516 8
  20707617.189    20707617.120   -16039710.472 9 -13602888.424 9
 89 11 25 13  1 29.0800000  0  4G13G 6G 3G 9
  20488086.976    20488088.504   -37422127.195 9   4423178.074 8
  23238239.763    23238241.185    10756075.402 8   7113130.769 8
  23433733.008    23433733.763   -67149590.598 9  79597966.401 7
  20717659.983    20717660.629   -15986932.725 8 -13561762.912 9
 89 11 25 13  1 59.0800000  0  4G13G 6G 3G 9
  20486953.840    20486954.461   -37428080.219 9   4418539.356 8
  23259596.798    23259596.113    10868306.413 8   7200583.476 8
                  23418929.827   -67227392.921 9
  20727818.310    20727817.768   -15933555.388 8 -13520170.194 9
 89 11 25 13  2 29.0800000  0  4G13G 6G 3G 9
  20485899.110    20485900.156   -37433624.236 9   4414219.340 8
  23281008.324    23281008.522    10980820.782 9   7288256.977 8
  23404176.980    23404178.374   -67304918.693 8  79563496.178 7
  20738088.791    20738089.510   -15879579.563 8 -13478111.143 9
 89 11 25 13  2 59.0800000  0  4G13G 6G 3G 9
  20484921.773    20484922.796   -37438760.836 9   4410216.792 8
  23302471.118    23302472.985    11093615.559 8   7376148.970 8
  23389474.207    23389476.145   -67382181.038 9  79503291.748 7
  20748473.804    20748474.035   -15825006.953 9 -13435587.040 8
 89 11 25 13  3 29.0800000  0  4G13G 6G 3G 9
  20484020.872    20484022.046   -37443492.606 9   4406529.702 8
  23323988.908    23323989.023    11206686.426 8   7464256.107 7
  23374822.477    23374822.689   -67459181.932 9  79443291.048 7
  20758971.716    20758972.276   -15769840.221 9 -13392599.989 9
 89 11 25 13  3 59.0800000  0  4G13G 6G 3G 9
  20483197.486    20483197.667   -37447819.657 9   4403157.981 8
  23345557.091    23345557.557    11320032.193 8   7552577.464 8
  23360220.129    23360220.645   -67535919.147 9  79383495.812 8
  20769581.469    20769582.829   -15714079.658 9 -13349150.194 9
 89 11 25 13  4 29.0800000  0  4G13G 6G 3G 9
  20482450.953    20482451.888   -37451742.606 9   4400101.164 8
  23367178.511    23367179.878    11433651.228 9   7641111.763 8
  23345667.558    23345668.936   -67612391.276 9  79323907.157 8
  20780306.268    20780307.258   -15657725.148 9 -13305237.575 8
 89 11 25 13  4 59.0800000  0  4G13G 6G 3G 9
  20481781.041    20481781.588   -37455264.024 9   4397357.188 8
  23388851.236    23388851.070    11547539.471 8   7729855.811 9
  23331165.461    23331167.298   -67688599.250 9  79264524.305 7
  20791142.763    20791143.866   -15600779.727 9 -13260864.544 9
 89 11 25 13  5 29.0800000  0  4G13G 6G 3G 9
  20481186.790    20481188.537   -37458385.277 9   4394925.061 8
  23410573.405    23410574.092    11661694.419 9   7818807.701 8
  23316713.672    23316714.541   -67764542.497 8  79205347.759 8
  20802092.046    20802091.274   -15543244.492 9 -13216031.918 8
 89 11 25 13  5 59.0800000  0  4G13G 6G 3G 9
  20480669.038    20480670.674   -37461107.613 9   4392803.775 8
  23432346.359    23432348.340    11776113.636 8   7907965.515 9
  23302313.149    23302313.824   -67840220.018 9  79146378.266 9
  20813152.568    20813151.938   -15485120.690 8 -13170740.656 8
 89 11 25 13  6 29.0800000  0  4G13G 6G 3G 9
  20480226.538    20480227.358   -37463431.868 9   4390992.678 8
  23454170.204    23454171.105    11890794.527 9   7997327.228 8
  23287962.636    23287964.191   -67915631.730 8  79087615.892 9
  20824324.384    20824324.113   -15426409.633 9 -13124991.782 8
 89 11 25 13  6 59.0800000  0  4G13G 6G 3G 9
  20479859.376    20479860.380   -37465359.967 9   4389490.263 8
  23476042.440    23476042.799    12005733.995 9   8086890.430 8
  23273663.374    23273665.084   -67990777.420 9  79029060.808 8
  20835607.842    20835608.444   -15367113.308 9 -13078786.864 9
 89 11 25 13  7 29.0800000  0  4G13G 6G 3G 9
  20479568.070    20479569.871   -37466892.561 9   4388296.034 8
  23497963.000    23497963.879    12120930.007 8   8176653.533 8
  23259414.403    23259415.753   -68065655.986 9  78970713.876 8
  20847003.227    20847002.755   -15307232.224 9 -13032126.277 8
 89 11 25 13  7 59.0800000  0  4G13G 6G 3G 9
  20479351.234    20479351.867   -37468031.900 9   4387408.252 8
  23519931.333    23519933.592    12236378.873 8   8266613.665 9
  23245216.180    23245217.395   -68140268.013 9  78912574.620 8
  20858508.963    20858508.708   -15246769.102 9 -12985012.140 8
 89 11 25 13  8 29.0800000  0  4G13G 6G 3G 9
  20479209.506    20479209.460   -37468779.250 9   4386825.904 7
  23541949.180    23541949.280    12352078.346 8   8356769.087 9
  23231069.033    23231070.300   -68214612.561 9  78854643.802 9
  20870124.709    20870124.925   -15185724.974 9 -12937445.286 8
 89 11 25 13  8 59.0800000  0  4G13G 6G 3G 9
  20479142.412    20479142.224   -37469136.055 9   4386547.890 8
  23564013.505    23564014.872    12468025.636 8   8447117.588 8
  23216972.111    23216973.550   -68288689.256 9  78796921.703 9
  20881851.639    20881852.269   -15124101.484 9 -12889427.004 9
 89 11 25 13  9 29.0800000  0  4G13G 6G 3G 9
  20479146.962    20479148.591   -37469104.047 9   4386572.831 9
  23586124.957    23586125.286    12584217.731 8   8537656.863 8
  23202927.197    23202927.977   -68362498.003 9  78739408.407 9
  20893689.235    20893688.805   -15061900.756 9 -12840958.925 8
 89 11 25 13  9 59.0800000  0  4G13G 6G 3G 9
  20479226.725    20479227.733   -37468685.760 9   4386898.793 8
  23608280.157    23608281.332    12700651.229 8   8628384.230 9
  23188932.467    23188933.587   -68436039.449 9  78682103.397 9
  20905633.634    20905634.465   -14999124.704 9 -12792042.515 9
 89 11 25 13 10 29.0800000  0  4G13G 6G 3G 9
  20479379.311    20479381.354   -37467881.014 9   4387525.866 8
  23630483.547    23630484.068    12817324.913 7   8719298.767 8
  23174989.255    23174991.241   -68509311.470 9  78625008.322 9
  20917689.559    20917689.417   -14935773.714 9 -12742678.122 8
 89 11 25 13 10 59.0800000  0  4G13G 6G 3G 9
  20479605.956    20479606.775   -37466691.546 8   4388452.725 8
  23652731.472    23652731.300    12934235.564 8   8810397.933 9
  23161097.216    23161098.725   -68582314.007 9  78568123.230 8
  20929854.092    20929853.835   -14871849.714 9 -12692867.226 9
 89 11 25 13 11 29.0800000  0  4G13G 6G 3G 9
  20479905.409    20479906.854   -37465118.304 9   4389678.643 8
  23675022.705    23675023.334    13051380.504 7   8901679.673 8
  23147257.104    23147258.193   -68655046.848 9  78511448.292 9
  20942126.601    20942126.345   -14807354.525 9 -12642611.246 9
 89 11 25 13 11 59.0800000  0  4G13G 6G 3G 9
  20480277.384    20480277.876   -37463163.726 8   4391201.700 8
  23697357.689    23697359.304    13168756.470 7   8993141.418 9
  23133467.179    23133469.345   -68727510.325 9  78454983.250 9
  20954507.974    20954508.919   -14742289.998 9 -12591911.632 8
 89 11 25 13 12 29.0800000  0  4G13G 6G 3G 9
  20480721.885    20480721.783   -37460829.627 9   4393020.487 8
  23719737.873    23719738.881    13286360.545 7   9084780.924 8
  23119729.390    23119729.680   -68799704.153 9  78398728.321 8
  20966997.555    20966997.155   -14676658.500 9 -12540770.224 9
 89 11 25 13 12 59.0800000  0  4G13G 6G 3G 9
  20481238.421    20481238.986   -37458116.717 9   4395134.460 7
  23742160.385    23742160.413    13404191.025 6   9176596.839 8
  23106043.296    23106044.327   -68871626.866 9  78342684.650 9
  20979595.484    20979594.240   -14610460.261 9 -12489187.194 8
 89 11 25 13 13 29.0800000  0  4G13G 6G 3G 9
  20481825.750    20481827.703   -37455027.106 9   4397541.954 9
  23764624.749    23764625.673    13522244.093 7   9268586.197 8
  23092408.251    23092409.324   -68943279.369 9  78286851.540 9
  20992299.415    20992300.174   -14543698.238 9 -12437164.853 8
 89 11 25 13 13 59.0800000  0  4G13G 6G 3G 9
  20482485.327    20482486.389   -37451561.272 9   4400242.628 8
  23787132.161    23787132.446    13640517.877 6   9360747.538 9
  23078824.939    23078825.605   -69014660.311 9  78231230.025 9
  21005110.780    21005111.297   -14476373.616 9 -12384704.124 9
 89 11 25 13 14 29.0800000  0  4G13G 6G 3G 9
  20483216.345    20483215.944   -37447721.084 9   4403234.980 7
  23809679.324    23809680.442    13759009.574 7   9453078.684 8
  23065293.692    23065293.688   -69085769.609 9  78175820.184 9
  21018029.264    21018029.423   -14408487.971 9 -12331806.240 8
 89 11 25 13 14 59.0800000  0  4G13G 6G 3G 9
  20484017.389    20484018.094   -37443509.918 9   4406516.427 7
  23832268.590    23832269.829    13877714.813 6   9545576.228 8
  23051812.516    23051814.159   -69156608.591 9  78120620.982 9
  21031052.519    21031053.193   -14340044.804 9 -12278473.894 9
 89 11 25 13 15 29.0800000  0  4G13G 6G 3G 9
  20484889.604    20484889.838   -37438927.697 9   4410086.976 8
  23854897.763    23854899.008    13996632.069 6   9638238.988 8
  23038384.123    23038385.315   -69227175.712 9  78065633.614 9
  21044183.551    21044184.841   -14271045.019 9 -12224707.837 9
 89 11 25 13 15 59.0800000  0  4G13G 6G 3G 9
  20485831.941    20485831.135   -37433974.465 9   4413946.643 8
  23877567.580    23877568.080    14115759.891 7   9731065.824 7
  23025007.342    23025008.910   -69297469.251 9  78010859.427 9
  21057419.040    21057419.700   -14201488.714 9 -12170508.122 8
 89 11 25 13 16 29.0800000  0  4G13G 6G 3G 9
  20486843.623    20486844.408   -37428654.507 9   4418092.067 8
  23900275.541    23900276.820    14235092.965 7   9824052.604 8
  23011683.227    23011684.641   -69367491.776 9  77956296.412 9
  21070760.131    21070760.562   -14131380.556 9 -12115878.419 9
 89 11 25 13 16 59.0800000  0  4G13G 6G 3G 9
  20487926.540    20487925.752   -37422969.049 9   4422522.311 8
  23923022.899    23923023.735    14354628.872 8   9917197.437 8
  22998409.038    22998411.377   -69437242.516 9  77901945.176 9
  21084206.109    21084206.340   -14060721.906 9 -12060819.736 9
 89 11 25 13 17 29.0800000  0  4G13G 6G 3G 9
  20489077.730    20489078.265   -37416917.793 8   4427237.583 8
  23945808.764    23945809.173    14474366.577 7  10010499.507 7
  22985188.420    22985189.707   -69506719.542 9  77847807.219 8
  21097756.773    21097757.145   -13989513.198 9 -12005332.443 8
 89 11 25 13 17 59.0800000  0  4G13G 6G 3G 9
  20490298.304    20490298.632   -37410504.122 9   4432235.258 7
  23968630.644    23968632.604    14594301.972 8  10103955.630 7
  22972019.523    22972021.522   -69575923.859 9  77793881.777 9
  21111411.608    21111411.451   -13917757.572 9 -11949418.980 8
 89 11 25 13 18 29.0800000  0  4G13G 6G 3G 9
  20491587.536    20491588.492   -37403730.195 9   4437513.653 7
  23991490.437    23991493.129    14714431.760 8  10197563.221 7
  22958902.899    22958903.159   -69644855.895 9  77740168.498 9
  21125169.955    21125169.826   -13845457.526 9 -11893081.292 9
 89 11 25 13 18 59.0800000  0  4G13G 6G 3G 9
  20492944.724    20492944.755   -37396596.056 9   4443072.709 8
  24014387.658    24014388.452    14834754.288 7  10291321.020 8
  22945838.242    22945838.120   -69713514.077 9  77686668.620 9
  21139031.156    21139031.343   -13772613.926 9 -11836320.063 9
 89 11 25 13 19 29.0800000  0  4G13G 6G 3G 9
  20494370.648    20494370.441   -37389103.904 9   4448910.752 9
  24037319.741    24037319.777    14955266.225 8  10385226.390 7
  22932824.465    22932824.802   -69781899.092 9  77633381.610 9
  21152996.013    21152995.972   -13699229.495 9 -11779137.402 9
 89 11 25 13 19 59.0800000  0  4G13G 6G 3G 9
  20495863.186    20495863.820   -37381255.439 9   4455026.437 7
  24060287.969    24060289.222    15075964.542 9  10479276.996 7
  22919862.764    22919864.319   -69850010.810 9  77580307.550 9
  21167063.669    21167063.368   -13625306.265 9 -11721534.887 8
 89 11 25 13 20 29.0800000  0  4G13G 6G 3G 9
  20497425.683    20497425.509   -37373052.252 9   4461418.550 8
  24083291.966    24083292.188    15196846.588 7  10573470.766 8
  22906953.236    22906954.828   -69917848.946 9  77527446.664 9
  21181232.317    21181232.534   -13550846.243 9 -11663514.097 9
 89 11 25 13 20 59.0800000  0  4G13G 6G 3G 9
  20499053.706    20499054.306   -37364494.907 9   4468086.617 9
  24106329.106    24106330.052    15317910.083 8  10667805.917 7
  22894096.312    22894097.647   -69985412.810 9  77474799.518 9
  21195503.707    21195504.279   -13475851.010 9 -11605076.272 9
 89 11 25 13 21 29.0800000  0  4G13G 6G 3G 9
  20500749.714    20500750.185   -37355585.526 9   4475028.993 8
  24129402.193    24129401.692    15439151.974 7  10762280.090 7
  22881291.833    22881292.791   -70052702.449 9  77422366.046 8
  21209875.659    21209877.120   -13400322.926 9 -11546223.240 9
 89 11 25 13 21 59.0800000  0  4G13G 6G 3G 9
  20502511.490    20502511.752   -37346326.815 9   4482243.581 8
  24152505.637    24152506.417    15560568.833 8  10856890.590 7
  22868538.659    22868539.497   -70119718.588 9  77370145.702 8
  21224349.210    21224350.168   -13324264.669 9 -11486957.088 9
 89 11 25 13 22 29.0800000  0  4G13G 6G 3G 9
  20504339.868    20504340.558   -37336718.397 9   4489730.654 8
  24175643.008    24175644.725    15682159.192 8  10951636.294 8
  22855838.973    22855839.134   -70186459.403 9  77318139.897 8
  21238923.552    21238924.112   -13247677.087 9 -11427278.457 7
 89 11 25 13 22 59.0800000  0  4G13G 6G 3G 9
  20506233.902    20506234.683   -37326764.530 9   4497486.918 8
  24198813.711    24198815.629    15803918.171 7  11046513.362 9
  22843190.346    22843192.132   -70252927.241 9  77266346.794 9
  21253598.346    21253597.932   -13170564.398 9 -11367190.665 9
 89 11 25 13 23 29.0800000  0  4G13G 6G 3G 9
  20508193.031    20508194.686   -37316466.029 9   4505511.729 8
  24222014.977    24222015.035    15925842.894 7  11141519.614 8
  22830593.522    22830596.255   -70319121.467 9  77214766.898 8
  21268371.787    21268371.959   -13092928.647 9 -11306695.295 7
 89 11 25 13 23 59.0800000  0  4G13G 6G 3G 9
  20510218.716    20510219.166   -37305823.109 9   4513804.917 8
  24245248.752    24245249.174    16047932.584 6  11236654.379 8
  22818050.496    22818050.509   -70385040.449 9  77163401.478 8
  21283244.249    21283243.891   -13014770.453 9 -11245792.829 8
 89 11 25 13 24 29.0800000  0  4G13G 6G 3G 9
  20512308.507    20512310.144   -37294837.596 9   4522365.060 7
  24268511.742    24268512.557    16170184.622 6  11331915.663 8
  22805557.402    22805559.789   -70450683.660 9  77112250.942 8
  21298216.845    21298215.600   -12936091.541 9 -11184484.605 9
 89 11 25 13 24 59.0800000  0  4G13G 6G 3G 9
  20514463.318    20514464.151   -37283513.098 9   4531189.354 8
  24291806.251    24291806.434    16292593.978 5  11427299.511 8
  22793118.326    22793119.700   -70516053.480 9  77061313.438 9
  21313287.231    21313286.903   -12856896.347 9 -11122774.079 9
 89 11 25 13 25 29.0800000  0  4G13G 6G 3G 9
  20516682.582    20516684.560   -37271849.607 9   4540277.790 8
  24315131.274    24315130.167    16415159.160 5  11522804.798 8
  22780732.003    22780732.979   -70581148.369 9  77010590.174 9
  21328455.805    21328455.834   -12777185.837 9 -11060662.006 8
 89 11 25 13 25 59.0800000  0  4G13G 6G 3G 9
  20518966.287    20518967.435   -37259849.605 9   4549628.447 9
  24338481.311    24338483.600    16537876.869 3  11618428.923 8
  22768397.054    22768397.667   -70645968.559 9  76960080.952 7
  21343721.999    21343721.041   -12696962.679 9 -10998150.461 8
 89 11 25 13 26 29.0800000  0  4G13G 6G 3G 9
  20521314.101    20521314.314   -37247515.011 9   4559239.824 8
  24361860.171    24361864.177    16660743.858 3  11714169.344 9
  22756114.550    22756115.096   -70710514.758 9  76909785.244 8
  21359084.578    21359084.121   -12616229.716 9 -10935241.675 8
 89 11 25 13 26 59.0800000  0  4G13G 6G 3G 9
  20523725.277    20523725.376   -37234846.425 9   4569111.442 7
  24385271.775    24385272.584    16783758.339 3  11810024.730 9
  22743883.056    22743885.444   -70774785.827 9  76859703.914 9
  21374544.373    21374544.260   -12534988.332 9 -10871936.726 8
 89 11 25 13 27 29.0800000  0  4G13G 6G 3G 9
  20526199.097    20526200.059   -37221845.333 9   4579242.169 8
  24408706.747    24408709.202    16906917.749 4  11905993.022 8
  22731705.140    22731707.766   -70838781.100 9  76809837.480 8
  21390100.671    21390100.255   -12453240.230 9 -10808236.916 9
 89 11 25 13 27 59.0800000  0  4G13G 6G 3G 9
  20528735.795    20528736.110   -37208514.480 9   4589629.831 9
  24432169.238    24432172.738    17030217.734 5  12002070.867 9
  22719579.767    22719580.747   -70902502.485 9  76760184.463 8
  21405751.809    21405752.267   -12370989.344 9 -10744145.346 9
 89 11 25 13 28 29.0800000  0  4G13G 6G 3G 9
  20531334.679    20531336.113   -37194855.889 9   4600272.903 8
  24455660.326    24455662.528    17153655.450 5  12098256.018 8
  22707506.120    22707506.848   -70965949.604 9  76710745.163 8
  21421499.449    21421499.666   -12288238.352 9 -10679664.056 8
 89 11 25 13 28 59.0800000  0  4G13G 6G 3G 9
  20533996.862    20533996.982   -37180870.539 9   4611170.572 7
  24479173.276    24479177.831    17277228.982 5  12194547.017 8
  22695485.269    22695486.828   -71029121.901 9  76661520.009 9
  21437341.185    21437341.344   -12204988.461 9 -10614794.034 9
 89 11 25 13 29 29.0800000  0  4G13G 6G 3G 9
  20536718.983    20536719.628   -37166560.407 9   4622321.342 7
  24502715.365    24502717.864    17400934.983 7  12290941.229 9
  22683516.002    22683517.261   -71092019.699 9  76612508.760 9
  21453277.820    21453278.409   -12121242.817 9 -10549537.699 9
 89 11 25 13 29 59.0800000  0  4G13G 6G 3G 9
  20539504.050    20539504.335   -37151926.408 9   4633724.461 8
  24526280.040    24526281.835    17524771.060 5  12387436.816 7
  22671598.918    22671600.639   -71154642.760 9  76563711.569 8
  21469307.323    21469307.337   -12037003.185 9 -10483896.449 8
 89 11 25 13 30 29.0800000  0  4G13G 6G 3G 9
  20542350.142    20542350.489   -37136970.545 9   4645378.395 8
  24549872.177    24549872.463    17648734.642 6  12484031.758 8
  22659734.570    22659735.990   -71216990.554 9  76515128.889 9
  21485431.123    21485431.166   -11952271.818 9 -10417872.021 9
 89 11 25 13 30 59.0800000  0  4G13G 6G 3G 9
  20545256.485    20545257.949   -37121694.846 9   4657281.516 7
  24573484.389    24573486.027    17772822.078 7  12580723.189 7
  22647923.030    22647923.529   -71279064.127 9  76466759.885 9
  21501648.189    21501648.834   -11867052.075 9 -10351467.037 8
 89 11 25 13 31 29.0800000  0  4G13G 6G 3G 9
  20548224.040    20548224.690   -37106101.079 9   4669432.528 9
  24597120.262    24597123.197    17897030.988 7  12677509.287 8
  22636162.214    22636163.274   -71340862.974 9  76418604.957 9
  21517957.235    21517956.619   -11781345.759 8 -10284682.918 9
 89 11 25 13 31 59.0800000  0  4G13G 6G 3G 9
  20551250.720    20551252.942   -37090190.674 9   4681830.239 7
  24620779.170    24620780.964    18021357.940 8  12774387.366 7
  22624455.259    22624455.741   -71402387.961 9  76370663.424 8
  21534358.576    21534358.464   -11695156.038 9 -10217522.110 8
 89 11 25 13 32 29.0800000  0  4G13G 6G 3G 9
  20554338.994    20554339.763   -37073965.324 9   4694473.368 7
  24644459.473    24644461.577    18145800.367 6  12871355.428 8
  22612799.686    22612800.604   -71463638.465 9  76322935.781 9
  21550851.667    21550851.926   -11608485.323 9 -10149986.524 8
 89 11 25 13 32 59.0800000  0  4G13G 6G 3G 9
  20557486.971    20557486.648   -37057427.043 9   4707360.337 8
  24668161.555    24668162.685    18270355.587 6  12968411.394 7
  22601195.965    22601197.197   -71524614.649 9  76275421.888 8
  21567435.536    21567434.592   -11521335.739 9 -10082077.778 8
 89 11 25 13 33 29.0800000  0  4G13G 6G 3G 9
  20560692.754    20560694.104   -37040577.449 9   4720489.899 8
  24691884.551    24691886.419    18395020.356 6  13065552.696 6
  22589643.876    22589646.235   -71585317.152 9  76228121.243 9
  21584109.895    21584109.627   -11433710.202 9 -10013798.165 8
 89 11 25 13 33 59.0800000  0  4G13G 6G 3G 9
  20563957.927    20563958.781   -37023418.601 9   4733860.421 8
  24715626.685    24715630.954    18519792.092 7  13162777.344 6
  22578144.804    22578146.398   -71645745.742 9  76181034.049 9
  21600875.406    21600874.978   -11345611.227 9  -9945149.620 8
 89 11 25 13 34 29.0800000  0  4G13G 6G 3G 9
  20567281.963    20567281.627   -37005950.205 9   4747472.174 8
  24739391.821    24739391.506    18644669.350 8  13260084.269 5
  22566698.190    22566699.562   -71705898.912 9  76134161.464 8
  21617729.976    21617729.634   -11257039.742 8  -9876132.913 8
 89 11 25 13 34 59.0800000  0  4G13G 6G 3G 9
  20570664.060    20570664.445   -36988175.526 9   4761322.585 8
  24763173.590    24763175.788    18769647.717 7  13357469.921 5
  22555303.682    22555305.037   -71765778.687 9  76087501.922 8
  21634673.520    21634673.707   -11167999.978 9  -9806751.299 8
 89 11 25 13 35 29.0800000  0  4G13G 6G 3G 9
  20574105.329    20574105.516   -36970097.097 9   4775409.670 8
  24786975.273    24786974.470    18894724.097 8  13454932.019 3
  22543961.480    22543962.456   -71825385.012 9  76041055.453 8
  21651706.526    21651706.671   -11078494.765 9  -9737006.992 8
 89 11 25 13 35 59.0800000  0  4G13G 6G 3G 9
  20577603.491    20577603.680   -36951715.566 9   4789732.953 8
  24810794.269    24810794.548    19019896.193 7  13552468.662 4
  22532670.799    22532671.514   -71884717.598 9  75994822.301 9
  21668826.989    21668825.773   -10988526.392 9  -9666901.784 8
 89 11 25 13 36 29.0800000  0  4G13G 6G 3G 9
  20581158.632    20581158.207   -36933033.210 9   4804290.612 8
  24834631.206    24834636.094    19145160.630 7  13650077.203 5
  22521431.493    22521432.638   -71943777.501 9  75948801.601 9
  21686034.481    21686034.582   -10898097.929 9  -9596438.064 8
 89 11 25 13 36 59.0800000  0  4G13G 6G 3G 9
  20584770.297    20584771.032   -36914052.556 9   4819080.729 8
  24858486.035    24858487.250    19270514.274 7  13747755.318 5
  22510244.819    22510246.328   -72002564.952 9  75902993.209 9
  21703329.431    21703329.260   -10807212.312 9  -9525618.130 8
 89 11 25 13 37 29.0800000  0  4G13G 6G 3G 9
  20588438.300    20588439.301   -36894773.991 9   4834102.996 9
  24882358.284    24882357.988    19395955.363 6  13845501.556 3
  22499110.301    22499111.760   -72061078.710 9  75857398.078 9
  21720710.293    21720711.682   -10715871.139 9  -9454443.218 8
 89 11 25 13 37 59.0800000  0  3G13G 3G 9
  20592163.682    20592163.724   -36875199.079 9   4849356.177 8
  22488027.267    22488028.019   -72119319.250 9  75812015.863 8
  21738178.641    21738179.200   -10624076.814 9  -9382915.199 9
 89 11 25 13 38 29.0800000  0  3G13G 3G 9
  20595943.544    20595945.604   -36855330.035 9   4864838.557 8
  22476995.929    22476996.670   -72177287.140 9  75766846.095 8
  21755731.986    21755733.017   -10531832.598 9  -9311036.617 9
 89 11 25 13 38 59.0800000  0  3G13G 3G 9
  20599780.630    20599782.801   -36835168.550 9   4880548.812 7
  22466016.906    22466018.132   -72234982.682 9  75721888.532 8
  21773371.101    21773372.505   -10439141.801 9  -9238810.048 8
 89 11 25 13 39 29.0800000  0  3G13G 3G 9
  20603673.258    20603673.356   -36814716.423 9   4896485.526 8
  22455088.743    22455091.172   -72292406.076 9  75677143.051 8
  21791093.523    21791094.166   -10346006.250 9  -9166236.922 8
 89 11 25 13 39 59.0800000  0  3G13G 3G 9
  20607619.440    20607620.831   -36793975.590 9   4912647.205 8
  22444214.097    22444216.420   -72349557.133 9  75632609.774 8
  21808901.056    21808901.157   -10252428.934 9  -9093319.549 9
 89 11 25 13 40 29.0800000  0  3G13G 3G 9
  20611620.668    20611622.436   -36772947.409 9   4929032.784 8
  22433389.945    22433391.829   -72406436.458 9  75588288.240 8
  21826790.838    21826791.942   -10158412.726 9  -9020060.190 8
 89 11 25 13 40 59.0800000  0  3G13G 3G 9
  20615676.959    20615677.873   -36751632.846 9   4945641.537 8
  22422618.724    22422619.564   -72463043.760 9  75544178.672 8
  21844765.217    21844765.733   -10063959.801 9  -8946460.547 8
 89 11 25 13 41 29.0800000  0  3G13G 3G 9
  20619787.405    20619788.488   -36730034.756 9   4962471.218 8
  22411897.369    22411899.347   -72519379.925 8  75500280.369 9
  21862822.532    21862822.002    -9969073.956 9  -8872523.560 8
 89 11 25 13 41 59.0800000  0  3G13G 3G 9
  20623950.324    20623951.297   -36708155.391 9   4979520.082 8
  22401229.421    22401229.188   -72575445.548 9  75456592.895 8
  21880960.552    21880959.264    -9873758.113 9  -8798251.510 8
 89 11 25 13 42 29.0800000  0  3G13G 3G 9
  20628167.742    20628168.134   -36685995.107 9   4996787.825 8
  22390610.752    22390613.437   -72631239.677 9  75413116.947 9
  21899179.474    21899179.259    -9778013.970 9  -8723645.720 8
 89 11 25 13 42 59.0800000  0  3G13G 3G 9
  20632438.368    20632439.518   -36663555.331 9   5014273.371 7
  22380044.416    22380048.087   -72686762.979 8  75369852.051 8
  21917479.302    21917480.390    -9681844.243 9  -8648708.297 8
 89 11 25 13 43 29.0800000  0  3G13G 3G 9
  20636760.860    20636761.553   -36640839.348 9   5031974.166 8
  22369531.571    22369532.623   -72742016.469 9  75326797.410 8
  21935859.860    21935859.515    -9585253.248 9  -8573442.623 8
 89 11 25 13 43 59.0800000  0  3G13G 3G 9
  20641135.561    20641136.611   -36617848.803 9   5049888.903 8
  22359067.797    22359070.137   -72797000.253 8  75283952.910 9
  21954320.006    21954321.568    -9488243.096 8  -8497850.333 8
 89 11 25 13 44 29.0800000  0  3G13G 3G 9
  20645562.688    20645563.347   -36594583.363 9   5068017.827 8
  22348656.956    22348658.259   -72851713.006 9  75241319.627 9
  21972859.656    21972861.159    -9390815.073 9  -8421932.401 8
 89 11 25 13 44 59.0800000  0  3G13G 3G 9
  20650040.712    20650042.267   -36571046.652 9   5086358.108 8
  22338296.373    22338298.545   -72906156.323 9  75198896.267 9
  21991479.551    21991479.865    -9292973.667 9  -8345692.373 8
 89 11 25 13 45 29.0800000  0  3G13G 3G 9
  20654571.333    20654572.736   -36547239.790 9   5104908.873 8
  22327987.201    22327988.770   -72960330.745 9  75156682.450 9
  22010175.743    22010176.560    -9194721.797 9  -8269132.509 7
 89 11 25 13 45 59.0800000  0  3G13G 3G 9
  20659153.191    20659153.909   -36523164.758 9   5123668.610 8
  22317729.297    22317730.965   -73014236.202 9  75114678.216 8
  22028950.319    22028950.864    -9096061.949 9  -8192254.727 7
 89 11 25 13 46 29.0800000  0  3G13G 3G 9
  20663785.495    20663786.461   -36498822.533 9   5142636.569 8
  22307522.226    22307524.692   -73067872.748 9  75072883.505 9
  22047802.138    22047802.355    -8996996.982 9  -8115061.272 8
 89 11 25 13 46 59.0800000  0  3G13G 3G 9
  20668467.268    20668469.009   -36474214.916 9   5161811.337 8
  22297367.315    22297368.431   -73121240.609 9  75031298.177 9
  22066730.051    22066730.710    -8897529.285 9  -8037554.007 8
 89 11 25 13 47 29.0800000  0  3G13G 3G 9
  20673200.358    20673201.410   -36449344.346 9   5181190.980 8
  22287262.957    22287263.858   -73174340.435 9  74989921.723 8
  22085734.378    22085733.721    -8797662.547 9  -7959735.792 8
 89 11 25 13 47 59.0800000  0  3G13G 3G 9
  20677983.518    20677983.366   -36424212.817 9   5200773.992 7
  22277207.876    22277211.418   -73227173.472 8  74948753.142 8
  22104814.055    22104813.785    -8697400.095 9  -7881609.232 8
 89 11 25 13 48 29.0800000  0  3G13G 3G 9
  20682814.299    20682816.691   -36398821.393 9   5220559.525 8
  22267205.692    22267207.143   -73279738.735 9  74907793.219 9
  22123968.371    22123969.200    -8596743.949 9  -7803175.905 7
 89 11 25 13 48 59.0800000  0  3G13G 3G 9
  20687695.630    20687697.283   -36373170.820 9   5240546.976 8
  22257254.009    22257255.599   -73332036.512 9  74867041.725 9
  22143197.407    22143196.278    -8495696.733 9  -7724437.848 8
 89 11 25 13 49 29.0800000  0  3G13G 3G 9
  20692625.852    20692626.472   -36347264.361 9   5260733.839 8
  22247352.516    22247353.381   -73384068.470 9  74826497.363 8
  22162499.506    22162498.449    -8394262.785 9  -7645398.437 8
 89 11 25 13 49 59.0800000  0  3G13G 3G 9
  20697604.730    20697604.345   -36321102.964 9   5281119.359 8
  22237503.503    22237504.083   -73435833.710 9  74786160.828 8
  22181874.210    22181874.742    -8292443.955 9  -7566059.124 7
 89 11 25 13 50 29.0800000  0  3G13G 3G 9
  20702631.261    20702633.044   -36294688.728 9   5301701.868 7
  22227703.052    22227703.378   -73487333.283 9  74746031.316 8
  22201322.694    22201322.409    -8190243.749 9  -7486422.634 8
 89 11 25 13 50 59.0800000  0  3G13G 3G 9
  20707704.501    20707705.367   -36268024.093 9   5322479.518 8
  22217952.251    22217952.537   -73538568.172 9  74706108.038 8
  22220841.349    22220842.596    -8087665.653 9  -7406491.692 8
 89 11 25 13 51 29.0800000  0  3G13G 3G 9
  20712826.758    20712827.048   -36241108.944 9   5343452.361 7
  22208253.795    22208254.587   -73589537.276 9  74666391.863 8
  22240433.553    22240433.712    -7984711.301 8  -7326267.556 8
 89 11 25 13 51 59.0800000  0  3G13G 3G 9
  20717995.381    20717996.333   -36213945.861 9   5364618.400 7
  22198604.099    22198606.007   -73640241.874 9  74626881.805 8
  22260096.187    22260096.260    -7881384.657 9  -7245753.348 8
 89 11 25 13 52 29.0800000  0  3G13G 3G 9
  20723212.089    20723211.678   -36186536.519 9   5385976.325 7
  22189006.169    22189007.544   -73690681.665 9  74587578.076 8
  22279828.708    22279829.482    -7777687.870 9  -7164950.680 8
 89 11 25 13 52 59.0800000  0  3G13G 3G 9
  20728473.626    20728473.608   -36158882.139 9   5407525.208 7
  22179458.953    22179459.274   -73740856.837 9  74548480.567 9
  22299631.371    22299632.231    -7673623.844 8  -7083861.861 9
 89 11 25 13 53 29.0800000  0  3G13G 3G 9
  20733782.346    20733783.308   -36130985.227 9   5429263.063 7
  22169961.442    22169961.115   -73790768.995 9  74509588.000 8
  22319503.893    22319504.437    -7569196.743 9  -7002490.135 9
 89 11 25 13 53 59.0800000  0  3G13G 3G 9
  20739135.927    20739137.451   -36102848.189 9   5451188.024 7
  22160512.836    22160513.162   -73840419.052 9  74470899.679 9
  22339444.067    22339444.069    -7464410.013 9  -6920838.181 9
 89 11 25 13 54 29.0800000  0  3G13G 3G 9
  20744536.503    20744537.748   -36074471.478 9   5473299.743 8
  22151113.683    22151115.807   -73889806.104 9  74432416.269 8
  22359452.097    22359452.257    -7359265.554 9  -6838907.476 8
 89 11 25 13 54 59.0800000  0  3G13G 3G 9
  20749982.452    20749983.331   -36045856.249 9   5495597.323 7
  22141765.135    22141766.010   -73938930.020 9  74394137.908 8
  22379528.690    22379528.776    -7253765.557 9  -6756699.731 9
 89 11 25 13 55 29.0800000  0  3G13G 3G 9
  20755471.887    20755472.149   -36017004.483 9   5518079.220 8
  22132468.167    22132469.588   -73987792.072 9  74356063.581 9
  22399671.583    22399671.646    -7147914.304 9  -6674218.283 8
 89 11 25 13 55 59.0800000  0  3G13G 3G 9
  20761007.538    20761007.959   -35987917.721 9   5540744.225 7
  22123219.608    22123220.640   -74036392.802 9  74318192.897 8
  22419881.158    22419881.403    -7041714.714 9  -6591465.389 8
 89 11 25 13 56 29.0800000  0  3G13G 3G 9
  20766586.661    20766588.090   -35958599.967 9   5563589.211 7
  22114020.744    22114021.205   -74084734.170 9  74280524.334 8
  22440155.385    22440156.265    -6935171.365 9  -6508444.633 9
 89 11 25 13 56 59.0800000  0  3G13G 3G 9
  20772209.830    20772211.659   -35929049.960 9   5586615.191 7
  22104871.662    22104872.823   -74132814.378 9  74243059.246 7
  22460495.609    22460494.285    -6828284.941 9  -6425156.550 8
 89 11 25 13 57 29.0800000  0  3G13G 3G 9
  20777876.526    20777878.347   -35899269.508 9   5609820.727 8
  22095771.831    22095772.236   -74180633.761 9  74205797.401 9
  22480899.585    22480899.409    -6721058.567 9  -6341603.585 8
 89 11 25 13 57 59.0800000  0  3G13G 3G 9
  20783587.210    20783587.436   -35869261.291 9   5633203.742 7
  22086720.524    22086722.474   -74228193.876 9  74168737.607 9
  22501367.428    22501368.799    -6613496.616 9  -6257789.115 8
 89 11 25 13 58 29.0800000  0  3G13G 3G 9
  20789340.590    20789341.208   -35839027.248 9   5656762.724 8
  22077720.000    22077720.475   -74275495.026 9  74131879.581 8
  22521899.214    22521900.806    -6505601.600 8  -6173715.114 9
 89 11 25 13 58 59.0800000  0  3G13G 3G 9
  20795137.296    20795137.473   -35808567.961 9   5680497.224 8
  22068768.300    22068769.620   -74322537.357 9  74095223.247 9
  22542494.049    22542495.756    -6397376.489 9  -6089383.892 9
 89 11 25 13 59 29.0800000  0  3G13G 3G 9
  20800975.888    20800976.523   -35777884.701 9   5704406.246 7
  22059865.235    22059866.870   -74369320.662 9  74058768.761 8
  22563150.904    22563152.905    -6288823.778 8  -6004797.401 9
 89 11 25 13 59 59.0800000  0  3G13G 3G 9
  20806856.368    20806856.488   -35746981.022 9   5728487.033 8
  22051011.252    22051011.998   -74415847.738 9  74022513.928 9
  22583868.748    22583870.310    -6179948.461 9  -5919959.515 8
 89 11 25 14  0 29.0800000  0  3G13G 3G 9
  20812778.857    20812779.725   -35715857.036 9   5752739.485 8
  22042206.763    22042207.752   -74462116.881 9  73986460.069 9
  22604647.678    22604650.747    -6070752.154 8  -5834871.537 9
 89 11 25 14  0 59.0800000  0  3G13G 3G 9
  20818743.126    20818743.656   -35684514.489 9   5777162.245 7
  22033450.254    22033452.103   -74508129.218 9  73950606.322 8
  22625488.877    22625489.988    -5961238.089 8  -5749535.944 9
 89 11 25 14  1 29.0800000  0  3G13G 3G 9
  20824748.322    20824749.870   -35652956.090 8   5801753.193 7
  22024743.370    22024745.191   -74553886.076 9  73914951.636 9
  22646387.404    22646389.168    -5851410.425 8  -5663955.982 9
 89 11 25 14  1 59.0800000  0  3G13G 3G 9
  20830794.794    20830795.611   -35621183.316 9   5826511.174 8
  22016085.307    22016086.383   -74599387.529 9  73879495.977 9
  22667347.111    22667348.985    -5741271.854 8  -5578133.761 8
 89 11 25 14  2 29.0800000  0  3G13G 3G 9
  20836881.255    20836882.540   -35589196.595 9   5851435.878 7
  22007475.108    22007476.200   -74644633.418 9  73844239.468 9
  22688364.780    22688365.468    -5630824.671 9  -5492071.059 9
 89 11 25 14  2 59.0800000  0  3G13G 3G 9
  20843008.860    20843009.715   -35556997.133 9   5876526.369 8
  21998913.977    21998915.641   -74689624.005 9  73809181.887 9
  22709439.187    22709440.321    -5520071.917 8  -5405770.264 7
 89 11 25 14  3 29.0800000  0  3G13G 3G 9
  20849176.634    20849178.141   -35524588.127 9   5901780.123 7
  21990399.279    21990401.300   -74734361.616 9  73774321.416 9
  22730573.558    22730573.290    -5409018.203 8  -5319234.958 9
 89 11 25 14  3 59.0800000  0  3G13G 3G 9
  20855382.739    20855382.835   -35491970.864 9   5927196.176 7
  21981935.149    21981935.753   -74778845.749 8  73739658.468 9
  22751763.526    22751762.853    -5297665.999 9  -5232467.049 7
 89 11 25 14  4 29.0800000  0  3G13G 3G 9
  20861628.924    20861630.132   -35459146.619 9   5952773.500 8
  21973517.338    21973519.602   -74823077.145 9  73705192.459 8
  22773009.365    22773009.242    -5186018.525 8  -5145469.055 7
 89 11 25 14  4 59.0800000  0  3G13G 3G 9
  20867913.585    20867914.863   -35426117.097 9   5978510.799 8
  21965149.165    21965150.184   -74867056.419 9  73670922.925 8
  22794309.630    22794310.041    -5074078.998 9  -5058243.507 7
 89 11 25 14  5 29.0800000  0  3G13G 3G 9
  20874238.066    20874239.727   -35392883.997 9   6004406.707 7
  21956828.344    21956829.162   -74910783.947 9  73636849.555 8
  22815665.465    22815667.531    -4961850.607 8  -4970792.865 7
 89 11 25 14  5 59.0800000  0  3G13G 3G 9
  20880601.927    20880602.499   -35359447.838 9   6030460.842 7
  21948554.240    21948555.874   -74954259.427 9  73602972.582 8
  22837077.316    22837078.543    -4849335.528 8  -4883118.827 8
 89 11 25 14  6 29.0800000  0  3G13G 3G 9
  20887002.113    20887002.758   -35325811.312 9   6056671.111 8
  21940329.531    21940330.408   -74997484.354 8  73569290.837 9
  22858542.106    22858542.977    -4736538.026 8  -4795224.705 8
 89 11 25 14  6 59.0800000  0  3G13G 3G 9
  20893440.554    20893442.295   -35291975.670 9   6083036.532 8
  21932151.527    21932152.505   -75040459.393 8  73535803.820 8
  22880060.093    22880059.238    -4623461.209 8  -4707112.967 9
 89 11 25 14  7 29.0800000  0  3G13G 3G 9
  20899917.428    20899918.182   -35257942.110 9   6109556.191 8
  21924020.659    21924021.737   -75083184.897 8  73502511.227 8
  22901630.331    22901629.819    -4510107.997 8  -4618785.862 7
 89 11 25 14  7 59.0800000  0  3G13G 3G 9
  20906430.171    20906432.099   -35223711.922 9   6136229.032 8
  21915938.056    21915939.477   -75125660.440 9  73469413.418 8
  22923252.868    22923253.325    -4396480.633 7  -4530245.106 8
 89 11 25 14  8 29.0800000  0  3G13G 3G 9
  20912980.735    20912982.389   -35189287.403 9   6163053.308 8
  21907903.389    21907904.179   -75167887.717 8  73436509.064 9
  22944926.411    22944927.037    -4282583.323 9  -4441494.031 7
 89 11 25 14  8 59.0800000  0  3G13G 3G 9
  20919568.995    20919571.442   -35154669.191 9   6190028.504 8
  21899914.281    21899915.557   -75209866.269 9  73403798.537 9
  22966650.179    22966651.048    -4168418.535 8  -4352534.519 7
 89 11 25 14  9 29.0800000  0  3G13G 3G 9
  20926193.003    20926193.967   -35119859.895 9   6217152.613 8
  21891973.181    21891973.528   -75251598.122 9  73371280.219 9
  22988426.116    22988426.804    -4053990.782 9  -4263370.105 8
 89 11 25 14  9 59.0800000  0  3G13G 3G 9
  20932853.662    20932855.546   -35084861.417 9   6244424.139 8
  21884078.814    21884080.149   -75293083.951 9  73338953.593 9
  23010250.772    23010252.186    -3939303.304 7  -4174003.314 8
 89 11 25 14 10 29.0800000  0  3G13G 3G 9
  20939549.397    20939549.324   -35049674.454 9   6271842.533 8
  21876230.911    21876231.329   -75334323.670 8  73306818.770 9
  23032123.059    23032125.040    -3824358.606 7  -4084436.095 8
 89 11 25 14 10 59.0800000  0  3G13G 3G 9
  20946280.835    20946282.341   -35014299.283 9   6299407.582 7
  21868429.682    21868431.274   -75375317.041 9  73274875.888 8
  23054045.941    23054044.896    -3709158.968 8  -3994670.221 8
 89 11 25 14 11 29.0800000  0  3G13G 3G 9
  20953048.523    20953049.092   -34978739.429 9   6327116.535 8
  21860676.047    21860676.379   -75416066.260 9  73243123.260 7
  23076014.601    23076016.276    -3593708.972 8  -3904709.282 8
 89 11 25 14 11 59.0800000  0  3G13G 3G 9
  20959849.434    20959849.596   -34942995.624 9   6354968.854 8
  21852968.144    21852969.535   -75456570.796 8  73211561.304 8
  23098030.844    23098033.686    -3478011.155 8  -3814555.218 8
 89 11 25 14 12 29.0800000  0  3G13G 3G 9
  20966686.070    20966686.803   -34907069.207 9   6382963.450 7
  21845307.075    21845308.138   -75496831.487 9  73180189.364 9
  23120095.275    23120096.338    -3362068.884 8  -3724210.672 9
 89 11 25 14 12 59.0800000  0  3G13G 3G 9
  20973556.890    20973557.908   -34870962.564 9   6411098.462 8
  21837691.480    21837693.188   -75536849.714 8  73149006.337 9
  23142203.950    23142205.103    -3245886.087 9  -3633678.685 8
 89 11 25 14 13 29.0800000  0  3G13G 3G 9
  20980461.997    20980463.548   -34834675.907 9   6439373.755 8
  21830122.048    21830123.396   -75576625.164 8  73118012.482 9
  23164357.725    23164359.967    -3129464.857 8  -3542960.935 8
 89 11 25 14 13 59.0800000  0  3G13G 3G 9
  20987401.304    20987402.824   -34798210.655 9   6467788.226 8
  21822599.649    21822600.423   -75616158.207 9  73087207.519 9
  23186557.251    23186559.121    -3012808.316 8  -3452059.818 8
 89 11 25 14 14 29.0800000  0  3G13G 3G 9
  20994373.899    20994375.535   -34761568.417 9   6496340.597 8
  21815122.967    21815123.471   -75655449.439 9  73056590.975 9
  23208800.945    23208802.784    -2895919.720 9  -3360977.854 8
 89 11 25 14 14 59.0800000  0  3G13G 3G 9
  21001379.676    21001381.663   -34724751.948 9   6525028.731 8
  21807692.060    21807692.280   -75694501.122 9  73026161.089 8
  23231086.167    23231088.615    -2778803.759 8  -3269718.790 8
 89 11 25 14 15 29.0800000  0  3G13G 3G 9
  21008419.112    21008420.427   -34687760.669 9   6553853.093 9
  21800305.857    21800306.304   -75733311.962 9  72995918.902 8
  23253416.605    23253418.294    -2661461.790 8  -3178283.571 7
 89 11 25 14 15 59.0800000  0  3G13G 3G 9
  21015491.287    21015492.881   -34650597.330 9   6582811.520 8
  21792966.115    21792966.691   -75771883.490 9  72965863.175 8
  23275786.923    23275790.825    -2543898.261 7  -3086675.720 8
 89 11 25 14 16 29.0800000  0  3G13G 3G 9
  21022595.620    21022597.469   -34613263.564 9   6611902.727 8
  21785672.249    21785671.923   -75810216.838 9  72935993.028 8
  23298201.994    23298203.239    -2426116.206 8  -2994897.591 7
 89 11 25 14 16 59.0800000  0  3G13G 3G 9
  21029732.494    21029732.931   -34575760.677 9   6641125.728 8
  21778422.053    21778423.631   -75848312.307 8  72906308.257 9
  23320654.937    23320657.309    -2308119.163 8  -2902951.928 8
 89 11 25 14 17 29.0800000  0  3G13G 3G 9
  21036900.535    21036902.415   -34538089.806 9   6670479.636 8
  21771217.777    21771218.669   -75886170.053 9  72876808.717 9
  23343149.464    23343151.518    -2189909.402 7  -2810840.506 8
 89 11 25 14 17 59.0800000  0  3G13G 3G 9
  21044100.326    21044101.339   -34500252.258 9   6699963.414 8
  21764059.561    21764059.004   -75923790.837 9  72847493.823 9
  23365685.565    23365685.511    -2071490.443 7  -2718566.083 8
 89 11 25 14 18 29.0800000  0  3G13G 3G 9
  21051332.636    21051333.628   -34462249.871 9   6729575.630 7
  21756945.561    21756945.679   -75961176.022 9  72818362.529 9
  23388257.861    23388259.999    -1952866.358 7  -2626131.823 7
 89 11 25 14 18 59.0800000  0  3G13G 3G 9
  21058596.068    21058596.608   -34424082.970 9   6759316.038 8
  21749875.117    21749876.766   -75998325.416 9  72789414.955 9
  23410870.112    23410871.495    -1834039.516 7  -2533539.579 8
 89 11 25 14 19 29.0800000  0  3G13G 3G 9
  21065889.600    21065890.276   -34385753.245 9   6789183.337 7
  21742851.323    21742852.643   -76035239.582 9  72760650.660 8
  23433520.065    23433520.472    -1715012.810 7  -2440791.577 8
 89 11 25 14 19 59.0800000  0  3G13G 3G 9
  21073214.043    21073216.206   -34347262.571 9   6819176.052 8
  21735870.540    21735872.735   -76071919.497 9  72732068.910 8
  23456207.823    23456209.548    -1595789.782 7  -2347890.630 6
 89 11 25 14 20 29.0800000  0  3G13G 3G 9
  21080568.360    21080570.843   -34308612.391 9   6849293.053 8
  21728935.535    21728936.726   -76108366.217 9  72703668.866 9
  23478931.423    23478932.938    -1476374.421 8  -2254839.807 7
 89 11 25 14 20 59.0800000  0  3G13G 3G 9
  21087954.673    21087955.828   -34269803.013 9   6879534.077 8
  21722044.929    21722045.419   -76144579.041 9  72675451.084 8
  23501691.255    23501693.131    -1356768.357 8  -2161640.392 7
 89 11 25 14 21 29.0800000  0  3G13G 3G 9
  21095369.175    21095369.724   -34230836.995 9   6909897.180 8
  21715197.925    21715198.014   -76180559.508 9  72647414.376 9
  23524488.033    23524489.840    -1236975.678 7  -2068295.576 7
 89 11 25 14 21 59.0800000  0  3G13G 3G 9
  21102814.585    21102815.946   -34191715.790 9   6940381.203 8
  21708395.749    21708395.596   -76216309.656 9  72619557.123 9
  23547318.966    23547320.405    -1117001.089 7  -1974808.989 7
 89 11 25 14 22 29.0800000  0  3G13G 3G 9
  21110287.881    21110289.776   -34152440.594 9   6970985.230 7
  21701635.503    21701636.908   -76251829.302 9  72591879.490 9
  23570183.164    23570185.643     -996846.698 8  -1881182.318 8
 89 11 25 14 22 59.0800000  0  3G13G 3G 9
  21117790.779    21117792.359   -34113011.696 9   7001709.025 8
  21694920.128    21694921.318   -76287117.672 9  72564382.050 8
  23593081.251    23593082.838     -876514.861 8  -1787417.354 7
 89 11 25 14 23 29.0800000  0  3G13G 3G 9
  21125322.820    21125324.892   -34073431.642 9   7032550.580 7
  21688248.324    21688249.457   -76322177.040 9  72537063.066 9
  23616013.940    23616014.618     -756009.503 8  -1693517.187 7
 89 11 25 14 23 59.0800000  0  3G13G 3G 9
  21132883.555    21132883.535   -34033701.381 9   7063509.188 8
  21681620.809    21681620.896   -76357007.177 9  72509922.703 9
  23638976.827    23638978.871     -635333.930 9  -1599484.382 7
 89 11 25 14 24 29.0800000  0  3G13G 3G 9
  21140472.127    21140473.003   -33993821.202 9   7094584.626 8
  21675036.291    21675037.238   -76391608.506 9  72482960.629 9
  23661973.845    23661975.063     -514490.480 8  -1505320.769 8
 89 11 25 14 24 59.0800000  0  3G13G 3G 9
  21148089.686    21148090.165   -33953792.958 9   7125775.449 7
  21668496.262    21668495.820   -76425982.294 9  72456175.869 8
  23685000.012    23685002.163     -393483.075 9  -1411029.405 8
 89 11 25 14 25 29.0800000  0  3G13G 3G 9
  21155734.750    21155735.325   -33913618.628 9   7157080.095 8
  21661997.112    21661997.474   -76460129.680 9  72429567.538 8
  23708057.158    23708059.349     -272315.270 8  -1316613.059 7
 89 11 25 14 25 59.0800000  0  3G13G 3G 9
  21163406.741    21163408.120   -33873299.787 9   7188497.328 7
  21655541.879    21655543.456   -76494051.243 9  72403135.133 8
  23731145.844    23731146.944     -150990.595 8  -1222074.471 7
 89 11 25 14 26 29.0800000  0  3G13G 3G 9
  21171106.749    21171107.133   -33832836.791 9   7220026.899 8
  21649129.901    21649130.334   -76527747.113 9  72376878.624 8
  23754261.938    23754264.320      -29511.536 9  -1127415.595 8
 89 11 25 14 26 59.0800000  0  3G13G 3G 9
  21178833.246    21178834.063   -33792231.376 9   7251667.425 8
  21642759.835    21642761.571   -76561218.268 9  72350797.184 9
  23777406.770    23777409.674       92118.433 8  -1032639.129 8
 89 11 25 14 27 29.0800000  0  3G13G 3G 9
  21186587.705    21186588.878   -33751483.585 9   7283418.910 8
  21636433.914    21636434.963   -76594464.143 9  72324891.314 9
  23800580.437    23800583.202      213897.230 8   -937746.707 7
 89 11 25 14 27 59.0800000  0  3G13G 3G 9
  21194368.150    21194369.919   -33710595.723 9   7315279.532 8
  21630150.477    21630150.937   -76627486.493 9  72299159.594 8
  23823783.268    23823785.148      335820.653 8   -842741.580 8
 89 11 25 14 28 29.0800000  0  3G13G 3G 9
  21202175.532    21202176.522   -33669569.742 9   7347247.777 8
  21623908.850    21623909.298   -76660286.987 9  72273600.763 9
  23847011.643    23847012.357      457884.591 8   -747626.979 7
 89 11 25 14 28 59.0800000  0  3G13G 3G 9
  21210008.813    21210010.663   -33628405.639 9   7379323.645 8
  21617708.936    21617709.583   -76692864.891 9  72248215.390 9
  23870265.963    23870268.110      580087.093 8   -652404.409 7
 89 11 25 14 29 29.0800000  0  3G13G 3G 9
  21217867.930    21217868.198   -33587104.862 9   7411506.029 7
  21611552.106    21611552.482   -76725221.368 9  72223002.539 7
  23893545.136    23893547.177      702424.719 8   -557076.558 7
 89 11 25 14 29 59.0800000  0  3G13G 3G 9
  21225753.290    21225754.286   -33545669.104 9   7443793.604 8
  21605436.300    21605437.850   -76757357.429 9  72197961.446 8
  23916849.315    23916853.474      824893.564 7   -461646.459 8
 89 11 25 14 30 29.0800000  0  3G13G 3G 9
  21233663.583    21233666.015   -33504098.716 9   7476186.042 8
  21599363.438    21599363.969   -76789273.078 9  72173092.090 8
  23940180.645    23940183.346      947491.763 7   -366115.558 7
 89 11 25 14 30 59.0800000  0  3G13G 3G 9
  21241600.030    21241600.570   -33462395.923 9   7508681.681 8
  21593331.913    21593332.045   -76820969.557 9  72148393.510 9
  23963532.890    23963535.452     1070214.991 7   -270487.237 7
 89 11 25 14 31 29.0800000  0  3G13G 3G 9
  21249560.460    21249561.112   -33420561.254 9   7541280.074 7
  21587341.699    21587342.734   -76852447.364 9  72123865.328 8
  23986909.313    23986914.080     1193060.471 6   -174763.660 8
 89 11 25 14 31 59.0800000  0  3G13G 3G 9
  21257546.219    21257547.659   -33378596.291 9   7573980.001 8
  21581393.069    21581393.344   -76883707.446 9  72099506.817 8
  24010307.121    24010312.345     1316024.589 7    -78947.667 7
 89 11 25 14 32 29.0800000  0  3G13G 3G 9
  21265556.120    21265556.181   -33336502.273 9   7606780.484 9
  21575486.277    21575486.653   -76914750.140 9  72075317.673 8
  24033728.472    24033734.361     1439104.492 6     16958.563 7
 89 11 25 14 32 59.0800000  0  3G13G 3G 9
  21273591.329    21273591.371   -33294279.965 9   7639680.953 9
  21569619.782    21569620.973   -76945576.270 8  72051297.290 8
  24057174.206    24057177.008     1562297.135 7    112952.656 7
 89 11 25 14 33 29.0800000  0  3G13G 3G 9
  21281649.923    21281651.035   -33251929.954 9   7672680.884 9
  21563795.685    21563795.815   -76976185.614 9  72027445.835 8
  24080637.189    24080640.588     1685599.871 8    209032.509 7
 89 11 25 14 33 59.0800000  0  3G13G 3G 9
  21289732.381    21289733.582   -33209453.449 8   7705779.399 7
  21558011.566    21558012.299   -77006579.463 9  72003762.295 8
  24104121.721    24104121.686     1809009.196 7    305195.436 7
 89 11 25 14 34 29.0800000  0  3G13G 3G 9
  21297838.500    21297840.957   -33166852.691 9   7738974.739 8
  21552268.314    21552269.019   -77036758.986 9  71980245.764 9
  24127627.522    24127630.017     1932521.224 8    401438.391 7
 89 11 25 14 34 59.0800000  0  3G13G 3G 9
  21305969.895    21305971.429   -33124128.356 9   7772266.357 8
  21546566.344    21546567.265   -77066725.232 9  71956895.420 8
  24151147.190    24151150.016     2056132.703 9    497758.828 7
 89 11 25 14 35 29.0800000  0  3G13G 3G 9
  21314123.741    21314124.933   -33081281.509 9   7805653.449 8
  21540904.270    21540906.148   -77096478.454 9  71933711.060 8
  24174692.118    24174694.034     2179840.654 8    594154.426 7
 89 11 25 14 35 59.0800000  0  3G13G 3G 9
  21322299.584    21322301.634   -33038312.878 9   7839135.438 8
  21535283.692    21535283.837   -77126018.652 9  71910692.696 8
  24198249.185    24198249.722     2303642.509 8    690623.217 7
 89 11 25 14 36 29.0800000  0  3G13G 3G 9
  21330499.457    21330501.926   -32995224.105 9   7872711.048 8
  21529702.392    21529702.568   -77155347.434 9  71887839.074 8
  24221823.496    24221828.364     2427534.486 8    787162.207 7
 89 11 25 14 36 59.0800000  0  3G13G 3G 9
  21338721.073    21338723.731   -32952015.921 9   7906379.680 9
  21524160.943    21524163.050   -77184464.854 9  71865150.156 8
  24245415.849    24245420.894     2551513.718 9    883769.194 6
 89 11 25 14 37 29.0800000  0  3G13G 3G 9
  21346966.479    21346968.492   -32908688.584 8   7940141.178 8
  21518660.877    21518661.968   -77213371.066 9  71842625.802 8
  24269025.176    24269030.097     2675578.221 9    980442.625 7
 89 11 25 14 37 59.0800000  0  3G13G 3G 9
  21355234.486    21355235.847   -32865244.514 9   7973993.638 8
  21513199.587    21513200.922   -77242067.415 9  71820264.995 9
  24292648.997    24292654.328     2799723.108 9   1077178.710 7
 89 11 25 14 38 29.0800000  0  3G13G 3G 9
  21363523.854    21363525.951   -32821685.076 9   8007935.983 8
  21507778.351    21507779.915   -77270555.118 9  71798066.758 9
  24316289.824    24316292.226     2923945.507 8   1173975.181 7
 89 11 25 14 38 59.0800000  0  3G13G 3G 9
  21371834.633    21371835.842   -32778010.645 9   8041967.943 9
  21502397.709    21502399.000   -77298834.915 9  71776030.525 8
  24339942.456    24339947.311     3048242.017 9   1270829.383 7
 89 11 25 14 39 29.0800000  0  3G13G 3G 9
  21380167.184    21380168.902   -32734221.464 9   8076089.313 8
  21497055.301    21497055.605   -77326906.775 9  71754156.316 9
  24363607.896    24363613.726     3172610.221 9   1367739.458 6
 89 11 25 14 39 59.0800000  0  3G13G 3G 9
  21388521.504    21388524.691   -32690318.653 9   8110299.212 9
  21491753.946    21491754.049   -77354771.092 9  71732443.841 9
  24387289.979    24387290.590     3297047.173 8   1464703.072 6
 89 11 25 14 40 29.0800000  0  3G13G 3G 9
  21396898.077    21396898.992   -32646304.386 9   8144595.968 8
  21486490.324    21486490.757   -77382429.336 9  71710891.932 9
  24410981.109    24410983.884     3421549.116 9   1561717.339 8
 89 11 25 14 40 59.0800000  0  3G13G 3G 9
  21405294.288    21405296.209   -32602178.901 9   8178979.402 8
  21481265.896    21481267.846   -77409881.298 9  71689500.756 9
  24434683.834    24434688.860     3546113.583 9   1658780.305 7
 89 11 25 14 41 29.0800000  0  3G13G 3G 9
  21413712.455    21413713.598   -32557943.252 9   8213448.664 8
  21476081.061    21476082.338   -77437128.395 9  71668269.215 9
  24458400.773    24458405.112     3670736.919 8   1755889.153 7
 89 11 25 14 41 59.0800000  0  3G13G 3G 9
  21422149.626    21422152.493   -32513599.638 9   8248002.066 8
  21470934.460    21470935.494   -77464171.830 9  71647196.378 9
  24482125.235    24482129.095     3795415.505 9   1853041.037 7
 89 11 25 14 42 29.0800000  0  3G13G 3G 9
  21430609.532    21430611.464   -32469147.226 9   8282640.243 8
  21465827.353    21465829.517   -77491011.228 9  71626282.526 9
  24505860.982    24505865.124     3920146.929 9   1950234.092 6
 89 11 25 14 42 59.0800000  0  3G13G 3G 9
  21439088.714    21439090.622   -32424588.478 9   8317361.275 8
  21460759.123    21460759.628   -77517648.469 9  71605526.209 8
  24529606.607    24529610.817     4044927.153 8   2047465.164 7
 89 11 25 14 43 29.0800000  0  3G13G 3G 9
  21447588.498    21447590.329   -32379923.403 9   8352165.141 9
  21455729.057    21455730.061   -77544082.743 9  71584928.040 8
  24553360.980    24553363.074     4169754.583 7   2144733.024 6
 89 11 25 14 43 59.0800000  0  3G13G 3G 9
  21456107.126    21456108.910   -32335152.762 9   8387051.273 8
  21450736.092    21450737.872   -77570314.839 9  71564487.418 8
  24577123.925    24577125.994     4294625.639 8   2242034.878 7
 89 11 25 14 44 29.0800000  0  3G13G 3G 9
  21464648.025    21464649.264   -32290279.301 9   8422017.523 8
  21445782.367    21445783.942   -77596347.390 9  71544202.285 8
  24600892.341    24600897.315     4419535.947 7   2339367.282 8
 89 11 25 14 44 59.0800000  0  3G13G 3G 9
  21473205.949    21473208.206   -32245301.642 9   8457064.960 8
  21440867.117    21440869.482   -77622178.692 9  71524073.966 9
  24624669.882    24624672.896     4544484.197 7   2436729.253 7
 89 11 25 14 45 29.0800000  0  3G13G 3G 9
  21481783.667    21481786.730   -32200220.459 8   8492193.066 8
  21435990.230    21435991.764   -77647809.823 9  71504101.626 8
  24648454.718    24648458.935     4669467.247 7   2534118.346 7
 89 11 25 14 45 59.0800000  0  3G13G 3G 9
  21490382.099    21490385.130   -32155038.794 9   8527399.472 8
  21431150.404    21431151.107   -77673242.677 9  71484283.773 9
  24672243.955    24672247.702     4794480.326 6   2631530.821 7
 89 11 25 14 46 29.0800000  0  3G13G 3G 9
  21498999.749    21499000.558   -32109757.359 8   8562683.628 8
  21426348.827    21426349.030   -77698477.937 9  71464619.908 9
  24696037.134    24696042.305     4919520.673 6   2728964.549 9
 89 11 25 14 46 59.0800000  0  3G13G 3G 9
  21507635.283    21507638.295   -32064376.782 9   8598045.032 8
  21421582.979    21421585.158   -77723516.438 9  71445109.333 9
  24719836.138    24719841.374     5044584.797 7   2826416.790 8
 89 11 25 14 47 29.0800000  0  3G13G 3G 9
  21516288.535    21516291.883   -32018896.596 9   8633484.055 8
  21416856.610    21416857.457   -77748357.009 9  71425753.011 9
  24743640.270    24743645.039     5169671.529 8   2923886.649 7
 89 11 25 14 47 59.0800000  0  3G13G 3G 9
  21524963.022    21524965.798   -31973317.659 8   8669000.027 8
  21412167.417    21412168.880   -77773000.405 9  71406550.308 7
  24767447.886    24767451.140     5294777.794 7   3021371.730 7
 89 11 25 14 48 29.0800000  0  3G13G 3G 9
  21533655.109    21533656.878   -31927641.735 9   8704591.578 7
  21407515.069    21407516.447   -77797448.195 9  71387500.011 8
  24791258.601    24791262.609     5419899.814 8   3118869.083 7
 89 11 25 14 48 59.0800000  0  3G13G 3G 9
  21542364.996    21542368.105   -31881870.464 9   8740257.426 8
  21402898.968    21402901.561   -77821702.111 9  71368600.808 8
  24815070.884    24815074.989     5545033.163 8   3216375.238 7
 89 11 25 14 49 29.0800000  0  3G13G 3G 9
  21551093.343    21551095.567   -31836003.222 9   8775998.025 8
  21398321.000    21398323.105   -77845760.875 9  71349853.665 9
  24838886.011    24838888.744     5670176.639 8   3313889.291 8
 89 11 25 14 49 59.0800000  0  3G13G 3G 9
  21559839.353    21559841.282   -31790040.799 8   8811812.819 8
  21393779.635    21393780.137   -77869625.538 9  71331257.766 8
  24862700.378    24862705.608     5795327.079 8   3411408.764 9
 89 11 25 14 50 29.0800000  0  3G13G 3G 9
  21568604.267    21568605.636   -31743984.995 9   8847700.378 7
  21389274.744    21389277.123   -77893296.966 9  71312812.453 9
  24886516.600    24886521.963     5920481.048 9   3508930.987 8
 89 11 25 14 50 59.0800000  0  3G13G 3G 9
  21577385.707    21577388.508   -31697836.935 8   8883659.811 8
  21384807.471    21384808.276   -77916776.640 9  71294516.540 9
  24910333.428    24910338.280     6045634.703 8   3606452.962 8
 89 11 25 14 51 29.0800000  0  3G13G 3G 9
  21586185.860    21586185.723   -31651597.197 9   8919690.679 7
  21380375.630    21380377.578   -77940064.642 9  71276369.985 9
  24934148.425    24934152.803     6170785.306 9   3703972.549 7
 89 11 25 14 51 59.0800000  0  3G13G 3G 9
  21595001.191    21595004.116   -31605265.857 9   8955792.924 8
  21375980.377    21375981.968   -77963161.405 9  71258372.468 9
  24957963.281    24957968.765     6295930.445 9   3801487.873 7
 89 11 25 14 52 29.0800000  0  3G13G 3G 9
  21603834.780    21603836.488   -31558844.592 9   8991965.249 8
  21371621.911    21371622.730   -77986067.654 9  71240523.402 8
  24981775.770    24981780.873     6421066.828 9   3898996.380 7
 89 11 25 14 52 59.0800000  0  3G13G 3G 9
  21612686.446    21612688.035   -31512333.267 9   9028207.743 8
  21367299.448    21367300.753   -78008783.688 9  71222822.543 9
  25005586.583    25005591.041     6546191.654 8   3996495.907 8
 89 11 25 14 53 29.0800000  0  3G13G 3G 9
  21621553.182    21621556.437   -31465732.952 7   9064519.545 8
  21363012.085    21363014.549   -78031310.231 9  71205269.337 9
  25029394.847    25029400.249     6671302.115 9   4093984.219 6
 89 11 25 14 53 59.0800000  0  3G13G 3G 9
  21630438.023    21630440.939   -31419044.342 9   9100900.191 7
  21358762.399    21358762.486   -78053648.262 9  71187863.023 8
  25053199.400    25053204.367     6796394.611 9   4191458.512 7
 89 11 25 14 54 29.0800000  0  3G13G 3G 9
  21639339.053    21639342.573   -31372268.355 8   9137348.906 8
  21354546.898    21354548.546   -78075798.261 9  71170603.211 8
  25076999.114    25077004.447     6921466.416 9   4288916.675 6
 89 11 25 14 54 59.0800000  0  3G13G 3G 9
  21648257.813    21648260.172   -31325405.299 9   9173865.476 8
  21350367.712    21350369.491   -78097760.597 9  71153489.647 9
  25100795.743    25100802.685     7046514.877 9   4386356.695 6
 89 11 25 14 55 29.0800000  0  3G13G 3G 9
  21657191.061    21657194.836   -31278456.119 9   9210449.137 8
  21346224.758    21346225.175   -78119535.891 9  71136521.818 8
  25124586.761    25124593.222     7171536.750 9   4483775.905 7
 89 11 25 14 55 59.0800000  0  3G13G 3G 9
  21666142.138    21666144.686   -31231421.798 9   9247099.135 8
  21342117.249    21342117.896   -78141125.207 9  71119698.916 7
  25148372.803    25148378.742     7296528.913 8   4581172.040 6
 89 11 25 14 56 29.0800000  0  3G13G 3G 9
  21675108.834    21675111.196   -31184303.500 9   9283814.599 8
  21338043.151    21338044.556   -78162529.736 9  71103020.012 8
  25172151.296    25172159.249     7421487.716 9   4678542.123 6
 89 11 25 14 56 59.0800000  0  3G13G 3G 9
  21684090.924    21684092.923   -31137101.803 9   9320595.036 7
  21334004.824    21334005.729   -78183749.322 9  71086485.204 8
  25195923.818    25195929.029     7546410.553 8   4775884.262 6
 89 11 25 14 57 29.0800000  0  3G13G 3G 9
  21693089.421    21693091.578   -31089815.848 9   9357441.121 8
  21330002.443    21330003.564   -78204783.190 9  71070095.117 8
  25219689.396    25219694.244     7671295.978 8   4873197.171 7
 89 11 25 14 57 59.0800000  0  3G13G 3G 9
  21702103.996    21702105.557   -31042447.441 9   9394351.467 8
  21326035.178    21326035.881   -78225633.709 9  71053847.908 8
  25243445.631    25243451.983     7796139.703 8   4970477.560 6
 89 11 25 14 58 29.0800000  0  3G13G 3G 9
  21711133.287    21711135.623   -30994997.398 9   9431325.411 9
  21322102.684    21322102.774   -78246300.939 9  71037743.514 8
  25267194.389    25267201.406     7920939.100 7   5067723.442 6
 89 11 25 14 58 59.0800000  0  3G13G 3G 9
  21720177.187    21720179.363   -30947466.103 9   9468362.675 8
  21318204.703    21318205.666   -78266785.752 9  71021781.270 8
  25290935.714    25290942.622     8045690.826 6   5164932.161 2
 89 11 25 14 59 29.0800000  0  3G13G 3G 9
  21729238.813    21729240.324   -30899854.145 9   9505462.787 8
  21314340.348    21314341.325   -78287088.549 9  71005960.844 7
  25314664.039    25314668.895     8170392.349 3   5262101.777 1
 89 11 25 14 59 59.0800000  0  2G13G 3
  21738314.103    21738315.003   -30852163.178 9   9542624.477 7
  21310510.455    21310512.992   -78307210.234 3  70990281.541 4
 89 11 25 15  0 29.0800000  0  2G13G 3
  21747404.622    21747406.036   -30804391.939 9   9579848.725 8
  21306717.678    21306718.111   -78327150.174 9  70974743.863 8
 89 11 25 15  0 59.0800000  0  2G13G 3
  21756510.327    21756510.997   -30756542.575 9   9617133.840 8
  21302956.587    21302958.278   -78346910.580 9  70959346.075 9
 89 11 25 15  1 29.0800000  0  2G13G 3
  21765630.815    21765632.731   -30708615.742 9   9654479.322 8
  21299230.072    21299231.836   -78366491.922 9  70944087.825 8
 89 11 25 15  1 59.0800000  0  2G13G 3
  21774765.699    21774768.113   -30660611.003 9   9691885.502 7
  21295538.902    21295540.193   -78385893.292 9  70928969.810 9
 89 11 25 15  2 29.0800000  0  2G13G 3
  21783915.867    21783917.434   -30612529.139 9   9729351.776 7
  21291881.073    21291882.758   -78405115.602 9  70913991.343 9
 89 11 25 15  2 59.0800000  0  2G13G 3
  21793079.865    21793081.144   -30564371.411 9   9766877.157 8
  21288256.820    21288258.639   -78424160.432 9  70899151.151 8
 89 11 25 15  3 29.0800000  0  2G13G 3
  21802258.919    21802259.424   -30516138.301 9   9804461.298 7
  21284666.336    21284667.628   -78443028.102 9  70884449.015 9
 89 11 25 15  3 59.0800000  0  2G13G 3
  21811451.310    21811452.257   -30467829.450 9   9842104.446 9
  21281109.687    21281111.252   -78461718.304 9  70869885.169 7
 89 11 25 15  4 29.0800000  0  2G13G 3
  21820657.914    21820661.120   -30419445.041 9   9879806.478 8
  21277587.315    21277588.593   -78480231.602 9  70855459.165 9
 89 11 25 15  4 59.0800000  0  2G13G 3
  21829879.339    21829881.638   -30370987.293 9   9917565.634 8
  21274098.069    21274098.803   -78498569.389 9  70841169.912 8
 89 11 25 15  5 29.0800000  0  3G13G12G 3
  21839113.940    21839118.288   -30322457.265 8   9955381.110 9
                  21660093.097  -114953470.239 9
  21270641.311    21270641.640   -78516732.407 9  70827016.846 9
 89 11 25 15  5 59.0800000  0  3G13G12G 3
  21848363.460    21848367.293   -30273854.326 9   9993253.401 8
  21976773.230    21976777.190  -114864913.060 9 146082558.288 9
  21267218.110    21267220.159   -78534720.702 9  70812999.937 9
 89 11 25 15  6 29.0800000  0  3G13G12G 3
  21857626.658    21857629.132   -30225177.524 9  10031183.243 8
  21993697.387    21993700.716  -114775977.759 8 146151858.872 9
  21263828.067    21263830.630   -78552533.811 9  70799119.542 8
 89 11 25 15  6 59.0800000  0  3G13G12G 3
  21866902.507    21866906.082   -30176428.993 9  10069168.988 8
  22010691.842    22010695.617  -114686669.894 9 146221449.274 9
  21260471.789    21260473.079   -78570173.410 9  70785374.331 9
 89 11 25 15  7 29.0800000  0  3G13G12G 3
  21876192.407    21876197.242   -30127609.212 8  10107210.260 8
  22027757.001    22027760.954  -114596992.051 9 146291327.954 9
  21257148.702    21257148.682   -78587640.203 9  70771763.768 8
 89 11 25 15  7 59.0800000  0  3G13G12G 3
  21885496.530    21885499.262   -30078718.551 9  10145306.744 7
  22044891.051    22044895.297  -114506947.148 9 146361492.672 9
  21253858.239    21253858.665   -78604933.885 9  70758288.120 8
 89 11 25 15  8 29.0800000  0  3G13G12G 3
  21894813.876    21894815.833   -30029757.879 9  10183457.801 8
  22062095.837    22062100.678  -114416538.664 8 146431940.692 9
  21250599.171    21250600.598   -78622055.793 9  70744946.307 8
 89 11 25 15  8 59.0800000  0  3G13G12G 3
  21904144.355    21904147.358   -29980726.931 9  10221663.615 7
  22079369.144    22079372.868  -114325769.692 9 146502669.612 9
  21247373.730    21247375.316   -78639005.792 9  70731738.435 8
 89 11 25 15  9 29.0800000  0  3G13G12G 3
  21913487.486    21913490.302   -29931624.982 8  10259924.749 8
  22096709.883    22096714.351  -114234642.044 8 146573678.034 9
  21244181.406    21244182.842   -78655783.289 9  70718665.007 8
 89 11 25 15  9 59.0800000  0  3G13G12G 3
  21922844.953    21922847.155   -29882454.429 8  10298239.363 8
  22114119.348    22114123.595  -114143160.587 9 146644962.140 9
  21241021.523    21241022.635   -78672390.376 9  70705724.360 8
 89 11 25 15 10 29.0800000  0  3G13G12G 3
  21932213.840    21932217.959   -29833216.846 8  10336606.169 8
  22131594.380    22131598.168  -114051329.120 9 146716518.972 9
  21237892.967    21237894.798   -78688828.400 9  70692915.430 9
 89 11 25 15 10 59.0800000  0  3G13G12G 3
  21941597.092    21941602.086   -29783909.761 9  10375027.151 9
  22149136.391    22149139.743  -113959148.955 9 146788347.538 9
  21234797.729    21234798.403   -78705095.732 9  70680239.525 9
 89 11 25 15 11 29.0800000  0  3G13G12G 3
  21950993.481    21950996.610   -29734534.631 9  10413501.148 8
  22166742.880    22166746.568  -113866624.196 9 146860444.602 9
  21231734.267    21231735.562   -78721193.248 9  70667695.943 9
 89 11 25 15 11 59.0800000  0  3G13G12G 3
  21960402.062    21960405.594   -29685092.037 9  10452027.739 7
  22184414.927    22184418.026  -113773758.316 9 146932807.482 9
  21228703.081    21228704.325   -78737122.157 8  70655283.752 8
 89 11 25 15 12 29.0800000  0  3G13G12G 3
  21969824.152    21969825.764   -29635582.410 9  10490606.539 8
  22202150.907    22202155.445  -113680553.942 8 147005434.115 9
  21225704.075    21225706.060   -78752882.256 9  70643003.100 9
 89 11 25 15 12 59.0800000  0  3G13G12G 3
  21979255.998    21979261.691   -29586006.400 8  10529237.077 8
  22219950.864    22219955.102  -113587014.967 9 147078321.481 9
  21222737.321    21222738.746   -78768474.721 8  70630853.053 8
 89 11 25 15 13 29.0800000  0  3G13G12G 3
  21988703.985    21988707.273   -29536364.425 9  10567918.996 8
  22237813.186    22237817.618  -113493144.886 9 147151466.844 8
  21219801.595    21219802.977   -78783900.342 9  70618833.027 8
 89 11 25 15 13 59.0800000  0  3G13G12G 3
  21998161.933    21998166.752   -29486656.644 9  10606652.216 8
  22255738.340    22255743.182  -113398946.708 8 147224867.882 8
  21216898.242    21216900.523   -78799158.505 9  70606943.491 9
 89 11 25 15 14 29.0800000  0  3G13G12G 3
  22007634.647    22007638.279   -29436882.958 8  10645436.786 8
  22273725.468    22273730.968  -113304423.427 7 147298522.222 9
  21214026.627    21214028.267   -78814250.062 9  70595183.763 8
 89 11 25 15 14 59.0800000  0  3G13G12G 3
  22017119.580    22017123.699   -29387043.155 9  10684272.862 8
  22291774.634    22291779.325  -113209577.580 9 147372427.937 8
  21211186.704    21211188.207   -78829174.364 9  70583554.397 9
 89 11 25 15 15 29.0800000  0  3G13G12G 3
  22026614.646    22026620.294   -29337138.676 9  10723159.329 8
  22309884.391    22309889.266  -113114413.393 8 147446581.699 9
  21208378.514    21208379.065   -78843932.980 9  70572054.103 9
 89 11 25 15 15 59.0800000  0  3G13G12G 3
  22036125.393    22036127.607   -29287170.984 9  10762095.071 8
  22328052.380    22328057.878  -113018935.088 9 147520980.220 8
  21205601.052    21205602.465   -78858527.311 9  70560681.817 9
 89 11 25 15 16 29.0800000  0  3G13G12G 3
  22045645.757    22045647.973   -29237138.918 9  10801080.986 7
  22346281.976    22346286.066  -112923144.604 9 147595622.004 8
  21202855.318    21202857.570   -78872956.668 9  70549438.108 9
 89 11 25 15 16 59.0800000  0  3G13G12G 3
  22055179.514    22055182.761   -29187042.754 9  10840116.868 7
  22364569.062    22364573.171  -112827044.997 8 147670504.674 9
  21200139.960    21200143.438   -78887220.873 9  70538323.095 9
 89 11 25 15 17 29.0800000  0  3G13G12G 3
  22064724.003    22064727.806   -29136881.599 8  10879203.372 7
  22382915.021    22382918.744  -112730639.267 8 147745625.850 9
  21197457.426    21197459.774   -78901320.167 9  70527336.548 8
 89 11 25 15 17 59.0800000  0  3G13G12G 3
  22074281.829    22074284.458   -29086657.939 9  10918338.574 8
  22401319.047    22401322.234  -112633932.180 8 147820981.835 9
  21194806.030    21194807.069   -78915256.177 9  70516477.239 8
 89 11 25 15 18 29.0800000  0  3G13G12G 3
  22083850.959    22083854.073   -29036372.162 9  10957522.180 7
  22419777.576    22419781.659  -112536927.607 9 147896569.699 9
  21192184.934    21192187.406   -78929029.566 9  70505744.665 9
 89 11 25 15 18 59.0800000  0  3G13G12G 3
  22093431.476    22093435.624   -28986023.221 9  10996755.001 7
  22438293.372    22438296.853  -112439627.221 9 147972388.021 9
  21189595.168    21189597.400   -78942639.651 9  70495139.334 9
 89 11 25 15 19 29.0800000  0  3G13G12G 3
  22103025.247    22103027.961   -28935611.692 8  11036036.589 7
  22456864.251    22456868.302  -112342034.267 8 148048434.329 9
  21187036.286    21187037.699   -78956086.871 9  70484660.922 9
 89 11 25 15 19 59.0800000  0  3G13G12G 3
  22112630.293    22112632.981   -28885138.502 9  11075366.219 8
  22475491.005    22475495.237  -112244152.219 9 148124705.885 8
  21184508.537    21184510.810   -78969371.708 9  70474309.024 8
 89 11 25 15 20 29.0800000  0  3G13G12G 3
  22122246.384    22122249.287   -28834603.687 9  11114743.892 8
  22494170.190    22494175.116  -112145985.407 9 148201199.341 9
  21182010.227    21182012.762   -78982495.179 9  70464082.869 8
 89 11 25 15 20 59.0800000  0  3G13G12G 3
  22131874.324    22131879.000   -28784006.938 9  11154169.811 8
  22512905.480    22512909.505  -112047536.525 9 148277912.592 9
  21179544.368    21179546.976   -78995457.012 9  70453982.684 9
 89 11 25 15 21 29.0800000  0  3G13G12G 3
  22141514.856    22141519.389   -28733348.846 9  11193643.507 9
  22531693.214    22531697.011  -111948808.800 9 148354843.130 9
  21177108.292    21177111.352   -79008257.315 9  70444008.357 9
 89 11 25 15 21 59.0800000  0  3G13G12G 3
  22151166.551    22151170.326   -28682629.678 9  11233164.802 8
  22550533.192    22550537.295  -111849806.144 9 148431987.903 9
  21174703.254    21174704.914   -79020897.084 9  70434159.112 9
 89 11 25 15 22 29.0800000  0  3G13G12G 3
  22160829.033    22160832.621   -28631849.285 9  11272733.801 7
  22569423.846    22569428.657  -111750531.320 9 148509344.740 9
  21172328.641    21172331.493   -79033376.231 9  70424435.027 9
 89 11 25 15 22 59.0800000  0  3G13G12G 3
  22170504.794    22170507.997   -28581007.580 9  11312350.589 8
  22588366.856    22588371.258  -111650987.586 9 148586911.125 9
  21169983.743    21169986.938   -79045694.576 9  70414836.253 9
 89 11 25 15 23 29.0800000  0  3G13G12G 3
  22180190.258    22180193.459   -28530105.501 9  11352014.388 8
  22607359.403    22607364.330  -111551178.475 9 148664684.296 9
  21167670.535    21167673.930   -79057853.180 9  70405361.938 9
 89 11 25 15 23 59.0800000  0  3G13G12G 3
  22189888.112    22189892.301   -28479143.496 8  11391724.907 8
  22626402.171    22626407.619  -111451107.898 8 148742661.208 9
  21165387.812    21165390.024   -79069853.049 9  70396011.318 9
 89 11 25 15 24 29.0800000  0  3G13G12G 3
  22199597.214    22199602.162   -28428120.993 8  11431482.558 8
  22645494.426    22645499.802  -111350778.159 9 148820840.065 9
  21163134.789    21163136.577   -79081693.110 8  70386785.224 8
 89 11 25 15 24 59.0800000  0  3G13G12G 3
  22209318.795    22209322.797   -28377038.255 8  11471287.133 8
  22664636.206    22664640.639  -111250193.141 9 148899217.832 9
  21160911.163    21160913.733   -79093373.956 9  70377683.199 9
 89 11 25 15 25 29.0800000  0  3G13G12G 3
  22219050.791    22219053.177   -28325896.923 8  11511137.382 7
  22683824.296    22683830.417  -111149357.537 9 148977790.847 9
  21158719.217    21158722.246   -79104897.598 9  70368703.658 8
 89 11 25 15 25 59.0800000  0  3G13G12G 3
  22228793.975    22228797.122   -28274695.084 9  11551034.771 7
  22703061.260    22703065.234  -111048272.213 9 149056558.467 9
  21156556.480    21156559.014   -79116261.776 9  70359848.390 8
 89 11 25 15 26 29.0800000  0  3G13G12G 3
  22238549.813    22238553.816   -28223432.654 9  11590979.385 8
  22722343.691    22722348.160  -110946941.075 9 149135517.614 9
  21154423.642    21154426.537   -79127467.197 9  70351116.815 9
 89 11 25 15 26 59.0800000  0  3G13G12G 3
  22248315.836    22248319.483   -28172111.995 9  11630969.374 8
  22741672.593    22741677.439  -110845369.343 9 149214664.231 9
  21152322.480    21152323.429   -79138515.770 9  70342507.457 8
 89 11 25 15 27 29.0800000  0  3G13G12G 3
  22258092.620    22258096.537   -28120732.860 9  11671004.914 8
  22761046.144    22761051.293  -110743560.032 9 149293995.984 9
  21150250.417    21150251.063   -79149407.481 9  70334020.361 8
 89 11 25 15 27 59.0800000  0  3G13G12G 3
  22267880.308    22267885.284   -28069293.471 9  11711087.412 8
  22780465.571    22780469.231  -110641514.982 9 149373511.420 9
  21148207.071    21148208.786   -79160141.210 9  70325656.348 9
 89 11 25 15 28 29.0800000  0  3G13G12G 3
  22277681.133    22277685.981   -28017794.858 9  11751216.053 7
  22799928.143    22799932.266  -110539238.194 9 149453207.437 9
  21146194.648    21146196.484   -79170717.714 9  70317414.877 8
 89 11 25 15 28 59.0800000  0  3G13G12G 3
  22287493.089    22287497.037   -27966237.124 9  11791390.765 7
  22819433.817    22819438.349  -110436733.120 8 149533081.312 9
  21144211.199    21144214.216   -79181137.266 9  70309295.692 9
 89 11 25 15 29 29.0800000  0  3G13G12G 3
  22297314.316    22297318.349   -27914621.433 9  11831610.659 8
  22838982.706    22838987.621  -110334003.740 8 149613130.004 9
  21142258.709    21142260.015   -79191401.018 9  70301297.910 9
 89 11 25 15 29 59.0800000  0  3G13G12G 3
  22307148.826    22307152.313   -27862947.505 9  11871875.937 8
  22858573.051    22858578.341  -110231053.421 9 149693350.820 8
  21140335.365    21140337.553   -79201508.735 9  70293421.715 8
 89 11 25 15 30 29.0800000  0  3G13G12G 3
  22316993.320    22316997.712   -27811213.699 9  11912187.869 8
  22878205.807    22878210.847  -110127884.012 8 149773742.385 9
  21138441.977    21138443.881   -79211459.394 9  70285667.881 8
 89 11 25 15 30 59.0800000  0  3G13G12G 3
  22326849.348    22326852.478   -27759421.855 9  11952545.019 7
  22897879.595    22897885.121  -110024500.799 9 149854300.539 9
  21136577.346    21136578.986   -79221254.664 8  70278035.155 8
 89 11 25 15 31 29.0800000  0  3G13G12G 3
  22336715.967    22336720.713   -27707571.435 9  11992947.802 8
  22917593.068    22917598.439  -109920906.535 8 149935023.153 9
  21134742.758    21134745.171   -79230894.605 9  70270523.452 8
 89 11 25 15 31 59.0800000  0  3G13G12G 3
  22346594.434    22346597.916   -27655661.245 9  12033397.147 8
  22937346.702    22937351.378  -109817103.571 9 150015908.380 9
  21132938.149    21132941.879   -79240377.881 9  70263133.827 8
 89 11 25 15 32 29.0800000  0  3G13G12G 3
  22356483.716    22356487.589   -27603693.194 9  12073891.594 9
  22957138.131    22957143.135  -109713096.896 8 150096952.359 9
  21131164.168    21131166.039   -79249706.511 9  70255864.686 8
 89 11 25 15 32 59.0800000  0  3G13G12G 3
  22366383.361    22366387.787   -27551667.283 9  12114431.132 9
  22976967.822    22976973.242  -109608889.463 9 150178152.748 9
  21129417.155    21129420.210   -79258880.504 9  70248716.064 9
 89 11 25 15 33 29.0800000  0  3G13G12G 3
  22376294.708    22376298.692   -27499582.503 8  12155016.527 8
  22996835.909    22996842.099  -109504483.909 9 150259507.537 9
  21127701.995    21127703.719   -79267899.126 9  70241688.523 9
 89 11 25 15 33 59.0800000  0  3G13G12G 3
  22386218.048    22386222.906   -27447439.128 8  12195647.581 8
  23016740.531    23016746.896  -109399883.955 9 150341013.796 9
  21126015.329    21126017.599   -79276762.805 9  70234781.697 9
 89 11 25 15 34 29.0800000  0  3G13G12G 3
  22396150.628    22396155.172   -27395237.912 8  12236323.703 8
  23036681.477    23036687.712  -109295093.499 9 150422668.502 9
  21124358.013    21124359.930   -79285472.213 9  70227995.098 8
 89 11 25 15 34 59.0800000  0  3G13G12G 3
  22406096.261    22406101.191   -27342978.204 9  12277045.392 8
  23056657.684    23056663.553  -109190115.621 9 150504469.247 9
  21122730.405    21122732.632   -79294027.295 9  70221328.752 8
 89 11 25 15 35 29.0800000  0  3G13G12G 3
  22416052.139    22416056.639   -27290659.960 9  12317812.720 9
  23076670.234    23076675.535  -109084953.458 9 150586413.584 9
  21121131.519    21121134.204   -79302427.739 8  70214782.884 8
 89 11 25 15 35 59.0800000  0  3G13G12G 3
  22426019.435    22426023.363   -27238283.791 9  12358625.166 8
  23096716.766    23096721.953  -108979611.482 9 150668498.033 9
  21119561.892    21119565.350   -79310674.695 9  70208356.622 9
 89 11 25 15 36 29.0800000  0  3G13G12G 3
  22435997.347    22436002.608   -27185849.855 9  12399482.641 8
  23116796.359    23116802.067  -108874092.861 9 150750720.124 9
  21118021.854    21118025.052   -79318768.249 8  70202049.879 8
 89 11 25 15 36 59.0800000  0  3G13G12G 3
  22445986.625    22445990.897   -27133357.422 9  12440385.713 9
  23136908.713    23136915.909  -108768400.242 9 150833077.797 9
  21116511.029    21116514.596   -79326707.329 9  70195863.530 9
 89 11 25 15 37 29.0800000  0  3G13G12G 3
  22455986.659    22455990.459   -27080806.413 9  12481334.405 8
  23157054.139    23157059.924  -108662536.725 9 150915568.639 9
  21115029.096    21115033.005   -79334492.544 8  70189797.077 9
 89 11 25 15 37 59.0800000  0  3G13G12G 3
  22465997.142    22466002.817   -27028196.459 8  12522329.028 8
  23177231.675    23177237.582  -108556505.781 9 150998189.945 9
  21113577.978    21113579.810   -79342123.702 9  70183850.650 9
 89 11 25 15 38 29.0800000  0  3G13G12G 3
  22476019.614    22476024.945   -26975528.437 9  12563368.866 9
  23197439.529    23197445.897  -108450311.661 9 151080938.400 9
  21112155.403    21112156.853   -79349601.980 9  70178023.370 7
 89 11 25 15 38 59.0800000  0  3G13G12G 3
  22486053.592    22486059.008   -26922801.774 9  12604454.409 8
  23217678.651    23217684.729  -108343956.908 9 151163812.012 9
  21110760.705    21110763.619   -79356926.512 9  70172315.884 9
 89 11 25 15 39 29.0800000  0  3G13G12G 3
  22496098.788    22496103.758   -26870016.988 9  12645585.244 8
  23237946.676    23237952.968  -108237445.593 9 151246807.619 9
  21109395.776    21109398.894   -79364098.004 9  70166727.630 8
 89 11 25 15 39 59.0800000  0  3G13G12G 3
  22506155.259    22506160.001   -26817174.042 9  12686761.396 8
  23258244.291    23258310.238  -108130781.444 8 151359276.580 1
  21108061.322    21108063.732   -79371116.951 9  70161258.256 8
 89 11 25 15 40 29.0800000  0  3G13G12G 3
  22516222.776    22516227.562   -26764271.658 9  12727983.881 8
  23278570.069    23278577.377  -108023966.127 8 151442508.826 9
  21106755.411    21106756.307   -79377981.743 9  70155908.988 8
 89 11 25 15 40 59.0800000  0  3G13G12G 3
  22526300.953    22526304.209   -26711311.027 9  12769251.753 7
  23298926.761    23298931.663  -107917004.526 9 151525855.297 9
  21105476.837    21105479.169   -79384693.454 9  70150679.004 8
 89 11 25 15 41 29.0800000  0  3G13G12G 3
  22536390.552    22536393.297   -26658291.288 9  12810565.684 7
  23319306.496    23319313.789  -107809899.261 8 151609313.717 9
  21104228.658    21104231.607   -79391252.032 9  70145568.334 7
 89 11 25 15 41 59.0800000  0  3G13G12G 3
  22546490.487    22546494.337   -26605212.894 9  12851925.333 7
  23339714.768    23339721.194  -107702655.050 8 151692880.402 8
  21103010.874    21103012.404   -79397658.393 8  70140576.292 8
 89 11 25 15 42 29.0800000  0  3G13G12G 3
  22556602.053    22556606.143   -26552075.944 9  12893330.611 7
  23360150.841    23360155.327  -107595275.167 8 151776552.811 9
  21101820.021    21101822.194   -79403912.401 9  70135702.975 7
 89 11 25 15 42 59.0800000  0  3G13G12G 3
  22566724.920    22566728.737   -26498879.776 8  12934782.018 7
  23380608.781    23380615.477  -107487762.311 9 151860328.831 9
  21100658.697    21100661.746   -79410013.334 8  70130948.939 9
 89 11 25 15 43 29.0800000  0  3G13G12G 3
  22576857.472    22576862.687   -26445623.775 8  12976280.016 8
  23401093.103    23401098.227  -107380119.085 8 151944206.417 9
  21099527.072    21099529.374   -79415960.850 9  70126314.443 9
 89 11 25 15 43 59.0800000  0  3G13G12G 3
  22587003.719    22587010.236   -26392308.485 9  13017824.212 8
  23421601.780    23421606.052  -107272349.641 9 152028182.372 9
  21098424.030    21098427.568   -79421755.889 9  70121798.730 7
 89 11 25 15 44 29.0800000  0  3G13G12G 3
  22597162.019    22597167.177   -26338933.592 9  13059414.867 8
  23442132.287    23442137.839  -107164457.241 9 152112254.130 9
  21097350.970    21097354.147   -79427397.715 9  70117402.434 8
 89 11 25 15 44 59.0800000  0  3G13G12G 3
  22607330.360    22607335.557   -26285498.480 9  13101052.438 8
  23462684.850    23462693.693  -107056445.042 8 152196419.210 9
  21096306.542    21096309.147   -79432886.309 9  70113125.551 9
 89 11 25 15 45 29.0800000  0  3G13G12G 3
  22617510.303    22617515.993   -26232003.657 9  13142736.535 8
  23483262.829    23483268.873  -106948316.664 9 152280674.853 9
  21095290.616    21095294.336   -79438222.271 9  70108967.588 8
 89 11 25 15 45 59.0800000  0  3G13G12G 3
  22627701.089    22627706.612   -26178449.345 9  13184466.994 8
                  23506080.114  -129741656.364 1
  21094305.285    21094308.031   -79443405.653 9  70104928.528 8
 89 11 25 15 46 29.0800000  0  3G13G12G 3
  22637903.743    22637909.941   -26124834.632 9  13226244.525 8
                  23524453.488  -129670798.201 8
  21093348.872    21093351.720   -79448435.517 9  70101009.082 9
 89 11 25 15 46 59.0800000  0  2G13G 3
  22648118.372    22648123.539   -26071160.323 4  13268068.505 5
  21092419.234    21092422.298   -79453313.135 4  70097208.280 6
 89 11 25 15 47 29.0800000  0  3G13G12G 3
  22658343.176    22658348.944   -26017426.133 9  13309939.123 8
  23565775.869    23565784.226  -129883463.992 9 165060341.976 7
  21091520.168    21091524.088   -79458038.201 9  70093526.335 8
 89 11 25 15 47 59.0800000  0  3G13G12G 3
  22668581.004    22668586.528   -25963630.433 9  13351857.678 8
  23586453.928    23586460.007  -129774805.132 9 165145010.961 9
  21090650.193    21090654.628   -79462609.778 9  70089963.984 8
 89 11 25 15 48 29.0800000  0  3G13G12G 3
  22678828.961    22678834.687   -25909773.886 9  13393823.660 8
  23607148.844    23607155.473  -129666050.284 9 165229754.758 8
  21089809.106    21089812.881   -79467028.275 9  70086520.929 8
 89 11 25 15 48 59.0800000  0  3G13G12G 3
  22689089.998    22689094.793   -25855856.145 9  13435837.315 8
  23627861.514    23627869.452  -129557202.550 9 165314570.922 8
  21088998.754    21089001.286   -79471293.417 9  70083197.391 9
 89 11 25 15 49 29.0800000  0  3G13G12G 3
  22699362.022    22699367.503   -25801877.618 9  13477898.348 8
  23648592.729    23648599.971  -129448265.165 9 165399456.923 9
  21088216.597    21088219.393   -79475405.325 9  70079993.229 8
 89 11 25 15 49 59.0800000  0  3G13G12G 3
  22709645.952    22709650.773   -25747837.226 9  13520007.610 8
  23669339.257    23669345.700  -129339241.752 9 165484409.967 9
  21087463.456    21087466.700   -79479363.816 9  70076908.628 9
 89 11 25 15 50 29.0800000  0  3G13G12G 3
  22719941.251    22719946.738   -25693736.092 9  13562164.195 8
  23690102.209    23690109.814  -129230137.126 9 165569426.299 9
  21086738.146    21086741.420   -79483170.243 9  70073942.509 8
 89 11 25 15 50 59.0800000  0  3G13G12G 3
  22730247.439    22730253.865   -25639573.532 9  13604368.635 8
  23710878.165    23710886.315  -129120953.531 9 165654504.143 9
  21086043.393    21086045.759   -79486823.546 9  70071095.719 7
 89 11 25 15 51 29.0800000  0  3G13G12G 3
  22740566.841    22740572.201   -25585347.872 9  13646622.235 9
  23731669.804    23731678.565  -129011693.275 9 165739641.736 9
  21085377.332    21085380.736   -79490322.447 9  70068369.237 8
 89 11 25 15 51 59.0800000  0  3G13G12G 3
  22750897.063    22750902.095   -25531059.335 9  13688924.847 8
  23752475.191    23752483.035  -128902359.774 9 165824836.398 9
  21084741.396    21084745.174   -79493666.815 9  70065763.152 8
 89 11 25 15 52 29.0800000  0  3G13G12G 3
  22761240.195    22761245.378   -25476708.660 8  13731275.853 8
  23773293.821    23773302.603  -128792957.349 8 165910084.737 9
  21084134.132    21084136.661   -79496857.724 8  70063276.672 8
 89 11 25 15 52 59.0800000  0  3G13G12G 3
  22771593.920    22771600.362   -25422295.728 9  13773675.371 8
  23794126.022    23794134.146  -128683489.314 9 165995384.194 9
  21083555.628    21083559.359   -79499895.368 9  70060909.595 9
 89 11 25 15 53 29.0800000  0  3G13G12G 3
  22781961.294    22781966.548   -25367819.213 8  13816124.451 8
  23814969.374    23814977.029  -128573957.967 9 166080732.993 9
  21083008.110    21083011.083   -79502778.649 9  70058662.815 7
 89 11 25 15 53 59.0800000  0  3G13G12G 3
  22792340.238    22792344.985   -25313279.137 9  13858623.058 8
  23835823.198    23835832.593  -128522865.095 8 166166128.530 9
  21082488.858    21082491.260   -79505507.505 9  70056536.372 8
 89 11 25 15 54 29.0800000  0  3G13G12G 3
  22802730.463    22802734.168   -25258676.473 9  13901170.458 7
  23856688.997    23856697.112  -128413217.180 8 166251567.765 9
  21081998.488    21082001.415   -79508082.206 9  70054530.054 8
 89 11 25 15 54 59.0800000  0  3G13G12G 3
  22813133.602    22813139.462   -25204010.131 9  13943767.444 8
  23877564.882    23877573.537  -128303516.848 8 166337048.214 9
  21081537.789    21081540.837   -79510502.382 9  70052644.139 8
 89 11 25 15 55 29.0800000  0  3G13G12G 3
  22823548.792    22823553.543   -25149279.757 8  13986414.333 8
  23898448.543    23898458.345  -128252487.971 8 166422567.249 9
  21081106.497    21081110.755   -79512767.820 9  70050878.809 8
 89 11 25 15 55 59.0800000  0  3G13G12G 3
  22833974.620    22833981.271   -25094485.470 9  14029111.002 8
  23919342.989    23919351.388  -128142692.961 8 166508121.461 9
  21080704.934    21080708.589   -79514879.137 9  70049233.553 9
 89 11 25 15 56 29.0800000  0  3G13G12G 3
  22844414.242    22844421.602   -25039627.316 9  14071857.454 7
  23940242.718    23940253.752  -128032856.026 4 166593708.405 6
  21080333.438    21080335.980   -79516836.008 9  70047708.652 8
 89 11 25 15 56 59.0800000  0  3G13G12G 3
  22854867.626    22854871.360   -24984704.284 9  14114654.427 7
  23961154.975    23961162.282  -127981725.569 7 166679326.769 9
  21079989.916    21079993.702   -79518637.368 9  70046304.937 8
 89 11 25 15 57 29.0800000  0  3G13G12G 3
  22865329.690    22865336.312   -24929715.723 9  14157502.468 8
  23982069.671    23982078.772  -127871812.179 9 166764973.232 9
  21079676.773    21079679.331   -79520283.136 9  70045022.467 9
 89 11 25 15 57 59.0800000  0  3G13G12G 3
  22875808.487    22875812.548   -24874660.984 9  14200402.072 8
  24002991.690    24003002.116  -127761865.197 8 166850645.806 9
  21079392.993    21079397.094   -79521772.752 8  70043861.652 8
 89 11 25 15 58 29.0800000  0  3G13G12G 3
  22886296.426    22886303.124   -24819540.555 9  14243352.869 7
  24023921.272    24023929.811  -127651888.524 8 166936341.546 9
  21079140.765    21079142.733   -79523106.494 9  70042822.326 8
 89 11 25 15 58 59.0800000  0  3G13G12G 3
  22896797.672    22896805.116   -24764354.927 9  14286354.451 8
  24044853.518    24044863.028  -127541885.625 8 167022057.704 9
  21078916.110    21078920.280   -79524284.608 9  70041904.263 8
 89 11 25 15 59 29.0800000  0  3G13G12G 3
  22907312.659    22907319.112   -24709102.640 9  14329407.982 8
  24065790.207    24065800.370  -127490638.821 7 167107792.100 9
  21078721.518    21078724.215   -79525306.653 9  70041107.817 9
 89 11 25 15 59 59.0800000  0  3G13G12G 3
  22917838.980    22917846.344   -24653783.021 9  14372513.991 9
  24086732.454    24086742.234  -127380591.526 9 167193542.481 9
  21078556.890    21078560.318   -79526171.813 9  70040433.602 8
 89 11 25 16  0 29.0800000  0  3G13G12G 3
  22928380.046    22928385.988   -24598396.345 9  14415672.252 8
  24107677.206    24107687.063  -127270527.737 9 167279306.100 9
  21078422.012    21078425.639   -79526879.902 9  70039881.786 8
 89 11 25 16  0 59.0800000  0  3G13G12G 3
  22938931.007    22938938.686   -24542942.916 9  14458882.527 9
  24128624.409    24128634.406  -127160450.939 9 167365079.823 9
  21078317.308    21078321.324   -79527431.722 9  70039451.736 9
 89 11 25 16  1 29.0800000  0  3G13G12G 3
  22949497.675    22949504.900   -24487422.650 9  14502144.870 8
  24149573.761    24149583.142  -127109155.647 9 167450860.946 9
  21078241.800    21078245.370   -79527826.726 9  70039143.867 9
 89 11 25 16  1 59.0800000  0  3G13G12G 3
  22960075.786    22960081.999   -24431834.894 9  14545459.806 8
  24170523.399    24170533.694  -126999062.348 9 167536647.520 9
  21078197.195    21078200.352   -79528064.224 9  70038958.744 8
 89 11 25 16  2 29.0800000  0  3G13G12G 3
  22970666.955    22970673.091   -24376178.424 9  14588828.281 8
  24191475.689    24191484.699  -126888965.144 9 167622437.153 9
  21078182.171    21078185.527   -79528143.719 9  70038896.715 8
 89 11 25 16  2 59.0800000  0  3G13G12G 3
  22981271.555    22981277.100   -24320453.332 9  14632250.228 8
  24212426.823    24212436.204  -126778867.228 9 167708227.356 9
  21078196.652    21078201.497   -79528065.018 9  70038957.955 9
 89 11 25 16  3 29.0800000  0  3G13G12G 3
  22991888.092    22991896.687   -24264659.896 9  14675725.419 9
  24233377.377    24233387.056  -126668772.494 9 167794015.050 9
  21078242.110    21078245.684   -79527828.437 9  70039142.225 8
 89 11 25 16  3 59.0800000  0  3G13G12G 3
  23002519.131    23002525.833   -24208796.441 8  14719255.182 8
  24254327.058    24254336.566  -126617474.933 9 167879798.718 8
  21078317.863    21078320.546   -79527432.610 9  70039450.563 8
 89 11 25 16  4 29.0800000  0  3G13G12G 3
  23013163.310    23013170.838   -24152863.043 9  14762839.444 8
  24275275.544    24275284.809  -126507393.889 9 167965575.762 8
  21078422.520    21078426.177   -79526877.297 9  70039883.195 8
 89 11 25 16  4 59.0800000  0  3G13G12G 3
  23023820.833    23023827.621   -24096859.539 9  14806478.333 8
  24296221.253    24296230.438  -126397324.935 9 168051343.368 8
  21078558.684    21078562.083   -79526162.528 9  70040440.072 8
 89 11 25 16  5 29.0800000  0  3G13G12G 3
  23034491.271    23034497.577   -24040785.929 9  14850171.849 9
  24317163.536    24317174.045  -126287271.644 9 168137098.750 9
  21078725.317    21078729.386   -79525288.728 9  70041120.854 9
 89 11 25 16  5 59.0800000  0  3G13G12G 3
  23045175.250    23045182.105   -23984641.213 9  14893920.773 9
  24338102.763    24338112.875  -126177236.754 9 168222839.830 9
  21078922.151    21078926.567   -79524255.000 9  70041926.259 8
 89 11 25 16  6 29.0800000  0  3G13G12G 3
  23055871.825    23055879.565   -23928425.312 9  14937725.163 8
  24359038.092    24359046.986  -126067223.406 3 168308564.099 6
  21079148.995    21079151.421   -79523060.929 9  70042856.622 8
 89 11 25 16  6 59.0800000  0  3G13G12G 3
  23066583.923    23066590.374   -23872138.507 9  14981584.821 8
  24379967.804    24379978.952  -125957235.266 9 168394268.728 9
  21079406.217    21079410.504   -79521706.547 9  70043911.882 7
 89 11 25 16  7 29.0800000  0  3G13G12G 3
  23077308.606    23077316.691   -23815780.149 9  15025500.226 8
  24400893.638    24400904.513  -125906040.824 9 168479951.431 8
  21079696.190    21079698.945   -79520191.209 9  70045092.572 8
 89 11 25 16  7 59.0800000  0  3G13G12G 3
  23088047.225    23088055.814   -23759349.331 9  15069472.095 7
  24421812.483    24421823.436  -125796111.686 9 168565609.665 8
  21080014.526    21080018.525   -79518514.755 9  70046398.811 8
 89 11 25 16  8 29.0800000  0  3G13G12G 3
  23098799.037    23098808.448   -23702845.129 9  15113501.146 8
  24442724.802    24442735.680  -125686216.337 9 168651242.055 8
  21080365.315    21080369.271   -79516675.095 9  70047832.231 8
